     2.11           OBSERVATION DATA    G (GPS)             RINEX VERSION / TYPE
teqc 2007Jun25 20080612 09:39:09UTC                         PGM / RUN BY / DATE
MSXP|IAx86-PII|bcc32 5.0|MSWin95->XP|486/DX+                COMMENT
2.10 OBSERVATION DATA G (GPS)                               COMMENT
JPS2RIN 1.40 RUN BY 12-JUN-08 11:01                         COMMENT
build Feb 6 2004 (c) Javad Navigation Systems               COMMENT
Use -p (profile) switch to override ANTENNA TYPE and DELTA  COMMENT
and other fields                                            COMMENT
cnp0501a.jps                                                COMMENT
SE TPS 00000000                                             COMMENT
cnp0501a_2848                                               MARKER NAME
OBSERVER AGENCY                                             OBSERVER / AGENCY
MT300602848 TPS LEGACY 2.3 Apr,28,2004 p4                   REC # / TYPE / VERS
cnp0501a -Unknown-                                          ANT # / TYPE
   387440.1178  -738607.7956  6302210.0308                  APPROX POSITION XYZ
        0.0000        0.0000        0.0000                  ANTENNA: DELTA H/E/N
     1     1                                                WAVELENGTH FACT L1/2
     7    C1    P1    P2    L1    L2    D1    D2            # / TYPES OF OBSERV
    30.0000                                                 INTERVAL
Forced Modulo Decimation to 30 seconds                      COMMENT
teqc windowed: start @ 2008 May 1 12:40:30.000              COMMENT
  2008     5     1    12    40   30.0000000     GPS         TIME OF FIRST OBS
                                                            END OF HEADER
 08  5  1 12 40 30.0000000  0 10G 4G10G13G16G23G24G25G29G30G31
  23749686.288    23749686.1504   23749688.0224  124805428.383 6  97251013.21642
     -3739.399       -2913.838
  22623762.173    22623761.2184   22623762.9774  118888678.903 7  92640540.29143
      2992.258        2331.617
  21406252.332    21406252.5394   21406253.0764  112490612.531 8  87655041.24545
       358.367         279.237
  23306078.655    23306078.8254   23306080.6794  122474263.045 6  95434514.64742
      2442.471        1903.176
  22306399.628    22306399.1794   22306398.1144  117220920.373 7  91340992.92744
     -2299.427       -1791.785
  23451703.030    23451702.1064   23451705.1234  123239552.910 6  96030814.66642
      3089.845        2407.689
  23720635.413    23720636.3334   23720637.0324  124652801.553 5  97132056.36142
      2627.781        2047.656
  21790253.074    21790252.9154   21790253.6954  114508531.525 7  89227457.52645
       608.735         474.322
  24318605.608    24318605.8174   24318608.2384  127795121.418 6  99580640.72142
     -3869.569       -3015.255
  24466713.750    24466714.3284   24466714.7154  128573447.135 6 100187117.11942
     -3399.202       -2648.702
 08  5  1 12 41  0.0000000  0 10G 4G10G13G16G23G24G25G29G30G31
  23771063.753    23771064.4554   23771067.7044  124917775.545 6  97338556.50042
     -3750.021       -2922.124
  22606725.199    22606724.1774   22606726.2294  118799151.119 6  92570778.39943
      2976.448        2319.334
  21404278.834    21404279.1324   21404279.7334  112480242.550 8  87646960.73445
       333.141         259.593
  23292185.395    23292184.6314   23292186.3264  122401250.818 6  95377622.02642
      2424.866        1889.468
  22319585.137    22319584.6574   22319583.6994  117290210.793 7  91394985.44644
     -2319.796       -1807.640
  23434098.764    23434098.0644   23434100.2294  123147043.346 6  95958729.30142
      3077.390        2397.973
  23705678.640    23705678.7544   23705681.3184  124574201.917 5  97070809.85542
      2612.472        2035.665
  21786843.632    21786843.6674   21786844.6834  114490615.852 8  89213497.25645
       585.956         456.589
  24340726.202    24340726.2934   24340728.8654  127911365.919 6  99671220.81542
     -3879.864       -3023.340
  24486154.246    24486154.9564   24486155.1324  128675606.703 6 100266721.95842
     -3411.095       -2657.988
 08  5  1 12 41 30.0000000  0 10G 4G10G13G16G23G24G25G29G30G31
  23792500.953    23792499.3954   23792501.8714  125030416.533 6  97426328.65142
     -3759.735       -2929.654
  22589776.435    22589775.2144   22589777.3524  118710082.877 6  92501374.58543
      2961.401        2307.586
  21402446.575    21402446.7494   21402447.2874  112470612.985 8  87639457.15545
       308.836         240.662
  23278388.436    23278387.9794   23278389.9304  122328749.931 6  95321127.83342
      2408.296        1876.607
  22332884.320    22332884.0224   22332883.0834  117360098.852 7  91449443.62444
     -2339.325       -1822.826
  23416562.620    23416562.9364   23416565.3004  123054893.658 5  95886924.36242
      3065.522        2388.698
  23690804.698    23690804.7674   23690804.9764  124496034.032 6  97009899.85941
      2598.622        2024.925
  21783560.976    21783561.1144   21783562.1044  114473366.127 8  89200055.90945
       563.979         439.471
  24362904.773    24362904.0754   24362906.1854  128027909.241 6  99762033.76842
     -3889.727       -3030.932
  24505658.206    24505658.8054   24505659.5404  128778103.700 6 100346589.73842
     -3421.943       -2666.481
 08  5  1 12 42  0.0000000  0 10G 4G10G13G16G23G24G25G29G30G31
  23813990.382    23813990.7714   23813993.1834  125143348.501 5  97514327.54842
     -3769.246       -2937.096
  22572914.806    22572913.9354   22572916.3734  118621477.072 6  92432331.14143
      2946.213        2295.740
  21400755.041    21400755.2234   21400755.7884  112461724.033 8  87632530.68445
       284.336         221.535
  23264690.188    23264689.1584   23264690.6804  122256761.954 6  95265033.34642
      2391.414        1863.414
  22346296.964    22346296.9724   22346295.9074  117430581.961 7  91504365.48744
     -2358.720       -1837.967
  23399095.452    23399095.1434   23399097.9844  122963105.474 6  95815401.13042
      3054.034        2379.736
  23676011.841    23676011.4574   23676013.4504  124418299.751 6  96949327.69042
      2584.234        2013.648
  21780405.485    21780405.3234   21780406.5074  114456782.976 7  89187133.97845
       542.221         422.495
  24385137.623    24385137.6124   24385141.1674  128144748.279 5  99853077.16842
     -3899.483       -3038.590
  24525226.762    24525226.1924   24525227.7364  128880935.234 6 100426718.16442
     -3432.678       -2674.798
 08  5  1 12 42 30.0000000  0 10G 4G10G13G16G23G24G25G29G30G31
  23835530.770    23835532.0634   23835534.6414  125256556.696 6  97602541.68542
     -3778.828       -2944.446
  22556139.794    22556138.7804   22556141.5814  118533323.454 6  92363640.04243
      2930.186        2283.237
  21399202.249    21399202.3354   21399203.1254  112453563.710 8  87626172.00045
       259.076         201.863
  23251086.233    23251085.8144   23251087.9224  122185276.741 6  95209330.63242
      2373.820        1849.743
  22359820.390    22359819.8744   22359818.5884  117501645.515 7  91559739.64944
     -2379.157       -1853.892
  23381696.306    23381696.2274   23381698.5714  122871668.754 6  95744151.74042
      3041.426        2369.943
  23661300.910    23661300.5764   23661302.3334  124340989.096 6  96889085.66742
      2569.112        2001.916
  21777374.109    21777374.3524   21777375.4534  114440854.616 7  89174722.26645
       519.210         404.571
  24407424.576    24407425.6764   24407427.1704  128261867.373 5  99944338.79842
     -3909.033       -3046.028
  24544856.041    24544856.8754   24544856.0334  128984085.950 6 100507095.34142
     -3444.223       -2683.840
 08  5  1 12 43  0.0000000  0 10G 4G10G13G16G23G24G25G29G30G31
  23857132.626    23857130.8404   23857134.4154  125370059.992 6  97690985.71642
     -3788.012       -2951.734
  22539455.348    22539454.2814   22539456.8824  118445646.115 7  92295320.06943
      2914.468        2271.027
  21397792.234    21397792.4244   21397792.8694  112446154.210 8  87620398.35745
       234.450         182.691
  23237583.920    23237583.4944   23237584.8704  122114318.819 6  95154038.70642
      2356.272        1836.082
  22373456.628    22373456.9284   22373455.8584  117573308.900 7  91615581.17644
     -2398.743       -1869.156
  23364368.300    23364367.1714   23364370.3664  122780607.521 6  95673194.96142
      3029.421        2360.572
  23646673.769    23646673.5314   23646674.3524  124264126.087 6  96829192.38342
      2554.376        1990.447
  21774472.205    21774472.2854   21774473.2414  114425603.773 8  89162838.48545
       497.001         387.278
  24429768.045    24429767.9964   24429769.2574  128379285.163 5 100035833.13241
     -3918.818       -3053.615
  24564549.891    24564550.4754   24564549.6234  129087575.068 6 100587736.19342
     -3455.262       -2692.398
 08  5  1 12 43 30.0000000  0 10G 4G10G13G16G23G24G25G29G30G31
  23878785.991    23878785.2344   23878787.7824  125483851.058 5  97779653.95342
     -3797.814       -2959.340
  22522861.188    22522860.2594   22522862.6954  118358443.026 7  92227369.62243
      2898.641        2258.666
  21396524.480    21396524.3664   21396525.0224  112439490.542 7  87615205.89945
       209.374         163.139
  23224181.479    23224180.7124   23224181.8474  122043885.424 6  95099155.53943
      2338.799        1822.431
  22387207.084    22387206.7324   22387205.4614  117645564.656 7  91671884.27644
     -2418.612       -1884.629
  23347111.329    23347109.5204   23347112.5334  122689918.771 6  95602528.40342
      3016.511        2350.527
  23632132.075    23632131.3204   23632133.2404  124187707.791 6  96769645.64142
      2539.365        1978.695
  21771698.077    21771698.3064   21771699.3604  114411025.835 7  89151479.05145
       474.464         369.689
  24452167.341    24452166.4574   24452171.2164  128496993.052 5 100127553.57541
     -3928.639       -3061.210
  24584305.544    24584305.5254   24584305.7384  129191394.910 6 100668634.74742
     -3466.385       -2701.143
 08  5  1 12 44  0.0000000  0 10G 4G10G13G16G23G24G25G29G30G31
  23900494.891    23900495.3654   23900497.2324  125597931.528 5  97868547.72742
     -3807.734       -2967.082
  22506358.347    22506357.4424   22506360.0264  118271720.309 6  92159793.49843
      2882.401        2246.035
  21395399.056    21395399.0674   21395399.5744  112433577.256 8  87610598.13445
       184.291         143.618
  23210878.677    23210878.8014   23210879.5514  121973982.945 6  95044686.06142
      2320.981        1808.546
  22401069.921    22401069.8554   22401069.0914  117718414.845 7  91728650.61944
     -2438.487       -1900.114
  23329925.845    23329924.8924   23329928.3374  122599609.185 6  95532157.26742
      3003.489        2340.364
  23617675.230    23617675.4454   23617676.6514  124111740.977 6  96710450.72142
      2524.678        1967.295
  21769052.950    21769052.9044   21769053.9974  114397125.698 7  89140647.78745
       451.716         351.983
  24474621.114    24474620.9324   24474623.6424  128614992.654 5 100219501.30141
     -3938.782       -3069.143
  24604125.607    24604125.6844   24604125.6934  129295546.715 6 100749791.94342
     -3477.253       -2709.594
 08  5  1 12 44 30.0000000  0 10G 4G10G13G16G23G24G25G29G30G31
  23922257.944    23922256.5984   23922258.7684  125712291.840 5  97957659.57742
     -3817.021       -2974.279
  22489945.529    22489944.7044   22489947.9354  118185473.154 7  92092587.95843
      2866.516        2233.629
  21394415.109    21394415.2374   21394415.7844  112428407.460 8  87606569.70045
       159.455         124.262
  23197677.055    23197676.4844   23197678.6134  121904606.493 6  94990626.52143
      2303.280        1794.781
  22415044.229    22415043.8684   22415043.1134  117791850.006 7  91785872.79744
     -2458.055       -1915.369
  23312811.676    23312810.8484   23312812.7604  122509673.766 6  95462077.74642
      2991.341        2330.902
  23603304.335    23603303.7644   23603306.2434  124036220.482 6  96651603.59142
      2509.638        1955.536
  21766535.582    21766535.5494   21766536.7324  114383896.415 8  89130339.25445
       429.306         334.520
  24497129.326    24497130.7304   24497132.6454  128733273.301 5 100311667.97941
     -3947.787       -3076.217
  24624005.233    24624005.9394   24624006.6374  129400020.314 6 100831199.92842
     -3488.242       -2718.110
 08  5  1 12 45  0.0000000  0 10G 4G10G13G16G23G24G25G29G30G31
  23944072.333    23944071.7484   23944072.6424  125826926.477 6  98046985.17242
     -3825.441       -2980.851
  22473624.786    22473623.9764   22473625.7674  118099701.826 7  92025753.17343
      2851.446        2221.908
  21393572.613    21393572.5164   21393572.9614  112423978.753 8  87603118.74845
       135.678         105.738
  23184574.952    23184574.9134   23184576.1144  121835755.786 6  94936976.64543
      2286.792        1781.932
  22429128.726    22429128.3904   22429127.3674  117865864.793 7  91843546.62044
     -2476.284       -1929.543
  23295768.234    23295767.4304   23295770.4964  122420112.134 6  95392289.48042
      2979.397        2321.578
  23589018.991    23589018.5844   23589020.1364  123961146.245 6  96593104.21742
      2495.431        1944.538
  21764145.043    21764145.4444   21764146.4804  114371336.108 8  89120551.99745
       407.992         317.935
  24519691.116    24519692.6394   24519691.2394  128851829.549 5 100404049.41141
     -3956.219       -3082.766
  24643946.326    24643947.2564   24643947.2964  129504810.270 6 100912854.40042
     -3497.675       -2725.423
 08  5  1 12 45 30.0000000  0 10G 4G10G13G16G23G24G25G29G30G31
  23965932.984    23965934.3414   23965936.3354  125941821.077 5  98136513.45942
     -3834.689       -2988.084
  22457391.083    22457390.5554   22457392.8544  118014396.459 7  91959281.48844
      2834.965        2209.044
  21392868.609    21392868.6074   21392869.1974  112420279.153 8  87600235.92745
       110.544          86.134
  23171571.670    23171572.1124   23171572.5264  121767421.032 6  94883728.81243
      2268.599        1767.760
  22443320.818    22443320.6804   22443319.8474  117940444.775 7  91901660.83844
     -2495.992       -1944.940
  23278794.292    23278793.3744   23278796.2624  122330914.364 6  95322784.75643
      2966.532        2311.573
  23574815.075    23574815.2314   23574816.4224  123886508.174 6  96534944.72142
      2480.206        1932.629
  21761880.430    21761880.7624   21761881.5814  114359433.514 8  89111277.25046
       385.178         300.131
  24542301.687    24542300.3094   24542302.5994  128970646.294 4 100496633.90641
     -3965.441       -3089.956
  24663945.076    24663945.2904   24663946.5084  129609902.394 6 100994744.35042
     -3508.679       -2734.012
 08  5  1 12 46  0.0000000  0 10G 4G10G13G16G23G24G25G29G30G31
  23987851.443    23987851.7004   23987853.7784  126056994.765 6  98226259.13442
     -3843.521       -2994.926
  22441251.685    22441250.7474   22441253.0694  117929580.854 7  91893191.38344
      2818.897        2196.527
  21392307.643    21392307.5594   21392308.0094  112417330.899 8  87597938.58845
        85.708          66.779
  23158670.498    23158670.5674   23158671.6064  121699626.170 6  94830901.65843
      2250.862        1753.899
  22457624.261    22457624.3044   22457623.2204  118015609.849 7  91960230.97844
     -2515.219       -1959.911
  23261894.657    23261893.6864   23261896.5414  122242104.422 6  95253582.20243
      2953.935        2301.736
  23560699.946    23560700.6514   23560701.1224  123812330.488 6  96477143.91543
      2465.014        1920.817
  21759744.871    21759745.0144   21759745.9024  114348210.972 8  89102532.40945
       362.716         282.620
  24564961.842    24564963.2854   24564967.7734  129089741.995 4 100589435.72641
     -3974.484       -3097.083
  24684004.241    24684004.8344   24684004.3884  129715315.290 6 101076884.20442
     -3519.090       -2742.102
 08  5  1 12 46 30.0000000  0 10G 4G10G13G16G23G24G25G29G30G31
  24009818.969    24009816.9574   24009820.9494  126172428.085 6  98316207.15542
     -3852.014       -3001.610
  22425202.310    22425201.2954   22425203.5214  117845240.878 7  91827471.92944
      2803.173        2184.283
  21391886.065    21391886.4154   21391887.0414  112415116.973 8  87596213.44945
        61.452          47.877
  23145869.213    23145870.1734   23145870.6684  121632356.616 6  94778483.82843
      2233.423        1740.344
  22472035.767    22472034.9594   22472034.7674  118091340.084 7  92019241.49744
     -2533.832       -1974.401
  23245065.164    23245064.7774   23245067.0964  122153667.526 6  95184670.35642
      2941.425        2292.023
  23546668.977    23546668.8954   23546670.3504  123738598.387 6  96419690.30143
      2449.984        1909.093
  21757735.485    21757735.5464   21757736.6134  114337651.649 8  89094304.35745
       340.832         265.571
  24587676.457    24587678.3814   24587679.1194  129209096.665 4 100682439.28141
     -3983.101       -3103.764
  24704120.916    24704121.2294   24704122.4264  129821029.079 5 101159258.55042
     -3528.941       -2749.831
 08  5  1 12 47  0.0000000  0  9G 4G10G13G16G23G24G25G29G31
  24031831.246    24031832.4774   24031833.9624  126288115.842 5  98406353.42742
     -3861.141       -3008.701
  22409242.761    22409242.0084   22409244.8114  117761376.606 7  91762123.14244
      2787.002        2171.669
  21391604.125    21391604.2634   21391605.0014  112413634.972 8  87595058.65345
        36.542          28.467
  23133168.694    23133168.1294   23133170.1954  121565611.972 6  94726475.05743
      2215.075        1725.998
  22486553.380    22486553.0754   22486552.1554  118167630.808 7  92078688.77044
     -2553.131       -1989.476
  23228307.091    23228307.1534   23228309.3034  122065603.604 6  95116049.12142
      2928.261        2281.728
  23532722.886    23532723.0954   23532724.7144  123665311.432 6  96362583.59343
      2435.043        1897.409
  21755851.890    21755852.0504   21755852.8654  114327753.664 8  89086591.64245
       318.293         247.997
  24724294.224    24724293.9114   24724296.0854  129927038.714 6 101241863.45442
     -3539.003       -2757.660
 08  5  1 12 47 30.0000000  0  9G 4G10G13G16G23G24G25G29G31
  24053892.860    24053893.4804   24053895.4494  126404048.414 5  98496690.64442
     -3868.872       -3014.685
  22393373.980    22393372.9314   22393375.5334  117677982.438 7  91697140.70644
      2771.684        2159.727
  21391460.082    21391460.0044   21391460.5444  112412877.432 8  87594468.37145
        12.859          10.028
  23120567.393    23120566.2794   23120566.7194  121499387.067 6  94674871.27143
      2198.468        1713.071
  22501176.062    22501175.1674   22501174.3154  118244472.102 7  92138565.05944
     -2570.853       -2003.257
  23211618.882    23211618.7264   23211621.2244  121977907.297 6  95047714.34743
      2916.814        2272.854
  23518860.982    23518860.5644   23518862.3184  123592464.566 6  96305819.82743
      2420.394        1886.048
  21754092.752    21754093.0734   21754094.0414  114318509.968 8  89079388.76245
       296.894         231.335
  24744522.232    24744521.0484   24744522.7934  130033333.644 6 101324690.61942
     -3548.478       -2765.023
 08  5  1 12 48  0.0000000  0  9G 4G10G13G16G23G24G25G29G31
  24076001.715    24076002.6414   24076004.6084  126520233.109 5  98587224.02642
     -3876.868       -3020.958
  22377596.866    22377595.4164   22377598.1544  117595071.641 7  91632534.91444
      2755.351        2147.008
  21391455.461    21391456.1074   21391456.4154  112412855.137 8  87594450.97245
       -11.587          -9.035
  23108065.208    23108064.7254   23108067.0304  121433694.577 6  94623682.35143
      2180.732        1699.288
  22515904.324    22515903.7954   22515902.8334  118321872.234 7  92198876.83344
     -2589.112       -2017.487
  23195003.102    23195002.7574   23195006.0694  121890591.441 6  94979676.03343
      2904.302        2263.087
  23505084.919    23505083.7854   23505086.4484  123520070.654 6  96249409.00243
      2405.467        1874.385
  21752460.721    21752460.9874   21752461.6914  114309931.816 8  89072704.48845
       274.818         214.144
  24764804.467    24764804.9934   24764805.5294  130139922.076 6 101407746.53342
     -3557.921       -2772.395
 08  5  1 12 48 30.0000000  0  9G 4G10G13G16G23G24G25G29G31
  24098159.680    24098156.1724   24098158.4104  126636648.570 5  98677937.40342
     -3885.032       -3027.318
  22361907.549    22361906.8984   22361909.5904  117512627.324 7  91568292.60644
      2739.642        2134.769
  21391587.878    21391587.8634   21391588.3154  112413548.595 8  87594991.31545
       -35.633         -27.747
  23095662.508    23095662.4994   23095663.6094  121368517.464 6  94572895.04043
      2163.306        1685.669
  22530735.094    22530734.7654   22530734.6754  118399808.971 7  92259606.71444
     -2607.486       -2031.818
  23178456.701    23178456.3294   23178458.9094  121803638.416 6  94911920.46343
      2891.722        2253.281
  23491391.633    23491390.8404   23491392.6004  123448112.333 6  96193337.63443
      2390.656        1862.849
  21750951.210    21750951.4094   21750952.3334  114301999.998 7  89066523.85246
       252.953         197.095
  24785138.993    24785139.1844   24785139.2334  130246781.457 6 101491013.52342
     -3567.028       -2779.471
 08  5  1 12 49  0.0000000  0  9G 4G10G13G16G23G24G25G29G31
  24120353.967    24120353.0444   24120354.9494  126753291.342 6  98768827.71642
     -3891.832       -3032.548
  22346308.365    22346307.1964   22346309.6424  117430651.157 7  91504415.08744
      2724.444        2122.942
  21391856.068    21391855.9524   21391856.5114  112414957.647 8  87596089.27045
       -59.216         -46.167
  23083358.604    23083357.9354   23083359.3994  121303857.518 6  94522510.70543
      2146.401        1672.499
  22545667.726    22545667.5644   22545667.0354  118478280.001 7  92320752.92344
     -2624.835       -2045.333
  23161979.330    23161978.6764   23161982.6054  121717050.406 6  94844449.32343
      2879.842        2244.024
  23477781.888    23477781.6044   23477782.7554  123376591.468 6  96137607.09943
      2376.312        1851.688
  21749564.883    21749565.0804   21749566.0574  114294714.684 8  89060846.98445
       231.877         180.670
  24805524.518    24805524.4624   24805526.9864  130353909.207 6 101574489.67742
     -3575.371       -2786.098
 08  5  1 12 49 30.0000000  0  9G 4G10G13G16G23G24G25G29G31
  24142597.078    24142595.3014   24142595.9174  126870175.500 6  98859906.41242
     -3899.396       -3038.466
  22330801.403    22330800.2894   22330802.5294  117349161.908 7  91440917.00044
      2708.713        2110.669
  21392262.782    21392263.2494   21392263.7164  112417097.809 8  87597756.92645
       -83.036         -64.702
  23071155.545    23071155.9414   23071156.3364  121239732.328 6  94472543.06943
      2129.086        1659.014
  22560704.417    22560704.0714   22560703.3834  118557297.991 7  92382325.36444
     -2642.525       -2059.114
  23145575.700    23145575.0894   23145577.3454  121630845.143 6  94777276.39843
      2867.666        2234.540
  23464258.239    23464258.0754   23464260.0524  123305526.007 6  96082231.39343
      2361.755        1840.276
  21748304.747    21748304.7604   21748305.5934  114288091.987 7  89055686.43745
       210.209         163.781
  24825964.076    24825963.8354   24825963.3144  130461317.847 6 101658184.70242
     -3584.725       -2793.309
 08  5  1 12 50  0.0000000  0  9G 4G10G13G16G23G24G25G29G31
  24164883.713    24164879.3904   24164880.7604  126987281.693 6  98951157.92742
     -3907.784       -3045.162
  22315384.558    22315383.5744   22315386.2454  117268145.517 7  91377787.35244
      2692.232        2097.845
  21392806.270    21392806.4274   21392807.0614  112419952.943 8  87599981.70845
      -107.547         -83.819
  23059052.221    23059051.8054   23059052.1224  121176128.141 6  94422981.40443
      2110.987        1644.950
  22575841.736    22575841.4024   22575840.8714  118636844.373 7  92444309.53744
     -2660.646       -2073.246
  23129240.658    23129240.2324   23129243.9484  121545008.805 6  94710390.94443
      2854.721        2224.444
  23450819.731    23450818.8644   23450820.3604  123234901.813 6  96027199.57543
      2346.351        1828.343
  21747167.330    21747167.4104   21747168.3284  114282115.883 8  89051029.72946
       187.942         146.445
  24846453.094    24846453.5574   24846453.4444  130568988.439 6 101742083.82942
     -3593.780       -2800.371
 08  5  1 12 50 30.0000000  0  9G 4G10G13G16G23G24G25G29G31
  24187209.221    24187206.2774   24187209.2624  127104610.228 6  99042582.70542
     -3914.871       -3050.542
  22300058.584    22300057.5014   22300059.9804  117187607.367 7  91315030.36544
      2676.317        2085.444
  21393486.475    21393486.6854   21393487.2254  112423526.166 8  87602766.04545
      -131.405        -102.389
  23047048.904    23047048.6694   23047049.8504  121113050.196 6  94373829.78743
      2093.695        1631.422
  22591079.440    22591079.3084   22591078.8144  118716919.698 7  92506705.86844
     -2678.258       -2086.932
  23112977.619    23112978.0074   23112980.5484  121459546.336 6  94643796.82443
      2842.151        2214.638
  23437464.419    23437464.3364   23437465.7134  123164724.244 6  95972515.78543
      2331.685        1816.946
  21746153.860    21746153.8124   21746155.0054  114276789.643 8  89046879.40345
       166.548         129.776
  24866992.541    24866993.0174   24866992.6064  130676921.224 6 101826187.28242
     -3602.218       -2806.883
 08  5  1 12 51  0.0000000  0  8G 4G10G13G16G23G24G25G29
  24209571.331    24209572.9314   24209574.5234  127222141.303 5  99134165.08542
     -3920.633       -3055.025
  22284820.523    22284819.9584   22284822.4774  117107532.052 7  91252634.02644
      2661.834        2074.139
  21394299.570    21394299.6554   21394300.2864  112427799.632 8  87606096.03045
      -153.755        -119.824
  23035143.024    23035142.2974   23035142.8984  121050483.473 6  94325076.53143
      2077.508        1618.798
  22606414.300    22606414.3184   22606413.0134  118797504.575 7  92569499.24944
     -2694.261       -2099.437
  23096783.586    23096783.3664   23096785.6594  121374442.879 6  94577482.47443
      2830.948        2205.899
  23424192.554    23424192.1764   23424193.7164  123094978.092 6  95918168.16243
      2318.051        1806.251
  21745260.795    21745260.9424   21745261.7484  114272096.625 8  89043222.50645
       146.315         113.996
 08  5  1 12 51 30.0000000  0  9G 4G 7G10G13G16G23G24G25G29
  24231975.045    24231975.1034   24231977.2424  127339870.551 6  99225902.08842
     -3928.447       -3061.135
  24742517.920    24742519.7024   24742520.7604  130022821.487 5 101316501.70941
      3446.095        2685.235
  22269671.000    22269669.9084   22269672.5014  117027919.649 7  91190598.40744
      2645.362        2061.306
  21395245.695    21395245.6014   21395246.2864  112432771.188 8  87609969.96845
      -177.868        -138.610
  23023334.086    23023333.6354   23023334.9964  120988427.556 6  94276721.31643
      2059.556        1604.858
  22621845.164    22621844.8804   22621844.1244  118878593.712 7  92632685.55744
     -2711.990       -2113.229
  23080657.155    23080656.7244   23080659.1994  121289698.115 6  94511447.59143
      2818.008        2195.860
  23411001.838    23411001.8864   23411003.6694  123025663.112 6  95864156.46743
      2302.637        1794.283
  21744487.648    21744487.9834   21744488.9244  114268034.441 8  89040057.15745
       124.304          96.858
 08  5  1 12 52  0.0000000  0  9G 4G 7G10G13G16G23G24G25G29
  24254422.282    24254419.2024   24254420.8704  127457817.863 5  99317809.17342
     -3935.350       -3066.524
  24722867.517    24722867.3664   24722867.1414  129919550.531 5 101236030.89241
      3438.308        2679.193
  22254614.196    22254613.1054   22254615.3294  116948794.907 7  91128942.78044
      2629.241        2048.752
  21396328.640    21396328.8874   21396329.5764  112438462.800 8  87614405.00145
      -201.831        -157.275
  23011627.668    23011626.4644   23011627.5244  120926906.688 6  94228783.02643
      2041.458        1590.743
  22637375.709    22637375.7164   22637374.9924  118960206.651 7  92696280.02244
     -2729.296       -2126.714
  23064603.855    23064603.6234   23064605.3564  121205336.460 6  94445711.24943
      2805.557        2186.156
  23397897.623    23397898.1674   23397899.7964  122956803.647 6  95810499.79143
      2287.525        1782.477
  21743839.212    21743839.2934   21743840.3354  114264625.538 8  89037400.87145
       102.547          79.892
 08  5  1 12 52 30.0000000  0 10G 2G 4G 7G10G13G16G23G24G25G29
  21674606.795    21674606.5854   21674604.8614  113900831.407 7  88753907.25745
     -2335.924       -1820.213
  24276898.858    24276899.6544   24276901.7874  127575954.259 5  99409863.55942
     -3942.070       -3071.792
  24703257.093    24703257.7384   24703258.8184  129816497.285 5 101155729.69041
      3431.074        2673.622
  22239645.209    22239644.5334   22239646.7734  116870134.572 7  91067649.01944
      2613.527        2036.494
  21397543.708    21397544.0004   21397544.6464  112444848.464 8  87619380.82345
      -224.857        -175.219
  23000017.001    23000016.9974   23000017.3294  120865897.296 6  94181243.29943
      2024.630        1577.594
  22652999.802    22652999.3294   22652999.6374  119042315.259 7  92760260.74044
     -2745.565       -2139.390
  23048618.668    23048618.2964   23048620.7214  121121334.328 6  94380255.04643
      2793.521        2176.794
  23384876.826    23384877.0214   23384878.3844  122888376.094 6  95757179.62743
      2273.028        1771.148
  21743310.060    21743310.1174   21743311.0034  114261844.731 8  89035233.99545
        81.739          63.678
 08  5  1 12 53  0.0000000  0 10G 2G 4G 7G10G13G16G23G24G25G29
  21687991.834    21687991.4634   21687990.8524  113971169.196 7  88808715.91345
     -2354.185       -1834.432
  24299418.163    24299416.9434   24299419.9034  127694279.322 5  99502064.88742
     -3947.679       -3076.119
  24683689.160    24683688.4914   24683690.2734  129713666.525 5 101075601.88441
      3423.463        2667.565
  22224765.982    22224764.8024   22224767.1724  116791942.268 7  91006719.96544
      2598.164        2024.527
  21398891.406    21398891.5564   21398892.1224  112451930.154 8  87624899.01145
      -248.094        -193.333
  22988505.415    22988504.9984   22988505.9544  120805403.230 6  94134105.11343
      2007.491        1564.244
  22668719.363    22668719.4574   22668718.2464  119124918.715 7  92824627.04043
     -2762.183       -2152.343
  23032702.771    23032702.5304   23032704.8294  121037695.590 6  94315082.02343
      2781.436        2167.318
  23371939.245    23371938.6624   23371940.2844  122820384.454 6  95704199.13743
      2258.918        1760.228
  21742900.749    21742900.7294   21742901.6504  114259694.011 8  89033558.09845
        60.816          47.390
 08  5  1 12 53 30.0000000  0 10G 2G 4G 7G10G13G16G23G24G25G29
  21701481.280    21701481.0564   21701480.5244  114042057.927 7  88863953.90345
     -2372.573       -1848.772
  24321966.179    24321968.9614   24321972.4524  127812794.040 6  99594414.07042
     -3953.701       -3080.754
  24664164.466    24664163.2054   24664164.4754  129611064.527 5 100995652.34441
      3415.633        2661.528
  22209976.757    22209975.7394   22209978.2424  116714224.223 7  90946160.46444
      2582.278        2012.176
  21400372.381    21400372.1954   21400372.8774  112459710.836 8  87630961.88245
      -271.396        -211.484
  22977092.609    22977092.2674   22977094.0164  120745430.138 6  94087372.86943
      1990.005        1550.619
  22684532.743    22684532.2844   22684531.7314  119208018.118 7  92889379.79643
     -2778.607       -2165.144
  23016857.217    23016856.4504   23016859.0304  120954426.212 6  94250196.79243
      2768.885        2157.544
  23359084.419    23359084.3434   23359085.4884  122752834.344 6  95651562.69543
      2243.918        1748.492
  21742612.154    21742611.9894   21742613.1104  114258177.106 8  89032376.08645
        39.558          30.825
 08  5  1 12 54  0.0000000  0 10G 2G 4G 7G10G13G16G23G24G25G29
  21715075.942    21715075.3914   21715074.6384  114113496.224 8  88919620.11445
     -2391.063       -1863.170
  24344558.538    24344557.3964   24344560.5894  127931496.711 5  99686909.57942
     -3960.569       -3086.174
  24644682.489    24644683.6694   24644685.1194  129508695.002 5 100915883.88941
      3407.514        2655.219
  22195278.008    22195277.0384   22195279.4844  116636983.607 7  90885972.99044
      2566.004        1999.493
  21401985.995    21401986.1644   21401986.3724  112468191.130 8  87637569.88945
      -294.977        -229.844
  22965780.841    22965779.7344   22965780.9274  120685981.059 6  94041048.92243
      1972.050        1536.654
  22700439.714    22700439.8974   22700438.8894  119291611.969 7  92954517.83043
     -2795.241       -2178.113
  23001081.895    23001081.7014   23001083.6304  120871529.048 6  94185601.62543
      2756.346        2147.788
  23346314.264    23346314.4604   23346315.7524  122685728.812 6  95599272.70443
      2228.693        1736.623
  21742444.106    21742444.2674   21742445.0794  114257294.959 8  89031688.69945
        18.133          14.150
 08  5  1 12 54 30.0000000  0 10G 2G 4G 7G10G13G16G23G24G25G29
  21728776.261    21728775.8094   21728774.7974  114185492.664 7  88975721.22345
     -2409.459       -1877.493
  24367181.692    24367184.3284   24367186.6904  128050395.433 5  99779557.87741
     -3967.055       -3091.234
  24625248.576    24625248.4084   24625251.6234  129406570.810 5 100836306.58841
      3399.583        2649.003
  22180673.384    22180672.5854   22180674.5864  116560233.429 7  90826167.65944
      2549.737        1986.810
  21403734.941    21403734.8934   21403735.3794  112477381.280 8  87644731.03545
      -318.433        -248.123
  22954570.146    22954568.9044   22954569.7324  120627068.550 6  93995143.08843
      1954.561        1523.014
  22716443.097    22716442.8814   22716441.8934  119375707.995 6  93020047.17543
     -2811.964       -2191.131
  22985380.704    22985381.1144   22985382.0754  120789017.036 6  94121306.54143
      2743.630        2137.921
  23333632.013    23333631.8814   23333634.0074  122619080.423 6  95547338.90843
      2213.583        1724.871
  21742399.246    21742399.2604   21742400.1514  114257058.269 7  89031504.25845
        -3.280          -2.552
 08  5  1 12 55  0.0000000  0 10G 2G 4G 7G10G13G16G23G24G25G29
  21742580.455    21742579.9844   21742579.2084  114258033.194 7  89032246.28845
     -2427.201       -1891.346
  24389844.348    24389842.3204   24389845.6844  128169475.685 5  99872347.63241
     -3972.377       -3095.336
  24605862.111    24605860.0674   24605863.5394  129304682.798 5 100756913.37041
      3392.052        2643.132
  22166159.350    22166158.5154   22166160.6304  116483963.674 7  90766736.71744
      2534.268        1974.747
  21405616.290    21405616.4724   21405616.7364  112487269.174 8  87652435.87745
      -341.315        -265.977
  22943458.672    22943458.3754   22943460.2894  120568682.401 6  93949647.44243
      1937.286        1509.551
  22732538.911    22732538.6134   22732537.7174  119460291.521 6  93085956.37643
     -2827.544       -2203.284
  22969750.425    22969750.2724   22969751.6704  120706880.043 6  94057303.70843
      2731.658        2128.550
  23321033.845    23321033.9154   23321035.4624  122552879.028 6  95495753.43543
      2199.301        1713.722
  21742474.591    21742474.8064   21742475.5994  114257455.193 8  89031813.54845
       -23.918         -18.637
 08  5  1 12 55 30.0000000  0 10G 2G 4G 7G10G13G16G23G24G25G29
  21756489.005    21756488.5204   21756487.9214  114331123.771 7  89089199.96845
     -2445.211       -1905.358
  24412543.270    24412539.7244   24412542.6964  128288743.195 5  99965283.33441
     -3978.255       -3099.960
  24586519.708    24586518.6134   24586522.2854  129203042.076 5 100677712.83941
      3384.140        2636.950
  22151739.395    22151738.6604   22151740.5534  116408185.128 7  90707688.54044
      2517.988        1962.078
  21407632.483    21407632.3314   21407632.8694  112497862.795 8  87660690.63645
      -364.543        -284.052
  22932450.179    22932450.3384   22932450.7684  120510833.259 6  93904570.22443
      1919.709        1495.876
  22748727.864    22748727.8534   22748728.1534  119545368.331 7  93152249.96043
     -2843.667       -2215.833
  22954193.716    22954192.1344   22954195.9684  120625128.741 6  93993601.40843
      2718.814        2118.534
  23308523.494    23308523.3494   23308524.5954  122487135.415 6  95444524.66043
      2184.054        1701.834
  21742672.038    21742672.7524   21742673.4554  114258494.188 8  89032623.15445
       -45.088         -35.141
 08  5  1 12 56  0.0000000  0 11G 2G 4G 7G10G13G16G23G24G25G27G29
  21770499.258    21770499.2134   21770498.3904  114404749.756 7  89146570.85245
     -2463.245       -1919.408
  24435267.931    24435267.2434   24435270.0844  128408183.215 5 100058353.45941
     -3984.391       -3104.771
  24567223.388    24567223.6374   24567225.5904  129101638.614 5 100598697.22941
      3375.831        2630.547
  22137410.441    22137409.7944   22137411.6534  116332887.387 7  90649014.98944
      2501.898        1949.516
  21409780.006    21409779.8374   21409780.7444  112509149.045 8  87669485.11445
      -387.818        -302.201
  22921541.774    22921541.7584   22921543.1374  120453510.388 6  93859903.05943
      1901.787        1481.924
  22765008.543    22765008.7274   22765008.2804  119630923.140 7  93218915.99643
     -2859.751       -2228.388
  22938708.551    22938708.3504   22938710.6244  120543752.599 6  93930191.43143
      2706.126        2108.648
  23296097.980    23296097.9614   23296099.3864  122421838.881 6  95393644.25343
      2169.214        1690.260
  24993410.944    24993412.7024   24993416.8304  131341283.648 5 102343879.23241
      3057.999        2382.759
  21742989.510    21742989.9794   21742990.8824  114260162.775 8  89033923.34245
       -66.191         -51.568
 08  5  1 12 56 30.0000000  0 11G 2G 4G 7G10G13G16G23G24G25G27G29
  21784610.788    21784610.5674   21784610.0594  114478905.925 7  89204354.86445
     -2481.284       -1933.453
  24458028.448    24458029.0894   24458030.7164  128527789.930 6 100151553.49941
     -3989.838       -3108.941
  24547970.436    24547971.6194   24547972.9404  129000472.099 5 100519866.12442
      3367.667        2624.220
  22123173.273    22123172.6234   22123174.3164  116258069.750 7  90590715.55844
      2485.387        1936.674
  21412058.950    21412059.0274   21412059.5034  112521124.559 8  87678816.64645
      -411.303        -320.498
  22910733.760    22910733.6144   22910734.5374  120396712.980 6  93815645.36243
      1884.010        1468.044
  22781379.311    22781379.0184   22781378.5254  119716950.364 6  93285950.18643
     -2875.924       -2240.994
  22923294.139    22923293.9434   22923295.9724  120462750.627 6  93867073.02243
      2693.369        2098.720
  23283757.428    23283757.7584   23283758.2244  122356988.505 6  95343111.50043
      2153.635        1678.154
  24975971.675    24975973.5594   24975976.1194  131249636.382 4 102272465.87141
      3051.226        2377.521
  21743426.641    21743426.9834   21743427.6634  114262457.997 8  89035711.81945
       -87.526         -68.199
 08  5  1 12 57  0.0000000  0 11G 2G 4G 7G10G13G16G23G24G25G27G29
  21798823.611    21798823.1874   21798822.3044  114553593.492 7  89262552.95345
     -2498.576       -1946.958
  24480819.902    24480820.7844   24480823.3264  128647564.339 5 100244884.14441
     -3995.516       -3113.353
  24528766.161    24528766.9354   24528768.5274  128899548.933 5 100441224.74942
      3359.835        2618.071
  22109028.924    22109027.6034   22109029.3754  116183737.584 7  90532794.43144
      2469.464        1924.248
  21414469.517    21414469.6094   21414470.1584  112533792.482 8  87688687.74645
      -433.931        -338.137
  22900027.221    22900026.3704   22900027.7624  120340446.249 6  93771801.18543
      1866.593        1454.473
  22797839.703    22797839.1854   22797839.1244  119803450.904 6  93353353.16843
     -2891.559       -2253.166
  22907952.177    22907951.9634   22907955.0334  120382128.656 6  93804250.74743
      2680.885        2088.958
  23271503.007    23271502.7284   23271504.2694  122292589.709 6  95292930.57743
      2138.870        1666.600
  24958569.386    24958566.9724   24958571.8464  131158175.977 5 102201197.94641
      3045.408        2373.042
  21743983.191    21743983.5114   21743984.5194  114265383.474 8  89037991.40045
      -108.190         -84.322
 08  5  1 12 57 30.0000000  0 11G 2G 4G 7G10G13G16G23G24G25G27G29
  21813137.254    21813136.9404   21813136.6614  114628813.391 7  89321165.83645
     -2516.405       -1960.832
  24503646.018    24503645.2574   24503648.7344  128767506.950 5 100338345.82741
     -4001.053       -3117.655
  24509610.625    24509609.6734   24509610.1394  128798874.855 6 100362777.40241
      3351.211        2611.324
  22094976.874    22094975.8074   22094977.9934  116109896.390 7  90475255.84644
      2452.795        1911.272
  21417012.568    21417012.3694   21417012.8344  112547155.299 8  87699100.32845
      -457.302        -356.322
  22889421.412    22889421.4654   22889422.0074  120284715.352 6  93728374.53043
      1848.554        1440.453
  22814390.059    22814389.8624   22814389.3514  119890425.272 6  93421125.38243
     -2907.307       -2265.430
  22892683.309    22892683.2434   22892685.8734  120301891.715 6  93741728.46843
      2667.609        2078.695
  23259334.781    23259334.6714   23259336.9204  122228647.618 6  95243105.54043
      2123.541        1654.723
  24941200.802    24941200.9644   24941202.2364  131066908.025 5 102130080.02441
      3039.005        2368.113
  21744660.702    21744660.9654   21744661.7354  114268942.331 7  89040764.51745
      -129.535        -100.930
 08  5  1 12 58  0.0000000  0 11G 2G 4G 7G10G13G16G23G24G25G27G29
  21827555.233    21827555.1394   21827554.2444  114704580.496 7  89380205.13245
     -2534.571       -1974.991
  24526502.842    24526504.3494   24526507.5914  128887632.947 5 100431950.45941
     -4007.165       -3122.540
  24490504.330    24490503.1004   24490504.1084  128698469.726 5 100284539.73942
      3342.554        2604.580
  22081022.571    22081021.7994   22081023.1294  116036565.726 7  90418115.08044
      2435.951        1898.148
  21419690.715    21419690.7014   21419691.2374  112561229.815 8  87710067.49045
      -480.903        -374.732
  22878921.352    22878921.6104   22878923.0254  120229539.391 6  93685380.29743
      1830.085        1426.000
  22831034.105    22831034.2034   22831033.1074  119977887.796 6  93489277.99343
     -2923.460       -2278.031
  22877492.090    22877492.2164   22877494.3674  120222059.124 6  93679521.26543
      2654.356        2068.349
  23247257.997    23247257.1544   23247259.2104  122165181.645 6  95193651.56243
      2107.761        1642.409
  24923876.462    24923871.9294   24923876.7684  130975852.140 5 102059127.46141
      3031.844        2362.461
  21745461.724    21745461.7994   21745462.8394  114273151.583 7  89044044.45145
      -151.010        -117.667
 08  5  1 12 58 30.0000000  0 11G 2G 4G 7G10G13G16G23G24G25G27G29
  21842074.558    21842074.8334   21842074.1874  114780881.647 7  89439660.54945
     -2552.125       -1988.662
  24549394.215    24549395.6144   24549399.4894  129007928.448 5 100525687.14441
     -4012.753       -3126.760
  24471444.727    24471444.1814   24471448.1634  128598325.132 5 100206504.98642
      3334.011        2597.937
  22067163.696    22067162.2664   22067164.7704  115963736.969 7  90361365.42544
      2419.422        1885.254
  21422502.077    21422502.2374   21422502.8664  112576004.708 8  87721580.40145
      -504.040        -392.750
  22868526.641    22868525.9694   22868526.6204  120174909.253 6  93642811.38243
      1811.813        1411.808
  22847767.860    22847767.6444   22847766.9364  120065825.040 6  93557800.48743
     -2939.191       -2290.249
  22862375.109    22862375.3674   22862378.0194  120142622.234 6  93617622.40443
      2641.540        2058.333
  23235268.601    23235269.2034   23235270.5834  122102182.759 6  95144561.53543
      2092.394        1630.450
  24906587.971    24906584.2524   24906585.9254  130884999.620 5 101988333.34341
      3025.042        2357.116
  21746384.424    21746384.4204   21746385.7254  114278000.396 8  89047822.74845
      -172.071        -134.064
 08  5  1 12 59  0.0000000  0 11G 2G 4G 7G10G13G16G23G24G25G27G29
  21856694.384    21856694.0714   21856693.1594  114857706.667 7  89499524.18745
     -2570.452       -2002.959
  24572323.883    24572320.0904   24572321.1514  129128382.559 6 100619547.11141
     -4018.746       -3131.490
  24452437.887    24452437.6424   24452438.8584  128498436.441 6 100128669.66742
      3324.374        2590.399
  22053399.342    22053398.2084   22053400.0634  115891404.318 7  90305002.33244
      2401.809        1871.537
  21425445.548    21425445.4684   21425446.0684  112591471.513 8  87733632.44345
      -527.967        -411.399
  22858233.159    22858232.2764   22858233.6494  120120819.509 6  93600663.56343
      1793.257        1397.335
  22864590.340    22864589.7484   22864589.2304  120154226.419 6  93626684.63843
     -2955.250       -2302.761
  22847333.415    22847332.8104   22847335.6664  120063575.011 6  93556027.17543
      2627.470        2047.371
  23223369.044    23223368.9314   23223370.6414  122039645.153 6  95095830.92443
      2075.874        1617.557
  24889332.527    24889334.9094   24889338.4354  130794344.547 4 101917693.16441
      3017.706        2351.374
  21747427.061    21747427.3774   21747428.3844  114283480.596 8  89052093.02945
      -194.054        -151.212
 08  5  1 12 59 30.0000000  0 11G 2G 4G 7G10G13G16G23G24G25G27G29
  21871415.807    21871415.4984   21871415.0234  114935069.047 7  89559806.57745
     -2587.114       -2015.923
  24595269.322    24595273.6624   24595276.8664  129249010.471 5 100713543.13441
     -4023.214       -3134.982
  24433481.426    24433481.4154   24433484.0544  128398821.423 5 100051047.70242
      3316.466        2584.260
  22039732.493    22039731.9584   22039733.9404  115819585.778 7  90249039.85944
      2385.735        1859.040
  21428523.097    21428523.2864   21428524.0144  112607645.256 8  87746235.35245
      -550.354        -428.842
  22848046.211    22848046.0584   22848047.0424  120067287.017 7  93558949.94743
      1775.726        1383.689
  22881503.170    22881503.5574   22881502.2454  120243104.580 6  93695940.32243
     -2969.953       -2314.237
  22832368.359    22832368.3424   22832371.5314  119984935.150 6  93494749.37143
      2615.066        2037.721
  23211559.566    23211559.0134   23211560.6664  121977586.190 7  95047473.28943
      2061.173        1606.122
  24872123.016    24872123.0554   24872127.4314  130703904.838 5 101847220.76641
      3011.508        2346.612
  21748593.150    21748593.1614   21748594.1594  114289607.935 8  89056867.57446
      -214.531        -167.164
 08  5  1 13  0  0.0000000  0 11G 2G 4G 7G10G13G16G23G24G25G27G29
  21886234.428    21886234.3254   21886233.7164  115012942.355 7  89620487.10445
     -2604.736       -2029.670
  24618259.432    24618254.6774   24618257.4474  129369783.433 5 100807651.92341
     -4028.835       -3139.344
  24414573.037    24414572.3314   24414574.0564  128299458.818 5  99973622.35342
      3307.682        2577.454
  22026159.233    22026158.5194   22026160.4394  115748259.118 7  90193460.67844
      2368.727        1845.760
  21431731.121    21431731.0644   21431731.5024  112624501.126 8  87759369.79745
      -573.702        -447.047
  22837960.963    22837960.7694   22837962.2494  120014289.804 6  93517653.41843
      1756.875        1368.990
  22898501.705    22898501.6244   22898500.4564  120332432.834 6  93765546.75243
     -2985.559       -2326.396
  22817477.549    22817476.6514   22817479.3634  119906680.991 6  93433772.10443
      2601.578        2027.216
  23199836.996    23199837.1244   23199838.2974  121915983.840 6  94999471.43943
      2045.130        1593.604
  24854949.308    24854950.9024   24854953.8024  130613658.280 5 101776898.85841
      3005.023        2341.569
  21749877.521    21749877.7704   21749878.7914  114296358.222 7  89062127.52845
      -235.827        -183.762
 08  5  1 13  0 30.0000000  0 11G 2G 4G 7G10G13G16G23G24G25G27G29
  21901153.790    21901153.4224   21901152.7834  115091342.809 7  89681578.38145
     -2622.473       -2043.501
  24641267.432    24641267.9994   24641271.0374  129490718.558 5 100901886.98041
     -4034.449       -3143.764
  24395718.055    24395718.1824   24395718.3824  128200370.063 5  99896410.34542
      3298.146        2569.915
  22012683.997    22012683.1674   22012685.3434  115677445.062 7  90138280.90044
      2351.646        1832.450
  21435071.716    21435071.9724   21435072.5494  112642057.665 8  87773050.21245
      -597.198        -465.371
  22827982.169    22827981.2414   22827982.6954  119961848.866 6  93476790.37543
      1738.661        1354.797
  22915589.121    22915588.6394   22915588.7894  120422227.591 6  93835516.67343
     -3001.239       -2338.625
  22802663.720    22802663.0984   22802665.9144  119828833.259 6  93373111.53943
      2587.903        2016.519
  23188205.027    23188205.3314   23188206.5034  121854859.088 6  94951841.79543
      2029.118        1581.137
  24837814.722    24837816.5844   24837822.9424  130523625.967 5 101706743.83741
      2997.493        2335.683
  21751284.374    21751284.5124   21751285.4424  114303750.269 7  89067887.56445
      -257.352        -200.551
 08  5  1 13  1  0.0000000  0 11G 2G 4G 7G10G13G16G23G24G25G27G29
  21916168.237    21916167.8284   21916167.3444  115170244.311 7  89743060.05045
     -2639.563       -2056.788
  24664307.457    24664306.0604   24664309.7214  129611789.149 5 100996227.56941
     -4038.877       -3147.243
  24376910.556    24376910.0284   24376910.4814  128101534.045 6  99819395.26742
      3289.229        2563.055
  21999301.771    21999301.2944   21999303.2104  115607122.173 7  90083483.84744
      2334.841        1819.363
  21438541.255    21438541.3944   21438542.2224  112660290.052 8  87787257.25945
      -620.082        -483.173
  22818104.153    22818104.0634   22818105.2094  119909941.588 7  93436343.16543
      1720.227        1340.424
  22932760.422    22932759.9354   22932759.8144  120512462.044 6  93905829.21343
     -3016.240       -2350.299
  22787922.069    22787922.4294   22787925.4494  119751369.986 7  93312750.53743
      2574.558        2006.158
  23176660.135    23176660.4124   23176661.2904  121794189.675 6  94904566.89443
      2013.759        1569.153
  24820722.246    24820721.2194   24820722.5994  130433786.508 5 101636739.16441
      2990.429        2330.292
  21752808.665    21752808.7354   21752809.5684  114311759.975 8  89074128.88745
      -278.306        -216.849
 08  5  1 13  1 30.0000000  0 11G 2G 4G 7G10G13G16G23G24G25G27G29
  21931283.239    21931282.7224   21931282.4524  115249674.356 7  89804953.56645
     -2656.383       -2069.919
  24687379.413    24687375.6024   24687380.3734  129733022.747 5 101090695.21041
     -4043.503       -3150.718
  24358155.251    24358156.2004   24358156.6634  128002983.064 5  99742602.37142
      3280.358        2556.082
  21986019.376    21986018.5114   21986020.5714  115537322.464 7  90029094.47444
      2318.010        1806.235
  21442144.914    21442145.1044   21442145.4964  112679227.119 8  87802013.40145
      -642.823        -500.904
  22808334.285    22808334.0844   22808334.4954  119858599.744 6  93396336.57343
      1702.206        1326.393
  22950020.067    22950019.1924   22950018.8064  120603162.927 6  93976505.16443
     -3031.039       -2361.837
  22773261.054    22773260.8044   22773263.3014  119674323.074 6  93252713.98943
      2561.479        1995.939
  23165207.732    23165207.1804   23165208.9924  121734007.296 7  94857671.55243
      1998.080        1556.927
  24803668.777    24803666.5814   24803672.3484  130344171.272 5 101566909.20541
      2983.476        2324.798
  21754455.644    21754455.9864   21754457.1614  114320416.629 8  89080874.32045
      -299.299        -233.236
 08  5  1 13  2  0.0000000  0 11G 2G 4G 7G10G13G16G23G24G25G27G29
  21946494.482    21946493.7944   21946493.3964  115329608.330 7  89867239.74745
     -2673.481       -2083.222
  24710477.881    24710474.4144   24710474.3394  129854394.752 4 101185270.69641
     -4048.312       -3154.549
  24339450.760    24339452.0864   24339453.5624  127904697.798 5  99666016.55242
      3270.736        2548.562
  21972832.700    21972831.8294   21972834.2814  115468025.629 7  89975096.94144
      2300.842        1792.874
  21445878.200    21445878.4664   21445878.7764  112698846.158 8  87817300.96945
      -666.070        -519.033
  22798668.398    22798667.4564   22798668.6024  119807802.955 7  93356754.70043
      1683.340        1311.659
  22967364.225    22967364.2334   22967363.0214  120694305.868 6  94047525.62643
     -3046.079       -2373.577
  22758674.567    22758674.4794   22758677.3574  119597672.320 6  93192986.15243
      2547.769        1985.236
  23153844.611    23153844.5924   23153845.7624  121674291.762 7  94811140.00443
      1981.989        1544.418
  24786653.535    24786653.8454   24786659.0084  130254760.467 5 101497238.46841
      2976.537        2319.417
  21756221.725    21756222.2514   21756223.3034  114329698.111 8  89088106.62645
      -320.564        -249.797
 08  5  1 13  2 30.0000000  0 11G 2G 4G 7G10G13G16G23G24G25G27G29
  21961799.073    21961799.2144   21961798.9484  115410038.364 7  89929912.47745
     -2689.320       -2095.585
  24733595.802    24733595.4074   24733597.7544  129975897.196 5 101279947.83441
     -4052.325       -3157.638
  24320800.424    24320799.8984   24320799.1714  127806675.382 6  99589635.49742
      3262.488        2542.179
  21959741.099    21959740.2734   21959742.2974  115399228.190 7  89921488.55144
      2284.748        1780.322
  21449740.228    21449740.1654   21449740.9284  112719140.998 8  87833115.11145
      -687.915        -536.041
  22789104.628    22789104.0484   22789105.3424  119757547.511 7  93317594.61143
      1665.905        1298.100
  22984790.441    22984789.8844   22984789.3794  120785882.134 6  94118883.73243
     -3059.923       -2384.372
  22744162.898    22744163.2914   22744166.3974  119521414.239 6  93133564.30243
      2535.218        1975.494
  23142569.319    23142569.0124   23142570.3734  121615039.281 7  94764969.22443
      1967.321        1532.994
  24769678.971    24769676.9014   24769680.4064  130165550.711 5 101427724.38841
      2970.044        2314.334
  21758105.829    21758106.1834   21758107.3384  114339598.607 7  89095821.28645
      -340.426        -265.275
 08  5  1 13  3  0.0000000  0 11G 2G 4G 7G10G13G16G23G24G25G27G29
  21977199.753    21977199.5104   21977198.9044  115490967.448 7  89992974.10945
     -2706.294       -2108.783
  24756742.922    24756740.6134   24756743.9184  130097532.877 5 101374728.83641
     -4057.184       -3161.443
  24302198.722    24302198.4424   24302199.8974  127708923.829 5  99513465.52342
      3253.698        2535.402
  21946745.794    21946744.9824   21946746.9964  115330938.132 7  89868275.51444
      2267.539        1766.918
  21453731.766    21453731.9564   21453732.3024  112740116.482 8  87849459.63245
      -710.933        -553.980
  22779645.690    22779645.0834   22779646.0874  119707840.622 6  93278861.97643
      1647.439        1283.698
  23002300.142    23002299.2364   23002299.0204  120877894.341 7  94190581.51443
     -3074.823       -2395.951
  22729728.507    22729727.6334   22729730.1874  119445556.409 6  93074454.31243
      2521.500        1964.809
  23131383.150    23131382.8644   23131384.9054  121556257.281 7  94719165.10643
      1951.201        1520.438
  24752742.613    24752739.7464   24752743.9264  130076549.968 5 101358373.24641
      2962.762        2308.653
  21760108.986    21760109.0784   21760110.0004  114350123.370 8  89104022.39645
      -361.633        -281.797
 08  5  1 13  3 30.0000000  0 11G 2G 4G 7G10G13G16G23G24G25G27G29
  21992695.903    21992695.3744   21992694.8604  115572398.794 7  90056427.07845
     -2723.048       -2121.846
  24779914.704    24779912.6044   24779915.2204  130219304.953 5 101469616.11341
     -4061.516       -3164.793
  24283649.066    24283649.8344   24283650.4304  127611451.495 5  99437513.14142
      3244.148        2527.887
  21933848.614    21933847.7654   21933849.7644  115263162.420 7  89815463.28244
      2250.434        1753.580
  21457853.593    21457853.7094   21457854.3534  112761777.369 8  87866338.24245
      -733.857        -571.826
  22770291.993    22770292.0004   22770293.0224  119658689.598 7  93240562.46243
      1628.822        1269.166
  23019892.643    23019892.8684   23019891.7814  120970345.714 6  94262621.52843
     -3089.408       -2407.320
  22715370.302    22715370.3754   22715372.8674  119370106.461 6  93015662.13943
      2507.764        1954.091
  23120288.478    23120288.4054   23120289.4014  121497953.203 7  94673733.28943
      1935.171        1507.914
  24735846.130    24735847.4984   24735848.2954  129987765.740 5 101289190.81941
      2955.677        2303.079
  21762231.461    21762231.6604   21762232.7374  114361277.505 8  89112713.91745
      -382.661        -298.168
 08  5  1 13  4  0.0000000  0 11G 2G 4G 7G10G13G16G23G24G25G27G29
  22008286.299    22008285.8124   22008285.6914  115654327.209 7  90120267.39945
     -2740.070       -2135.147
  24803108.624    24803110.9504   24803114.3484  130341208.118 5 101564605.67041
     -4066.074       -3168.284
  24265153.674    24265154.6154   24265156.2554  127514257.537 5  99361777.45942
      3234.100        2520.081
  21921049.486    21921047.9554   21921050.4094  115195900.949 7  89763051.75444
      2232.590        1739.693
  21462105.271    21462105.4894   21462106.0634  112784119.748 8  87883747.87945
      -756.895        -589.786
  22761044.400    22761044.6474   22761045.6104  119610093.483 6  93202695.39643
      1609.587        1254.234
  23037568.655    23037567.9134   23037567.2834  121063230.248 6  94334999.04343
     -3104.000       -2418.698
  22701090.322    22701090.0794   22701092.3584  119295063.435 7  92957187.06743
      2493.676        1943.118
  23109284.462    23109284.4514   23109285.7714  121440126.112 7  94628673.24743
      1918.781        1495.152
  24718993.299    24718993.8974   24718996.4324  129899197.115 5 101220176.33141
      2948.099        2297.178
  21764473.286    21764473.4454   21764474.3874  114373057.795 8  89121893.35246
      -403.834        -314.682
 08  5  1 13  4 30.0000000  0 11G 2G 4G 7G10G13G16G23G24G25G27G29
  22023973.086    22023972.3884   22023971.9484  115736759.915 7  90184500.67445
     -2755.928       -2147.466
  24826337.927    24826335.0884   24826336.2794  130463249.571 5 101659702.88741
     -4070.656       -3171.982
  24246715.173    24246714.6354   24246715.8824  127417355.144 5  99286269.00442
      3225.012        2512.988
  21908350.005    21908348.7954   21908351.0534  115129164.819 7  89711049.58944
      2215.880        1726.641
  21466488.451    21466488.4834   21466489.1134  112807152.833 8  87901695.73145
      -779.207        -607.187
  22751905.329    22751904.7714   22751906.3424  119562063.487 6  93165269.47343
      1591.579        1240.195
  23055327.486    23055327.2384   23055326.4284  121156554.939 6  94407719.57143
     -3118.234       -2429.787
  22686889.999    22686889.2024   22686892.0224  119220439.042 7  92899038.20343
      2480.601        1932.932
  23098373.489    23098373.1484   23098374.3384  121382787.430 6  94583993.78343
      1903.299        1483.087
  24702182.247    24702180.5214   24702183.7664  129810856.273 5 101151339.41041
      2941.181        2291.840
  21766836.070    21766836.1164   21766837.1694  114385474.210 8  89131568.47045
      -424.268        -330.605
 08  5  1 13  5  0.0000000  0 11G 2G 4G 7G10G13G16G23G24G25G27G29
  22039751.959    22039751.4144   22039750.8174  115819679.254 7  90249113.14044
     -2771.973       -2159.969
  24849579.599    24849582.6474   24849584.1974  130585411.945 5 101754894.44341
     -4074.000       -3174.503
  24228327.350    24228327.1704   24228329.1784  127320731.935 5  99210978.22742
      3216.995        2506.744
  21895747.496    21895746.7754   21895748.7714  115062941.461 7  89659446.98144
      2199.046        1713.524
  21470999.882    21471000.1224   21471000.2664  112830860.269 8  87920169.04645
      -801.526        -624.574
  22742871.068    22742870.0194   22742870.9194  119514586.215 7  93128274.23943
      1573.375        1225.995
  23073166.499    23073165.7574   23073165.4254  121250301.974 6  94480769.17843
     -3132.030       -2440.526
  22672767.034    22672766.3364   22672768.6474  119146220.281 7  92841205.40944
      2467.251        1922.545
  23087552.317    23087552.4824   23087553.5404  121325923.923 6  94539684.57843
      1887.609        1470.879
  24685412.346    24685411.5404   24685413.8784  129722729.926 5 101082669.43841
      2933.713        2285.963
  21769316.760    21769316.8674   21769318.1344  114398510.834 7  89141726.86445
      -444.893        -346.669
 08  5  1 13  5 30.0000000  0 11G 2G 4G 7G10G13G16G23G24G25G27G29
  22055625.368    22055624.5114   22055623.6644  115903093.383 7  90314111.14744
     -2788.825       -2173.100
  24872856.212    24872852.2354   24872855.1834  130707702.220 5 101850185.46141
     -4078.483       -3178.082
  24209997.025    24209996.2224   24209997.1324  127224401.015 5  99135915.30742
      3205.816        2498.000
  21883245.574    21883244.8824   21883246.8874  114997242.898 7  89608253.30744
      2181.024        1699.523
  21475641.353    21475641.4364   21475641.8914  112855251.569 8  87939175.24645
      -824.607        -642.542
  22733943.844    22733942.8474   22733943.7164  119467673.666 7  93091719.06143
      1554.105        1211.006
  23091087.812    23091087.3794   23091087.8494  121344478.837 6  94554153.74743
     -3146.733       -2451.981
  22658723.526    22658722.8804   22658725.0194  119072419.471 6  92783698.28544
      2452.905        1911.364
  23076823.998    23076824.4074   23076825.6574  121269547.580 7  94495754.94643
      1870.942        1457.901
  24668686.028    24668685.0714   24668690.0464  129634830.748 5 101014176.53741
      2926.131        2280.137
  21771917.468    21771917.5024   21771918.6654  114412177.584 8  89152376.26245
      -466.195        -363.255
 08  5  1 13  6  0.0000000  0 11G 2G 4G 7G10G13G16G23G24G25G27G29
  22071591.708    22071591.4174   22071591.3264  115987000.476 7  90379493.27345
     -2805.820       -2186.364
  24896152.086    24896148.9654   24896152.5114  130830119.769 5 101945575.74341
     -4083.424       -3181.910
  24191719.831    24191720.8094   24191722.9554  127128365.237 5  99061082.40442
      3195.611        2490.054
  21870843.976    21870843.3224   21870845.5554  114932072.171 7  89557470.93544
      2162.785        1685.270
  21480412.932    21480413.0344   21480413.5044  112880326.573 8  87958714.17445
      -848.023        -660.811
  22725124.169    22725123.0434   22725125.0134  119421328.338 7  93055605.83843
      1534.643        1195.817
  23109090.779    23109090.2114   23109089.9784  121439083.435 6  94627871.60143
     -3161.381       -2463.392
  22644759.457    22644758.5864   22644760.9654  118999039.352 6  92726518.96144
      2438.280        1899.958
  23066189.480    23066189.0814   23066190.5054  121213661.130 7  94452207.06643
      1853.986        1444.670
  24652002.670    24652002.7914   24652005.7524  129547162.096 5 100945863.45141
      2917.927        2273.646
  21774638.223    21774638.2524   21774639.4884  114426475.041 7  89163517.13445
      -487.759        -380.076
 08  5  1 13  6 30.0000000  0 11G 2G 4G 7G10G13G16G23G24G25G27G29
  22087649.312    22087649.6134   22087648.8804  116071384.847 7  90445247.31144
     -2821.617       -2198.664
  24919465.099    24919466.0134   24919468.6774  130952648.498 5 102041052.57941
     -4087.322       -3184.950
  24173501.315    24173500.4644   24173501.7154  127032614.007 5  98986471.05842
      3186.095        2482.678
  21858540.776    21858540.1514   21858542.1024  114867417.715 7  89507090.83544
      2145.423        1671.764
  21485312.256    21485312.1754   21485312.7584  112906071.344 8  87978775.01945
      -870.110        -678.009
  22716410.656    22716410.4774   22716411.5204  119375538.736 7  93019925.63843
      1515.987        1181.291
  23127172.019    23127171.0944   23127171.5774  121534100.019 6  94701910.47043
     -3174.750       -2473.822
  22630873.473    22630872.5634   22630875.8504  118926068.851 7  92669658.86644
      2424.714        1889.390
  23055646.154    23055645.9324   23055647.4764  121158253.233 7  94409032.09244
      1837.928        1432.183
  24635362.591    24635361.0524   24635363.5784  129459712.665 5 100877721.10641
      2910.276        2267.795
  21777476.333    21777476.4594   21777477.5474  114441389.599 7  89175138.85745
      -508.242        -396.031
 08  5  1 13  7  0.0000000  0 10G 2G 7G10G13G16G23G24G25G27G29
  22103798.616    22103798.2744   22103797.4514  116156248.381 7  90511374.70544
     -2836.424       -2210.209
  24155335.289    24155334.4854   24155336.5874  126937154.771 5  98912087.37842
      3177.462        2475.955
  21846336.679    21846336.3104   21846338.1854  114803285.996 7  89457118.07244
      2129.136        1659.061
  21490339.431    21490339.2554   21490339.9164  112932489.146 8  87999360.30445
      -891.406        -694.610
  22707803.688    22707803.6544   22707804.8854  119330310.705 7  92984683.03443
      1498.561        1167.708
  23145331.781    23145330.7984   23145330.5624  121629529.687 6  94776271.19143
     -3187.557       -2483.785
  22617066.657    22617065.7834   22617069.0014  118853514.149 7  92613122.73544
      2411.888        1879.377
  23045193.780    23045194.0304   23045195.7104  121103329.872 6  94366234.65843
      1823.103        1420.620
  24618762.722    24618763.1584   24618765.8414  129372488.993 5 100809754.77041
      2903.993        2262.926
  21780432.507    21780432.8344   21780433.9074  114456924.936 8  89187244.31545
      -527.941        -411.379
 08  5  1 13  7 30.0000000  0 10G 2G 7G10G13G16G23G24G25G27G29
  22120036.755    22120036.5094   22120035.5684  116241579.168 7  90577866.23644
     -2852.704       -2222.888
  24137223.658    24137224.2254   24137225.3194  126841980.636 5  98837925.69042
      3167.225        2468.025
  21834231.301    21834230.3134   21834232.2934  114739670.304 7  89407547.42144
      2111.358        1645.222
  21495492.485    21495492.7074   21495493.0424  112959570.099 8  88020462.33545
      -914.229        -712.366
  22699302.887    22699302.3534   22699303.2314  119285636.695 7  92949872.14044
      1479.339        1152.741
  23163567.182    23163567.1264   23163567.2024  121725360.770 6  94850944.73143
     -3201.488       -2494.618
  22603337.562    22603337.2094   22603339.9074  118781368.084 7  92556905.03944
      2397.370        1868.085
  23034833.573    23034833.1034   23034834.8734  121048883.492 7  94323808.88744
      1806.275        1407.495
  24602207.407    24602205.6684   24602209.4124  129285483.428 5 100741958.22741
      2895.979        2256.627
  21783505.100    21783505.3504   21783506.6784  114473071.608 7  89199826.13345
      -548.920        -427.719
 08  5  1 13  8  0.0000000  0 10G 2G 7G10G13G16G23G24G25G27G29
  22136367.874    22136367.4334   22136366.8064  116327399.602 7  90644739.29344
     -2868.467       -2235.183
  24119172.270    24119172.0914   24119173.4514  126747119.137 6  98764007.68542
      3157.654        2460.482
  21822228.754    21822227.7354   21822230.0114  114676596.734 7  89358399.18644
      2093.748        1631.496
  21500776.456    21500776.4454   21500776.8984  112987337.293 8  88042099.06945
      -936.602        -729.814
  22690912.110    22690911.8484   22690912.3024  119241543.176 7  92915513.54843
      1460.385        1137.977
  23181884.074    23181883.5354   23181883.1514  121821614.757 6  94925947.75443
     -3215.243       -2505.401
  22589691.655    22589691.0334   22589693.6144  118709657.190 6  92501026.42744
      2383.423        1857.231
  23024568.224    23024567.8214   23024569.9234  120994940.821 7  94281775.63144
      1790.120        1394.872
  24585697.135    24585697.0004   24585698.9334  129198723.189 5 100674352.88241
      2888.252        2250.602
  21786698.391    21786698.8484   21786700.0544  114489853.686 8  89212903.06545
      -569.662        -443.884
 08  5  1 13  8 30.0000000  0 10G 2G 7G10G13G16G23G24G25G27G29
  22152787.039    22152786.6704   22152786.1634  116413682.287 7  90711972.56344
     -2884.389       -2247.596
  24101174.240    24101175.7384   24101177.7214  126652547.814 5  98690315.74742
      3146.953        2452.190
  21810325.202    21810324.2114   21810326.2204  114614042.085 7  89309655.30945
      2075.910        1617.598
  21506186.104    21506186.2574   21506186.7004  113015764.717 8  88064250.28045
      -959.013        -747.274
  22682627.473    22682626.8574   22682627.9914  119198006.202 7  92881588.64244
      1441.472        1123.204
  23200275.964    23200275.8854   23200275.2514  121918263.957 6  95001258.80343
     -3228.743       -2515.912
  22576123.594    22576123.5784   22576125.6764  118638358.396 7  92445468.91944
      2369.214        1846.191
  23014394.986    23014394.4454   23014396.3144  120941478.173 7  94240116.41744
      1773.582        1382.015
  24569229.977    24569228.9174   24569230.4124  129112185.494 5 100606920.99341
      2880.403        2244.525
  21790008.310    21790008.5184   21790009.6634  114507245.762 8  89226455.32245
      -590.407        -460.060
 08  5  1 13  9  0.0000000  0 10G 2G 7G10G13G16G23G24G25G27G29
  22169297.257    22169296.4894   22169295.5414  116500442.622 7  90779578.00644
     -2899.768       -2259.581
  24083240.311    24083238.7924   24083240.0154  126558287.810 5  98616866.44142
      3137.057        2444.430
  21798523.680    21798523.1004   21798525.1994  114552026.949 7  89261331.84945
      2058.288        1603.840
  21511724.649    21511724.7714   21511725.1514  113044869.740 8  88086929.49845
      -981.293        -764.657
  22674452.383    22674451.9474   22674453.0084  119155045.970 7  92848113.15044
      1422.446        1108.358
  23218746.094    23218745.5064   23218744.9474  122015323.862 6  95076889.86643
     -3241.859       -2526.136
  22562638.522    22562638.2944   22562640.2614  118567491.994 7  92390248.35244
      2355.205        1835.201
  23004315.899    23004316.3324   23004318.0294  120888515.828 7  94198847.04844
      1757.150        1369.189
  24552808.221    24552807.4884   24552809.4564  129025890.531 5 100539678.20041
      2872.663        2238.395
  21793437.254    21793437.6834   21793438.7064  114525265.597 7  89240496.75246
      -610.949        -476.079
 08  5  1 13  9 30.0000000  0 10G 2G 7G10G13G16G23G24G25G27G29
  22185894.033    22185893.9044   22185893.2704  116587662.462 7  90847541.49144
     -2915.022       -2271.456
  24065358.079    24065358.8824   24065359.7894  126464326.027 6  98543649.52142
      3127.215        2436.800
  21786822.481    21786821.9884   21786824.1934  114490537.406 7  89213417.91345
      2041.017        1590.396
  21517388.961    21517388.8804   21517389.4984  113074635.686 8  88110123.71645
     -1003.190        -781.713
  22666384.700    22666383.5594   22666384.5234  119112647.960 7  92815075.77544
      1403.984        1093.979
  23237289.920    23237289.7704   23237289.2324  122112776.153 6  95152826.71043
     -3254.978       -2536.349
  22549232.158    22549232.1584   22549234.3694  118497044.121 7  92335353.90944
      2341.302        1824.366
  22994330.521    22994330.4944   22994332.3754  120836039.550 7  94157956.39744
      1741.161        1356.755
  24536430.561    24536431.3544   24536432.4874  128939824.837 5 100472614.01941
      2864.763        2232.264
  21796982.885    21796983.0184   21796984.1464  114543896.811 8  89255014.57945
      -631.236        -491.890
 08  5  1 13 10  0.0000000  0 10G 2G 7G10G13G16G23G24G25G27G29
  22202581.398    22202581.1564   22202580.2164  116675353.583 7  90915872.21144
     -2931.298       -2284.120
  24047538.666    24047538.9184   24047539.3534  126370678.972 6  98470677.83142
      3115.660        2427.773
  21775224.524    21775223.9564   21775226.0554  114429589.499 7  89165926.03545
      2022.039        1575.601
  21523181.437    21523181.3204   21523182.0554  113105075.590 8  88133843.10745
     -1026.304        -799.718
  22658426.065    22658425.8074   22658426.4284  119070828.222 7  92782488.99444
      1383.813        1078.304
  23255911.458    23255911.1534   23255910.7574  122210631.585 6  95229077.71043
     -3269.045       -2547.355
  22535909.561    22535909.1144   22535911.6644  118427030.978 7  92280798.22444
      2325.846        1812.344
  22984439.938    22984439.6914   22984441.5454  120784065.326 6  94117456.99044
      1723.612        1343.066
  24520098.083    24520097.4144   24520101.2994  128854004.717 5 100405741.26941
      2856.029        2225.475
  21800647.251    21800647.4224   21800648.5314  114563153.188 8  89270019.53546
      -652.716        -508.608
 08  5  1 13 10 30.0000000  0 10G 2G 7G10G13G16G23G24G25G27G29
  22219359.348    22219358.9584   22219358.3514  116763522.218 7  90984575.02444
     -2947.010       -2296.355
  24029780.234    24029779.7244   24029781.4994  126277358.304 6  98397960.44342
      3105.128        2419.595
  21763732.001    21763731.0244   21763733.1594  114369193.889 7  89118864.53745
      2003.787        1561.376
  21529103.569    21529103.4804   21529104.2464  113136197.085 8  88158093.60145
     -1048.840        -817.270
  22650580.411    22650579.4644   22650580.6634  119029597.162 7  92750360.93744
      1364.359        1063.156
  23274610.459    23274610.7304   23274610.0474  122308896.434 6  95305647.71943
     -3282.514       -2557.796
  22522671.605    22522671.3804   22522673.7664  118357463.487 7  92226589.78744
      2311.387        1801.098
  22974647.393    22974647.1024   22974648.6204  120732603.842 7  94077357.13344
      1706.632        1329.840
  24503816.673    24503816.2204   24503817.8814  128768441.257 5 100339068.46941
      2847.713        2218.996
  21804432.068    21804432.2844   21804433.4144  114583042.837 8  89285517.96045
      -673.644        -524.913
 08  5  1 13 11  0.0000000  0 10G 2G 7G10G13G16G23G24G25G27G29
  22236223.681    22236223.1994   22236222.8534  116852144.640 7  91053631.46444
     -2961.919       -2307.986
  24012080.560    24012078.8704   24012081.2624  126184345.160 6  98325482.72742
      3095.101        2411.787
  21752340.369    21752339.4044   21752341.6734  114309330.835 7  89072218.01845
      1986.061        1547.589
  21535151.467    21535151.4944   21535151.9144  113167977.636 8  88182857.66045
     -1070.710        -834.310
  22642841.934    22642841.8414   22642842.7864  118988934.783 7  92718675.97944
      1345.620        1048.529
  23293384.060    23293383.1774   23293382.8384  122407546.247 6  95382517.72043
     -3295.204       -2567.708
  22509513.811    22509513.9204   22509515.8274  118288322.069 7  92172713.36044
      2297.122        1789.952
  22964948.516    22964948.2384   22964950.0114  120681635.012 7  94037641.14244
      1690.389        1317.197
  24487579.271    24487579.3714   24487582.2574  128683115.251 5 100272580.74341
      2839.820        2212.855
  21808333.547    21808333.5754   21808334.6444  114603543.722 8  89301492.65945
      -693.953        -540.746
 08  5  1 13 11 30.0000000  0 10G 2G 7G10G13G16G23G24G25G27G29
  22253174.854    22253175.1474   22253174.3354  116941226.546 7  91123045.90844
     -2977.524       -2320.130
  23994442.096    23994440.6934   23994442.3864  126091651.185 6  98253253.60742
      3083.838        2403.017
  21741052.045    21741051.4824   21741053.4094  114250011.195 7  89025994.94045
      1967.804        1533.378
  21541325.522    21541325.5654   21541326.6574  113200424.344 7  88208140.79745
     -1093.147        -851.796
  22635214.277    22635213.9204   22635214.6854  118948850.843 7  92687441.74844
      1326.047        1033.292
  23312230.464    23312230.4514   23312229.3564  122506586.896 6  95459692.18943
     -3308.299       -2577.878
  22496439.671    22496439.5144   22496441.8654  118219617.256 7  92119177.16044
      2282.340        1778.428
  22955344.889    22955344.5734   22955346.6124  120631169.236 7  93998317.13844
      1673.232        1303.825
  24471389.647    24471390.6364   24471393.3144  128598037.046 5 100206285.99841
      2831.170        2206.175
  21812352.469    21812352.5434   21812353.4854  114624663.905 7  89317949.93645
      -714.850        -557.007
 08  5  1 13 12  0.0000000  0 10G 2G 7G10G13G16G23G24G25G27G29
  22270214.339    22270214.1454   22270213.2834  117030767.874 7  91192818.33744
     -2992.700       -2331.968
  23976863.769    23976863.0474   23976864.5024  125999281.029 6  98181276.88942
      3073.248        2394.708
  21729867.717    21729867.5444   21729869.6004  114191239.046 7  88980198.46845
      1949.605        1519.168
  21547627.041    21547627.3264   21547627.9634  113233538.546 8  88233944.07345
     -1115.248        -869.028
  22627697.406    22627697.2554   22627698.3084  118909349.364 7  92656661.38844
      1306.596        1018.110
  23331151.275    23331150.9664   23331150.4074  122606017.681 6  95537170.69443
     -3321.047       -2587.853
  22483449.447    22483449.2924   22483452.0334  118151352.929 7  92065984.19744
      2267.852        1767.163
  22945838.036    22945837.8844   22945839.6994  120581210.441 7  93959388.22844
      1656.431        1290.740
  24455248.165    24455247.6354   24455250.1784  128513211.634 5 100140188.34841
      2823.037        2199.813
  21816489.385    21816489.8264   21816490.8674  114646404.880 8  89334890.95546
      -735.401        -573.035
 08  5  1 13 12 30.0000000  0 10G 2G 7G10G13G16G23G24G25G27G29
  22287338.213    22287338.3034   22287337.2874  117120755.023 7  91262938.21944
     -3007.414       -2343.461
  23959345.914    23959346.0104   23959347.4674  125907226.457 6  98109546.01442
      3062.719        2386.508
  21718786.585    21718785.8944   21718787.8294  114133005.208 7  88934821.45745
      1931.541        1505.072
  21554053.166    21554053.4884   21554054.0384  113267308.157 7  88260258.04945
     -1137.086        -886.048
  22620289.810    22620289.3184   22620290.4534  118870420.879 7  92626327.53144
      1287.627        1003.331
  23350144.050    23350143.0204   23350143.3614  122705825.140 6  95614942.71843
     -3333.508       -2597.541
  22470541.623    22470540.9424   22470544.0854  118083520.579 7  92013127.83744
      2253.356        1755.863
  22936425.604    22936425.1054   22936428.1814  120531749.455 7  93920847.20044
      1639.962        1277.896
  24439152.353    24439153.6224   24439154.2584  128428630.068 5 100074280.70041
      2814.717        2193.240
  21820742.641    21820742.9904   21820744.0614  114668755.269 8  89352306.83246
      -755.629        -588.808
 08  5  1 13 13  0.0000000  0 10G 2G 7G10G13G16G23G24G25G27G29
  22304550.133    22304549.4864   22304548.0344  117211199.461 7  91333414.36644
     -3022.314       -2355.063
  23941891.574    23941891.9574   23941893.1484  125815504.377 6  98038074.26042
      3051.933        2378.151
  21707810.424    21707809.7984   21707811.9584  114075325.627 7  88889876.34145
      1913.442        1490.996
  21560606.406    21560606.7404   21560607.2914  113301746.086 8  88287092.81445
     -1159.000        -903.112
  22612994.571    22612993.5724   22612994.4064  118832080.760 7  92596452.13444
      1268.243         988.233
  23369211.142    23369210.2864   23369209.7624  122806020.328 6  95693016.89742
     -3346.232       -2607.420
  22457718.622    22457718.0464   22457720.8634  118016136.082 7  91960620.44144
      2238.698        1744.445
  22927111.537    22927111.5064   22927113.2654  120482801.810 7  93882706.15444
      1623.091        1264.753
  24423106.522    24423104.6294   24423108.1724  128344308.625 5 100008575.70242
      2805.950        2186.423
  21825114.820    21825114.6224   21825115.7794  114691728.456 8  89370208.00345
      -776.162        -604.809
 08  5  1 13 13 30.0000000  0 10G 2G 7G10G13G16G23G24G25G27G29
  22321845.866    22321845.2844   22321844.7324  117302091.106 7  91404239.00644
     -3037.115       -2366.567
  23924498.135    23924499.7194   23924502.0324  125724110.187 5  97966858.09942
      3041.088        2369.653
  21696939.225    21696938.4174   21696940.4044  114018195.183 8  88845359.11345
      1895.248        1476.824
  21567285.319    21567285.5314   21567285.9154  113336843.474 7  88314441.43045
     -1180.874        -920.150
  22605809.258    22605808.2134   22605808.7544  118794323.056 7  92567030.57144
      1248.972         973.246
  23388349.087    23388348.1234   23388348.1534  122906592.850 6  95771385.07842
     -3358.653       -2617.144
  22444979.949    22444979.4744   22444982.6134  117949193.640 7  91908457.49844
      2224.289        1733.240
  22917893.618    22917893.4004   22917895.2034  120434361.843 7  93844960.70044
      1606.358        1251.704
  24407108.494    24407108.7604   24407112.8594  128260241.466 5  99943068.81642
      2798.226        2180.404
  21829603.122    21829603.1654   21829604.4164  114715316.208 7  89388588.05246
      -796.367        -620.556
 08  5  1 13 14  0.0000000  0 10G 2G 7G10G13G16G23G24G25G27G29
  22339224.922    22339224.5184   22339224.0554  117393420.806 7  91475405.00944
     -3051.931       -2378.136
  23907169.406    23907169.3694   23907170.8214  125633039.111 6  97895893.63143
      3029.799        2360.906
  21686171.136    21686170.1504   21686172.3364  113961608.402 7  88801265.52645
      1876.677        1462.353
  21574088.144    21574088.1944   21574088.7154  113372592.396 8  88342297.72945
     -1202.796        -937.240
  22598733.929    22598733.1634   22598733.7764  118757142.566 7  92538058.82144
      1229.377         957.957
  23407556.786    23407556.9784   23407556.6584  123007533.133 6  95850039.82842
     -3370.982       -2626.726
  22432324.184    22432324.1924   22432326.6224  117882688.378 7  91856635.22744
      2209.019        1721.329
  22908771.635    22908771.3534   22908773.0534  120386424.293 7  93807606.79144
      1589.131        1238.286
  24391159.846    24391158.9184   24391161.2904  128176424.314 5  99877756.73141
      2789.280        2173.429
  21834207.197    21834207.3774   21834208.3484  114739511.258 8  89407441.33045
      -816.967        -636.603
 08  5  1 13 14 30.0000000  0 10G 2G 7G10G13G16G23G24G25G27G29
  22356686.119    22356685.8014   22356685.0494  117485179.117 7  91546904.95944
     -3066.414       -2389.409
  23889899.792    23889900.3324   23889901.3054  125542287.151 6  97825177.78242
      3018.919        2352.425
  21675505.151    21675504.5774   21675506.7464  113905559.873 7  88757591.34745
      1858.615        1448.284
  21581013.385    21581013.3444   21581013.9954  113408984.329 8  88370655.07245
     -1224.456        -954.121
  22591766.561    22591766.5334   22591767.8164  118720533.702 7  92509532.48444
      1209.985         942.856
  23426833.273    23426833.4864   23426832.8604  123108831.408 6  95928973.50642
     -3383.124       -2636.216
  22419751.575    22419750.5194   22419753.1884  117816615.155 7  91805149.61244
      2194.536        1710.036
  22899743.573    22899743.7444   22899745.4074  120338983.749 6  93770640.14344
      1572.345        1225.195
  24375256.739    24375256.2134   24375258.1534  128092852.054 5  99812635.42542
      2780.976        2166.982
  21838925.381    21838925.6514   21838926.7334  114764305.584 8  89426761.56845
      -837.153        -652.329
 08  5  1 13 15  0.0000000  0 10G 2G 7G10G13G16G23G24G25G27G29
  22374229.735    22374228.9114   22374228.0314  117577369.795 7  91618741.83844
     -3080.740       -2400.574
  23872692.868    23872692.4744   23872694.8514  125451863.598 6  97754717.84542
      3007.804        2343.806
  21664943.990    21664942.9154   21664945.1014  113850058.200 7  88714343.30045
      1840.300        1434.003
  21588061.636    21588061.8964   21588062.5344  113446024.566 8  88399517.58245
     -1246.152        -971.018
  22584910.496    22584910.2274   22584910.9294  118684503.874 6  92481457.32344
      1190.675         927.831
  23446178.995    23446178.3934   23446178.4354  123210491.391 6  96008189.06742
     -3395.445       -2645.765
  22407261.736    22407261.4274   22407263.4174  117750982.726 6  91754007.45944
      2179.883        1698.633
  22890812.922    22890811.9604   22890813.7194  120292048.268 7  93734067.03444
      1555.353        1211.970
  24359402.255    24359401.9104   24359403.0354  128009534.113 5  99747712.50542
      2772.095        2160.109
  21843758.822    21843758.9924   21843760.0344  114789705.179 7  89446553.45945
      -857.345        -668.040
 08  5  1 13 15 30.0000000  0 10G 2G 7G10G13G16G23G24G25G27G29
  22391860.784    22391860.7544   22391859.4984  117670022.695 7  91690938.85544
     -3095.890       -2412.382
  23855556.234    23855555.5534   23855556.9984  125361803.674 6  97684541.32843
      2996.366        2334.838
  21654492.651    21654491.9824   21654494.2114  113795138.038 7  88671548.37245
      1821.333        1419.203
  21595239.629    21595240.0134   21595240.3364  113483744.685 8  88428909.87945
     -1268.291        -988.295
  22578171.163    22578170.7374   22578172.0924  118649087.364 7  92453860.04944
      1170.559         912.134
  23465598.032    23465598.2464   23465598.3104  123312542.441 6  96087709.29742
     -3407.869       -2655.501
  22394862.415    22394861.9194   22394864.5894  117685825.483 7  91703235.57944
      2164.374        1686.533
  22881983.274    22881983.6444   22881985.2024  120245652.180 6  93697914.24944
      1537.922        1198.381
  24343601.980    24343601.7174   24343602.2244  127926504.622 5  99683014.21942
      2763.142        2153.123
  21848713.498    21848713.7164   21848714.8874  114815741.841 7  89466841.74845
      -878.221        -684.338
 08  5  1 13 16  0.0000000  0 10G 2G 7G10G13G16G23G24G25G27G29
  22409572.805    22409572.6574   22409571.8344  117763100.954 7  91763467.33844
     -3109.876       -2423.249
  23838480.908    23838480.5604   23838482.3204  125272075.777 6  97614623.56643
      2985.142        2326.104
  21644146.340    21644145.3324   21644147.3564  113740766.578 7  88629181.00945
      1802.981        1404.927
  21602540.072    21602540.2694   21602540.8144  113522108.553 8  88458803.78345
     -1289.701       -1004.941
  22571542.119    22571541.7514   22571542.7384  118614251.061 7  92426714.87544
      1151.319         897.139
  23485085.288    23485085.2404   23485085.6614  123414947.617 6  96167505.54842
     -3419.512       -2664.551
  22382547.795    22382547.8094   22382549.9344  117621111.008 7  91652808.71844
      2149.686        1675.084
  22873251.093    22873250.5944   22873252.6584  120199762.349 7  93662155.91644
      1521.010        1185.202
  24327850.402    24327850.5414   24327852.9164  127843731.413 5  99618515.64642
      2754.540        2146.394
  21853782.615    21853782.7434   21853783.9154  114842380.470 7  89487599.11345
      -898.140        -699.844
 08  5  1 13 16 30.0000000  0 10G 2G 7G10G13G16G23G24G25G27G29
  22427364.539    22427364.5484   22427363.5774  117856596.769 7  91836321.17644
     -3124.133       -2434.397
  23821468.161    23821468.7974   23821470.3494  125182677.066 6  97544962.19943
      2973.616        2317.092
  21633903.520    21633902.3974   21633904.7184  113686940.307 7  88587238.46645
      1784.413        1390.433
  21609961.966    21609961.9914   21609962.6334  113561109.757 8  88489194.32545
     -1311.364       -1021.854
  22565022.769    22565022.0004   22565023.2774  118579991.038 7  92400018.73444
      1131.718         881.850
  23504638.362    23504637.5464   23504637.8544  123517698.517 6  96247571.10942
     -3431.357       -2673.836
  22370316.670    22370316.6704   22370318.9464  117556835.561 7  91602723.95744
      2134.544        1663.256
  22864614.148    22864613.7274   22864616.2334  120154375.374 7  93626789.45944
      1503.895        1171.881
  24312146.886    24312146.4684   24312148.0734  127761211.688 5  99554214.52841
      2745.648        2139.485
  21858964.969    21858965.2474   21858966.3654  114869614.664 7  89508820.55745
      -918.333        -715.603
 08  5  1 13 17  0.0000000  0 10G 2G 7G10G13G16G23G24G25G27G29
  22445238.613    22445238.3584   22445238.0244  117950526.268 7  91909512.94344
     -3138.458       -2445.559
  23804524.052    23804523.5224   23804525.1064  125093629.227 6  97475574.33343
      2961.914        2307.989
  21623768.154    21623767.3314   21623769.2924  113633679.710 7  88545736.70345
      1765.586        1375.774
  21617508.240    21617508.2534   21617508.5744  113600765.350 8  88520094.78145
     -1333.164       -1038.830
  22558617.091    22558616.1124   22558617.2714  118546327.614 7  92373787.51244
      1111.780         866.319
  23524260.594    23524260.5854   23524259.2754  123620811.217 6  96327918.61442
     -3443.522       -2683.227
  22358172.739    22358172.5634   22358175.2454  117493019.827 7  91552997.41444
      2119.017        1651.169
  22856076.681    22856076.3014   22856078.0774  120109511.491 7  93591830.60244
      1486.230        1158.101
  24296496.298    24296495.5364   24296498.7684  127678966.328 5  99490127.34141
      2736.733        2132.550
  21864264.131    21864264.4204   21864265.5104  114897462.566 8  89530520.21445
      -938.840        -731.572
 08  5  1 13 17 30.0000000  0 11G 2G 6G 7G10G13G16G23G24G25G27G29
  22463194.070    22463193.5124   22463193.0514  118044881.028 7  91983036.11144
     -3152.442       -2456.429
  24861893.342    24861894.1304   24861896.2384  130650130.340 5 101805319.00442
      3218.784        2508.110
  23787644.650    23787643.9064   23787646.1964  125004929.174 6  97406457.43843
      2950.713        2299.276
  21613740.069    21613739.1284   21613740.9074  113580980.608 8  88504672.47345
      1747.079        1361.375
  21625177.554    21625177.5954   21625178.3314  113641068.381 7  88551499.72245
     -1354.446       -1055.386
  22552323.218    22552323.1654   22552323.5874  118513255.873 7  92348017.35744
      1092.375         851.186
  23543949.151    23543949.0074   23543948.3044  123724277.448 6  96408541.62142
     -3454.880       -2692.146
  22346115.830    22346115.6514   22346118.3744  117429660.181 7  91503626.27644
      2104.117        1639.606
  22847638.214    22847637.7254   22847639.1194  120065166.407 7  93557276.00744
      1469.353        1144.948
  24280897.374    24280896.5014   24280899.9304  127596991.613 5  99426250.99642
      2727.556        2125.470
  21869679.158    21869679.2314   21869680.5204  114925917.724 7  89552693.05645
      -958.807        -747.125
 08  5  1 13 18  0.0000000  0 11G 2G 6G 7G10G13G16G23G24G25G27G29
  22481229.842    22481229.5134   22481229.0664  118139662.343 7  92056891.65844
     -3166.821       -2467.656
  24843536.909    24843536.4264   24843537.7424  130553670.352 5 101730155.41342
      3211.751        2502.654
  23770831.804    23770832.2844   23770834.0624  124916583.558 6  97337616.73843
      2938.570        2289.789
  21603819.513    21603818.6204   21603820.7234  113528848.975 7  88464050.43245
      1727.904        1346.402
  21632970.830    21632970.7234   21632971.4434  113682021.467 8  88583411.20445
     -1376.223       -1072.385
  22546143.630    22546143.2674   22546143.8724  118480781.330 7  92322712.50244
      1071.989         835.314
  23563705.996    23563705.7924   23563704.8544  123828098.094 6  96489440.78042
     -3466.836       -2701.407
  22334147.193    22334146.6534   22334149.1734  117366762.345 7  91454614.97644
      2088.595        1627.455
  22839299.426    22839299.0854   22839300.9454  120021345.733 7  93523130.06644
      1451.670        1131.152
  24265350.029    24265349.8174   24265352.5304  127515293.623 5  99362590.27342
      2718.216        2118.050
  21875210.246    21875210.4124   21875211.6804  114954983.391 7  89575341.63145
      -979.432        -763.206
 08  5  1 13 18 30.0000000  0 11G 2G 6G 7G10G13G16G23G24G25G27G29
  22499346.409    22499346.4554   22499345.9574  118234865.712 7  92131076.07544
     -3181.256       -2478.878
  24825222.228    24825220.3164   24825223.8284  130457420.474 5 101655155.53042
      3204.098        2496.675
  23754088.285    23754088.5894   23754090.0544  124828592.787 6  97269052.57943
      2926.273        2280.215
  21594007.123    21594006.0674   21594008.2644  113477283.898 7  88423869.86645
      1708.668        1331.439
  21640886.659    21640886.6524   21640887.6534  113723620.866 8  88615826.31845
     -1398.204       -1089.500
  22540077.670    22540077.3444   22540078.1654  118448903.108 7  92297872.34944
      1051.875         819.653
  23583528.201    23583528.0304   23583528.2414  123932267.957 6  96570612.09442
     -3478.756       -2710.719
  22322265.786    22322265.1994   22322267.9514  117304326.044 7  91405963.32344
      2072.668        1615.060
  22831060.071    22831060.0834   22831061.5784  119978048.559 7  93489392.02244
      1433.734        1117.173
  24249855.005    24249855.7124   24249858.1944  127433872.252 5  99299145.03642
      2708.754        2110.757
  21880856.722    21880857.0154   21880858.2784  114984656.445 7  89598463.47745
     -1000.026        -779.228
 08  5  1 13 19  0.0000000  0 11G 2G 6G 7G10G13G16G23G24G25G27G29
  22517543.488    22517543.3214   22517543.1824  118330491.127 7  92205589.37044
     -3194.951       -2489.570
  24806947.785    24806945.7094   24806949.6294  130361385.612 5 101580323.19942
      3197.066        2491.188
  23737413.507    23737412.8954   23737413.9664  124740961.718 6  97200768.70043
      2914.571        2271.041
  21584303.024    21584302.3094   21584304.0684  113426289.873 8  88384134.28045
      1689.874        1316.779
  21648925.816    21648926.0254   21648926.7834  113765867.766 8  88648745.98145
     -1419.354       -1106.010
  22534125.151    22534124.9064   22534125.6244  118417624.926 7  92273499.72744
      1032.323         804.429
  23603417.865    23603417.3144   23603417.1104  124036786.612 6  96652055.17342
     -3490.087       -2719.556
  22310472.963    22310472.9984   22310475.0664  117242355.451 7  91357674.57344
      2057.555        1603.283
  22822921.232    22822921.0644   22822923.0254  119935278.923 7  93456065.04944
      1416.475        1103.754
  24234416.519    24234415.9784   24234418.8344  127352732.206 5  99235919.04742
      2699.517        2103.526
  21886619.240    21886619.4874   21886620.5734  115014938.134 7  89622059.59845
     -1019.910        -794.734
 08  5  1 13 19 30.0000000  0 11G 2G 6G 7G10G13G16G23G24G25G27G29
  22535820.792    22535820.2194   22535819.9694  118426537.165 7  92280430.40944
     -3208.934       -2500.483
  24788713.341    24788713.2714   24788716.4964  130265569.571 5 101505661.37542
      3190.008        2485.762
  23720806.230    23720806.9594   23720807.8264  124653694.621 6  97132768.42543
      2902.425        2261.659
  21574708.571    21574707.6934   21574709.7584  113375870.318 7  88344846.31745
      1670.657        1301.813
  21657088.442    21657088.5934   21657089.2574  113808761.771 8  88682169.88145
     -1440.942       -1122.809
  22528287.834    22528287.2934   22528288.3904  118386949.410 7  92249596.76844
      1011.929         788.508
  23623372.995    23623373.1554   23623372.0064  124141652.737 6  96733769.01242
     -3501.676       -2728.579
  22298769.724    22298769.3804   22298771.8734  117180854.011 7  91309751.37144
      2041.807        1591.028
  22814883.955    22814883.2824   22814885.0264  119893039.831 7  93423151.49144
      1398.723        1089.917
  24219030.258    24219029.2274   24219031.0884  127271876.858 5  99172914.89342
      2689.969        2096.065
  21892497.745    21892497.7794   21892498.8814  115045829.282 7  89646130.61445
     -1040.196        -810.536
 08  5  1 13 20  0.0000000  0 11G 2G 6G 7G10G13G16G23G24G25G27G29
  22554176.564    22554175.8034   22554175.5884  118522996.382 7  92355593.33144
     -3221.719       -2510.442
  24770522.289    24770521.7874   24770522.8514  130169970.357 6 101431168.50342
      3183.226        2480.438
  23704269.046    23704268.7794   23704270.6724  124566789.703 6  97065050.34943
      2891.181        2252.841
  21565222.640    21565222.1204   21565223.8274  113326022.074 7  88306003.53345
      1652.498        1287.663
  21665373.068    21665373.1494   21665373.7064  113852297.118 8  88716093.51745
     -1461.515       -1138.851
  22522564.734    22522564.2114   22522565.3724  118356873.399 7  92226160.94044
       992.866         773.654
  23643393.828    23643393.7174   23643392.3134  124246859.026 6  96815747.91842
     -3512.048       -2736.688
  22287154.991    22287154.8914   22287157.5764  117119819.036 7  91262191.65644
      2027.251        1579.673
  22806945.715    22806946.0394   22806946.8464  119851328.020 7  93390648.78644
      1381.978        1076.842
  24203695.989    24203696.1894   24203699.6414  127191304.034 5  99110130.86442
      2681.284        2089.318
  21898490.868    21898491.1764   21898492.0374  115077324.398 7  89670672.26645
     -1059.564        -825.643
 08  5  1 13 20 30.0000000  0 11G 2G 6G 7G10G13G16G23G24G25G27G29
  22572610.585    22572609.8344   22572609.4424  118619866.718 6  92431076.66544
     -3236.709       -2522.115
  24752372.151    24752371.2654   24752374.0844  130074590.352 6 101356846.47642
      3175.068        2474.054
  23687800.628    23687801.1914   23687802.1344  124480249.667 6  96997616.57343
      2877.872        2242.496
  21555845.704    21555845.1634   21555847.3314  113276746.868 7  88267607.27645
      1632.229        1271.869
  21673779.223    21673779.2144   21673779.8244  113896472.224 7  88750515.67445
     -1483.937       -1156.317
  22516955.447    22516955.3294   22516955.8334  118327397.561 7  92203192.75144
       971.729         757.193
  23663477.659    23663476.9384   23663477.1094  124352402.668 6  96897989.68442
     -3524.448       -2746.372
  22275629.678    22275629.3604   22275631.9554  117059252.328 7  91214996.83744
      2010.337        1566.478
  22799108.947    22799109.0004   22799110.9494  119810145.131 7  93358558.22544
      1363.133        1062.183
  24188418.986    24188417.9144   24188420.0714  127111016.385 5  99047569.14142
      2670.921        2081.202
  21904598.961    21904599.2154   21904600.1604  115109422.607 7  89695683.84845
     -1080.858        -842.234
 08  5  1 13 21  0.0000000  0 11G 2G 6G 7G10G13G16G23G24G25G27G29
  22591126.262    22591126.2234   22591125.7204  118717168.549 7  92506896.16444
     -3250.811       -2533.114
  24734267.645    24734269.1414   24734269.4054  129979455.386 6 101282715.36742
      3166.775        2467.613
  23671406.592    23671407.1974   23671409.7304  124394100.708 6  96930487.52743
      2864.925        2232.414
  21546583.035    21546582.1624   21546584.2744  113228069.816 8  88229677.12445
      1612.492        1256.482
  21682311.303    21682311.4594   21682311.8794  113941308.932 7  88785453.34445
     -1505.743       -1173.313
  22511465.804    22511464.6184   22511466.0474  118298546.889 6  92180711.71644
       951.190         741.211
  23683629.885    23683630.1174   23683629.4344  124458304.254 6  96980510.35842
     -3536.013       -2755.340
  22264198.162    22264197.8614   22264200.4394  116999179.132 7  91168186.57044
      1994.101        1553.839
  22791377.771    22791377.7684   22791379.2084  119769516.075 7  93326899.22744
      1344.852        1047.943
  24173198.729    24173198.9354   24173201.3994  127031039.220 5  98985249.35542
      2660.514        2073.138
  21910826.087    21910826.4284   21910827.3164  115142146.204 7  89721182.76045
     -1101.299        -858.157
 08  5  1 13 21 30.0000000  0 11G 2G 6G 7G10G13G16G23G24G25G27G29
  22609720.489    22609719.6634   22609719.2984  118814881.511 7  92583036.06044
     -3264.439       -2543.742
  24716209.645    24716208.3124   24716209.4934  129884549.336 6 101208762.62542
      3159.230        2461.739
  23655084.815    23655085.2544   23655086.5144  124308327.523 6  96863651.30843
      2852.288        2222.530
  21537431.119    21537430.0284   21537432.2084  113179974.781 7  88192200.46945
      1592.861        1241.171
  21690965.871    21690965.7084   21690966.4184  113986787.657 8  88820891.28045
     -1527.111       -1189.973
  22506091.524    22506090.7964   22506091.7054  118270304.434 7  92158704.60344
       930.791         725.289
  23703847.258    23703846.8214   23703845.8024  124564543.018 5  97063293.78142
     -3547.608       -2764.406
  22252857.380    22252857.3074   22252859.5794  116939583.228 7  91121748.22544
      1978.062        1541.333
  22783748.339    22783748.3094   22783749.4644  119729424.317 7  93295658.91544
      1326.860        1033.902
  24158034.725    24158035.0774   24158038.0014  126951356.621 5  98923159.07542
      2650.808        2065.522
  21917168.712    21917168.6884   21917169.7504  115175476.539 8  89747154.44845
     -1121.665        -874.044
 08  5  1 13 22  0.0000000  0 11G 2G 6G 7G10G13G16G23G24G25G27G29
  22628393.015    22628392.4024   22628391.6484  118913005.265 7  92659496.16044
     -3277.457       -2553.874
  24698192.505    24698192.4374   24698194.0874  129789877.054 6 101134992.06242
      3151.983        2456.092
  23638835.656    23638834.9714   23638836.8104  124222934.633 6  96797111.38643
      2840.515        2213.391
  21528390.134    21528389.2834   21528391.3874  113132465.264 7  88155180.07145
      1574.106        1226.588
  21699742.719    21699742.5324   21699743.2734  114032909.160 7  88856830.10145
     -1547.888       -1206.135
  22500833.537    22500832.7074   22500833.5874  118242673.603 7  92137174.10444
       910.952         709.832
  23724127.332    23724126.9394   23724126.5194  124671117.836 5  97146338.95942
     -3557.952       -2772.425
  22241608.099    22241607.9644   22241610.2534  116880468.476 7  91075684.81544
      1962.575        1529.291
  22776221.703    22776222.1964   22776223.4094  119689873.060 7  93264839.76444
      1309.642        1020.533
  24142931.779    24142930.4664   24142931.3764  126871972.698 5  98861301.52342
      2641.096        2057.996
  21923626.673    21923626.8564   21923628.0454  115209414.243 7  89773599.39545
     -1141.222        -889.263
 08  5  1 13 22 30.0000000  0 11G 2G 6G 7G10G13G16G23G24G25G27G29
  22647142.523    22647142.6824   22647142.0984  119011537.237 7  92736274.24644
     -3290.896       -2564.332
  24680221.857    24680221.3774   24680225.0714  129695441.269 6 101061405.75842
      3144.444        2450.226
  23622658.188    23622658.7644   23622659.6634  124137925.238 6  96730870.31843
      2827.386        2203.141
  21519460.901    21519460.2954   21519462.3884  113085543.322 8  88118617.54345
      1554.540        1211.349
  21708640.829    21708641.0174   21708641.5184  114079671.958 7  88893268.62445
     -1569.084       -1222.637
  22495691.699    22495691.3844   22495692.1694  118215655.909 7  92116121.38144
       890.912         694.223
  23744470.775    23744470.8314   23744470.8414  124778026.484 6  97229644.37542
     -3568.496       -2780.595
  22230451.212    22230450.8684   22230453.5174  116821837.148 7  91029998.09144
      1946.674        1516.891
  22768798.787    22768798.8714   22768800.6764  119650864.472 7  93234443.48144
      1291.456        1006.346
  24127880.519    24127882.3484   24127884.1994  126792890.043 6  98799678.68742
      2631.515        2050.553
  21930200.409    21930200.7104   21930201.6854  115243958.987 8  89800517.36545
     -1161.251        -904.853
 08  5  1 13 23  0.0000000  0 11G 2G 6G 7G10G13G16G23G24G25G27G29
  22665967.815    22665968.0234   22665967.4524  119110464.841 7  92813360.66344
     -3304.147       -2574.642
  24662294.821    24662294.9464   24662296.1764  129601234.730 6 100987998.06442
      3136.288        2443.894
  23606553.063    23606553.4904   23606555.1604  124053291.874 6  96664922.24943
      2814.683        2193.254
  21510642.335    21510641.3714   21510643.6674  113039200.350 7  88082506.15345
      1535.061        1196.176
  21717659.633    21717659.6074   21717660.1874  114127064.701 7  88930198.01845
     -1590.279       -1239.178
  22490665.577    22490664.9884   22490666.3134  118189242.157 7  92095539.24844
       870.318         678.176
  23764876.904    23764876.6614   23764876.5384  124885256.103 5  97313199.87742
     -3579.794       -2789.407
  22219384.116    22219383.9734   22219386.3734  116763680.981 7  90984681.61344
      1930.671        1504.442
  22761477.167    22761477.4444   22761478.6874  119612389.709 7  93204463.17444
      1273.557         992.395
  24112888.278    24112889.2814   24112890.5774  126714100.807 5  98738284.46442
      2621.300        2042.565
  21936887.676    21936887.7584   21936888.6834  115279099.856 7  89827899.85345
     -1181.305        -920.482
 08  5  1 13 23 30.0000000  0 11G 2G 6G 7G10G13G16G23G24G25G27G29
  22684867.542    22684868.0124   22684867.4164  119209784.805 7  92890752.72544
     -3317.443       -2585.035
  24644411.906    24644411.7194   24644414.7944  129507258.592 6 100914769.90942
      3128.431        2437.713
  23590519.360    23590519.9564   23590521.5754  123969036.787 6  96599268.95143
      2802.038        2183.360
  21501933.818    21501932.8594   21501935.3484  112993437.103 8  88046846.49745
      1515.521        1180.924
  21726797.290    21726797.6404   21726797.7054  114175084.859 7  88967616.29945
     -1611.457       -1255.687
  22485754.245    22485753.8914   22485754.9344  118163433.008 7  92075428.22844
       849.909         662.261
  23785342.291    23785342.3534   23785341.4004  124992803.412 5  97397002.95142
     -3590.529       -2797.834
  22208408.191    22208407.6144   22208410.4644  116706001.298 7  90939736.42344
      1914.442        1491.778
  22754257.399    22754257.6424   22754259.5264  119574449.560 7  93174899.44844
      1255.541         978.320
  24097951.415    24097951.0014   24097954.1904  126635606.353 5  98677119.93842
      2611.106        2034.637
  21943688.072    21943687.7784   21943688.9264  115314835.054 7  89855745.46445
     -1201.346        -936.119
 08  5  1 13 24  0.0000000  0 11G 2G 6G 7G10G13G16G23G24G25G27G29
  22703843.198    22703842.8804   22703842.3364  119309499.225 7  92968452.22844
     -3330.391       -2595.126
  24626573.798    24626573.5834   24626577.0734  129413520.441 6 100841727.20042
      3120.716        2431.693
  23574560.371    23574560.5614   23574561.6734  123885167.308 6  96533916.12443
      2789.355        2173.518
  21493336.955    21493336.2974   21493338.1664  112948260.178 8  88011643.69545
      1496.120        1165.791
  21736055.250    21736055.6724   21736056.2594  114223735.693 7  89005526.03945
     -1632.306       -1271.944
  22480958.494    22480958.2854   22480959.3954  118138234.474 7  92055793.03444
       829.726         646.539
  23805868.654    23805868.4754   23805868.3524  125100670.073 5  97481054.83041
     -3600.729       -2805.796
  22197524.140    22197523.8354   22197526.1924  116648804.684 7  90895167.65044
      1898.451        1479.321
  22747140.845    22747140.4004   22747142.1544  119537050.169 7  93145757.07444
      1237.496         964.260
  24083071.788    24083071.8024   24083073.4214  126557413.908 5  98616190.79242
      2601.279        2026.953
  21950601.835    21950601.8354   21950603.1274  115351168.440 7  89884057.18945
     -1221.075        -951.497
 08  5  1 13 24 30.0000000  0 11G 2G 6G 7G10G13G16G23G24G25G27G29
  22722896.267    22722895.7184   22722895.2594  119409620.446 6  93046468.70043
     -3343.683       -2605.474
  24608784.489    24608784.9354   24608787.2294  129320037.247 6 100768883.14842
      3112.333        2425.159
  23558677.383    23558677.1884   23558678.2684  123801700.924 6  96468877.39143
      2775.710        2162.888
  21484854.886    21484854.0064   21484856.1194  112903685.808 8  87976910.42745
      1476.178        1150.251
  21745435.822    21745436.0104   21745436.7114  114273030.373 7  89043937.46345
     -1653.381       -1288.357
  22476283.123    22476282.6174   22476283.6274  118113662.427 7  92036645.95644
       809.109         630.464
  23826457.908    23826457.4184   23826457.3824  125208868.713 6  97565365.40041
     -3611.678       -2814.325
  22186734.986    22186734.6834   22186736.6624  116592107.606 7  90850988.09545
      1881.994        1466.480
  22740129.698    22740129.6764   22740131.1854  119500207.774 7  93117048.70844
      1219.358         950.137
  24068253.545    24068252.3994   24068254.1064  126479540.451 5  98555510.18242
      2590.648        2018.679
  21957632.255    21957632.3514   21957633.3264  115388113.806 7  89912845.77445
     -1241.177        -967.157
 08  5  1 13 25  0.0000000  0 11G 2G 6G 7G10G13G16G23G24G25G27G29
  22742018.933    22742019.8364   22742019.1774  119510118.096 6  93124778.57643
     -3357.285       -2616.054
  24591038.806    24591038.5894   24591041.5584  129226783.451 6 100696217.88342
      3103.335        2418.218
  23542865.613    23542865.9644   23542866.9724  123718612.639 6  96404133.28243
      2762.191        2152.356
  21476482.214    21476481.4484   21476483.6034  112859688.349 8  87942626.69945
      1455.782        1134.363
  21754933.523    21754933.3754   21754933.9954  114322939.407 7  89082827.59745
     -1675.098       -1305.276
  22471721.244    22471720.9414   22471721.9314  118089689.877 7  92017966.01344
       787.829         613.884
  23847104.748    23847104.1344   23847104.3594  125317367.815 5  97649910.06841
     -3623.009       -2823.156
  22176036.187    22176035.7664   22176038.2534  116535884.264 7  90807177.70144
      1865.015        1453.248
  22733220.045    22733219.7394   22733221.2594  119463895.853 7  93088753.72144
      1200.213         935.204
  24053489.559    24053488.8734   24053491.8774  126401960.449 5  98495058.25742
      2579.945        2010.360
  21964773.809    21964773.7264   21964775.0224  115425642.150 7  89942088.63445
     -1261.773        -983.206
 08  5  1 13 25 30.0000000  0 11G 2G 6G 7G10G13G16G23G24G25G27G29
  22761218.998    22761218.9684   22761217.8374  119611011.783 7  93203397.04243
     -3368.958       -2625.192
  24573342.218    24573341.5124   24573344.1274  129133784.209 6 100623750.88942
      3096.543        2412.889
  23527131.634    23527131.9114   23527133.0194  123635927.071 6  96339702.95643
      2750.299        2143.098
  21468224.317    21468223.3144   21468225.4484  112816291.401 7  87908810.90245
      1437.248        1119.939
  21764551.487    21764551.6004   21764552.1324  114373483.587 8  89122212.65345
     -1694.605       -1320.477
  22467278.222    22467277.3224   22467278.6974  118066339.908 6  91999771.16544
       768.682         598.982
  23867812.006    23867812.3464   23867811.0054  125426186.940 5  97734704.13241
     -3632.079       -2830.185
  22165431.842    22165431.2414   22165433.7794  116480158.435 7  90763754.99444
      1849.793        1441.393
  22726415.691    22726415.2234   22726416.8794  119428138.054 7  93060890.52144
      1183.387         922.131
  24038787.186    24038787.7964   24038790.0694  126324698.207 5  98434853.96142
      2570.464        2002.938
  21972029.986    21972030.2454   21972031.3724  115463774.686 7  89971802.28045
     -1280.510        -997.799
 08  5  1 13 26  0.0000000  0 11G 2G 6G 7G10G13G16G23G24G25G27G29
  22780490.736    22780490.5904   22780490.4164  119712285.165 6  93282311.35743
     -3382.807       -2635.964
  24555691.573    24555690.7264   24555693.0214  129041027.810 6 100551473.23742
      3086.920        2405.410
  23511471.169    23511472.2014   23511473.1664  123553633.485 6  96275578.09243
      2735.802        2131.775
  21460078.053    21460077.1784   21460079.3734  112773482.511 8  87875453.32345
      1416.363        1103.650
  21774287.799    21774287.4804   21774288.3934  114424646.835 7  89162080.11245
     -1716.629       -1337.658
  22462950.710    22462950.1214   22462951.3784  118043600.155 7  91982051.84544
       746.825         581.939
  23888577.409    23888578.2844   23888576.4144  125535310.132 5  97819735.12741
     -3643.216       -2838.846
  22154919.924    22154919.6904   22154921.6314  116424918.004 7  90720710.51145
      1832.338        1427.764
  22719714.101    22719713.7954   22719715.5564  119392921.871 7  93033449.33544
      1163.934         906.948
  24024142.214    24024142.4214   24024144.3624  126247741.961 5  98374888.08342
      2559.270        1994.218
  21979398.669    21979398.5204   21979399.7424  115502496.370 8  90001975.00645
     -1301.308       -1014.019
 08  5  1 13 26 30.0000000  0 11G 2G 6G 7G10G13G16G23G24G25G27G29
  22799837.189    22799836.9374   22799836.9614  119813951.692 7  93361532.04943
     -3395.424       -2645.795
  24538089.831    24538090.0234   24538092.0864  128948533.472 6 100479399.79342
      3078.772        2399.039
  23495889.746    23495890.0284   23495890.5934  123471750.516 6  96211773.16243
      2722.802        2121.685
  21452046.955    21452046.1724   21452048.2574  112731279.388 7  87842567.75945
      1396.604        1088.260
  21784144.367    21784144.4724   21784144.9414  114476444.332 7  89202441.79445
     -1737.183       -1353.654
  22458742.648    22458742.2594   22458743.1924  118021487.947 7  91964821.55644
       726.501         566.101
  23909403.772    23909404.2944   23909403.2954  125644750.628 5  97905013.38441
     -3653.263       -2846.668
  22144504.017    22144503.4804   22144505.9434  116370181.223 7  90678058.48545
      1816.097        1415.127
  22713119.223    22713118.9504   22713120.8414  119358264.829 6  93006443.85744
      1145.767         892.805
  24009560.566    24009560.4904   24009562.3564  126171110.382 5  98315175.15842
      2548.916        1986.185
  21986882.165    21986882.2874   21986883.3424  115541822.606 8  90032618.82545
     -1321.006       -1029.366
 08  5  1 13 27  0.0000000  0 11G 2G 6G 7G10G13G16G23G24G25G27G29
  22819256.004    22819256.1664   22819255.3854  119915997.348 6  93441048.05943
     -3408.062       -2655.631
  24520536.742    24520536.9614   24520539.4374  128856291.645 6 100407523.11542
      3070.393        2392.518
  23480384.212    23480384.5624   23480385.8094  123390269.391 6  96148281.39343
      2708.992        2110.907
  21444129.515    21444128.5664   21444130.6654  112689672.332 8  87810146.69745
      1376.680        1072.741
  21794119.186    21794119.3574   21794119.7164  114528862.596 7  89243287.18445
     -1757.860       -1369.752
  22454652.459    22454652.1414   22454653.0324  117999992.734 7  91948072.10544
       706.122         550.225
  23930287.618    23930285.6454   23930287.3854  125754494.131 5  97990527.76941
     -3663.016       -2854.326
  22134181.292    22134181.3784   22134183.7214  116315938.451 7  90635791.39445
      1799.659        1402.336
  22706628.591    22706628.1054   22706630.2834  119324156.785 7  92979866.14644
      1127.591         878.648
  23995037.601    23995036.8594   23995040.6734  126094794.133 5  98255707.97142
      2538.407        1978.024
  21994478.249    21994478.5854   21994479.4744  115581740.665 7  90063723.80345
     -1340.749       -1044.730
 08  5  1 13 27 30.0000000  0 11G 2G 6G 7G10G13G16G23G24G25G27G29
  22838745.131    22838744.7684   22838744.8984  120018414.151 6  93520853.25743
     -3420.244       -2665.107
  24503031.101    24503031.2384   24503033.4094  128764300.018 6 100335841.42742
      3062.013        2385.942
  23464955.199    23464955.1234   23464956.3254  123309187.690 6  96085100.87143
      2695.872        2100.716
  21436324.400    21436323.7574   21436325.7274  112648657.191 7  87778186.83445
      1357.066        1057.453
  21804210.937    21804210.9854   21804211.5454  114581894.732 7  89284610.92645
     -1778.205       -1385.609
  22450678.304    22450678.2564   22450678.8864  117979110.387 7  91931800.22844
       685.794         534.378
  23951226.246    23951227.5304   23951228.2594  125864532.696 5  98076272.18341
     -3673.376       -2862.364
  22123953.042    22123952.7034   22123955.1804  116262186.233 7  90593906.55645
      1783.347        1389.626
  22700241.782    22700241.4934   22700243.1344  119290593.969 7  92953713.30144
      1109.356         864.445
  23980574.233    23980574.4554   23980576.7144  126018790.352 5  98196484.25742
      2528.039        1969.885
  22002185.780    22002185.9394   22002187.1824  115622244.336 7  90095285.08645
     -1360.125       -1059.840
 08  5  1 13 28  0.0000000  0 11G 2G 6G 7G10G13G16G23G24G25G27G29
  22858306.549    22858306.3594   22858305.4444  120121207.451 6  93600951.85543
     -3432.845       -2674.944
  24485575.061    24485575.4004   24485577.6494  128672568.464 6 100264362.30442
      3053.435        2379.309
  23449603.857    23449603.6834   23449604.8164  123228515.745 6  96022239.56543
      2682.197        2090.031
  21428633.895    21428633.2504   21428635.1204  112608243.732 8  87746695.84345
      1337.026        1041.854
  21814420.733    21814420.6724   21814421.3864  114635546.823 7  89326417.75045
     -1798.805       -1401.679
  22446823.313    22446822.8034   22446823.6854  117958849.343 7  91916012.48044
       664.877         518.080
  23972223.214    23972222.9124   23972223.2444  125974870.939 5  98162249.99641
     -3683.211       -2870.034
  22113819.217    22113818.8834   22113821.3704  116208933.845 7  90552411.19445
      1766.682        1376.620
  22693960.116    22693960.3454   22693962.0514  119257585.334 7  92927992.29844
      1091.032         850.164
  23966172.426    23966172.3604   23966175.3084  125943108.418 5  98137511.32142
      2517.051        1961.344
  22010006.337    22010006.3574   22010007.2684  115663340.221 8  90127307.85145
     -1379.840       -1075.199
 08  5  1 13 28 30.0000000  0 11G 2G 6G 7G10G13G16G23G24G25G27G29
  22877935.968    22877935.9104   22877935.5194  120224362.723 6  93681332.64443
     -3445.450       -2684.744
  24468167.181    24468167.7164   24468169.0524  128581086.826 5 100193077.88142
      3044.344        2372.179
  23434329.294    23434329.3074   23434330.0064  123148244.187 6  95959690.25443
      2668.134        2079.063
  21421056.300    21421055.1514   21421057.0904  112568420.984 8  87715665.13045
      1316.807        1026.082
  21824745.677    21824745.8984   21824746.5614  114689804.686 7  89368696.59545
     -1819.465       -1417.766
  22443083.715    22443083.1724   22443084.2064  117939198.510 7  91900700.16844
       644.027         501.842
  23993273.812    23993272.1014   23993272.7734  126085494.244 5  98248449.99341
     -3692.965       -2877.626
  22103778.721    22103778.5164   22103780.8374  116156170.815 7  90511297.15245
      1749.851        1363.530
  22687782.279    22687782.4694   22687783.8824  119225119.807 7  92902694.48744
      1072.388         835.650
  23951829.949    23951829.5164   23951832.8654  125867738.537 5  98078781.57042
      2506.151        1952.836
  22017936.534    22017936.9034   22017937.8664  115705014.542 8  90159781.35545
     -1399.681       -1090.660
 08  5  1 13 29  0.0000000  0 12G 2G 6G 7G10G13G16G21G23G24G25G27G29
  22897636.609    22897635.9784   22897636.0964  120327889.387 6  93762002.72043
     -3456.988       -2693.712
  24450808.848    24450808.8504   24450811.6094  128489870.632 5 100122000.26642
      3036.078        2365.783
  23419132.636    23419132.3004   23419134.0244  123068388.177 6  95897464.78543
      2654.852        2068.707
  21413593.277    21413592.3554   21413594.1844  112529202.927 8  87685105.60445
      1297.178        1010.785
  21835187.709    21835187.9654   21835188.4964  114744679.246 7  89411455.98744
     -1839.481       -1433.350
  22439462.633    22439462.3064   22439463.0554  117920171.181 7  91885873.69544
       623.691         485.987
  25146129.733    25146129.3464   25146130.1264  132143817.438 5 102969213.40241
      3453.305        2690.897
  24014380.807    24014380.4424   24014381.8884  126196412.292 5  98334879.61041
     -3702.169       -2884.820
  22093834.537    22093834.0034   22093836.2984  116103911.706 7  90470575.77745
      1733.448        1350.749
  22681710.459    22681710.3194   22681712.2414  119193211.385 7  92877830.78644
      1054.218         821.466
  23937549.803    23937550.5344   23937552.1284  125792695.764 6  98020306.69642
      2495.698        1944.654
  22025979.072    22025979.2154   22025980.4344  115747279.103 7  90192714.78045
     -1418.616       -1105.403
 08  5  1 13 29 30.0000000  0 12G 2G 6G 7G10G13G16G21G23G24G25G27G29
  22917405.735    22917405.7014   22917405.2244  120431777.102 6  93842954.13743
     -3469.130       -2703.194
  24433500.908    24433500.0794   24433503.1064  128398914.651 6 100051125.46442
      3027.188        2358.853
  23404014.922    23404014.5214   23404015.5664  122988942.628 6  95835559.19743
      2641.212        2058.087
  21406244.010    21406243.2524   21406245.0894  112490583.540 8  87655012.56945
      1277.207         995.229
  21845745.409    21845745.5954   21845746.4704  114800160.960 7  89454688.47945
     -1859.565       -1449.009
  22435959.623    22435959.3474   22435959.6344  117901760.422 7  91871527.65144
       603.320         470.145
  25126424.998    25126424.7294   25126424.3474  132040262.131 5 102888521.00541
      3449.749        2688.129
  24035542.357    24035542.8514   24035541.0474  126307614.682 5  98421530.81041
     -3711.294       -2891.935
  22083984.539    22083984.2444   22083986.4464  116052150.557 7  90430242.41245
      1716.968        1337.903
  22675743.440    22675742.9064   22675744.8124  119161853.468 7  92853396.05744
      1036.007         807.296
  23923330.338    23923331.1164   23923332.6714  125717974.326 5  97962082.19142
      2485.420        1936.662
  22034132.487    22034132.6124   22034133.7204  115790124.778 7  90226101.00645
     -1437.848       -1120.406
 08  5  1 13 30  0.0000000  0 12G 2G 6G 7G10G13G16G21G23G24G25G27G29
  22937243.508    22937243.7864   22937242.7544  120536026.726 6  93924187.57243
     -3481.194       -2712.590
  24416242.661    24416242.5664   24416245.0424  128308224.220 6  99980457.58542
      3018.325        2351.953
  23388975.020    23388976.4984   23388976.5764  122909913.267 6  95773977.85243
      2627.133        2047.088
  21399010.053    21399009.0414   21399010.9034  112452567.299 8  87625389.51745
      1256.908         979.406
  21856419.204    21856419.5844   21856419.7744  114856250.804 7  89498394.83145
     -1879.915       -1464.870
  22432574.174    22432573.5384   22432574.6644  117883970.289 7  91857665.20144
       582.528         453.923
  25106739.273    25106739.5754   25106739.1144  131936822.611 5 102807918.86141
      3445.680        2684.997
  24056758.853    24056758.8464   24056757.5084  126419101.606 5  98508403.75741
     -3720.588       -2899.213
  22074230.199    22074230.0254   22074232.1704  116000891.975 7  90390300.66945
      1700.049        1324.702
  22669881.616    22669881.6324   22669882.8844  119131050.463 7  92829393.73244
      1017.239         792.654
  23909173.868    23909173.8874   23909177.6704  125643579.571 5  97904112.33442
      2474.016        1927.788
  22042396.522    22042396.8264   22042397.8924  115833553.508 8  90259941.58045
     -1457.518       -1135.750
 08  5  1 13 30 30.0000000  0 12G 2G 6G 7G10G13G16G21G23G24G25G27G29
  22957150.351    22957150.3354   22957149.5524  120640636.380 6  94005701.58443
     -3493.363       -2722.094
  24399036.399    24399036.7944   24399037.5724  128217802.481 5  99909999.04542
      3009.406        2345.020
  23374016.561    23374016.8064   23374018.1664  122831303.658 6  95712723.65943
      2612.963        2036.077
  21391890.975    21391890.0174   21391891.7814  112415156.394 8  87596238.15945
      1236.502         963.505
  21867208.335    21867208.4604   21867209.4974  114912948.357 7  89542574.72145
     -1900.447       -1480.875
  22429306.857    22429306.5494   22429307.5664  117866802.463 7  91844287.65244
       561.489         437.522
  25087078.158    25087079.3244   25087080.0644  131833502.451 5 102727409.71241
      3441.561        2681.731
  24078027.264    24078024.6094   24078027.2254  126530870.993 5  98595496.75441
     -3730.400       -2906.779
  22064572.204    22064572.0454   22064574.1384  115950138.702 7  90350752.67945
      1682.912        1311.354
  22664125.727    22664125.7304   22664127.0944  119100804.342 7  92805825.35244
       998.506         778.058
  23895080.702    23895080.1034   23895082.6514  125569514.350 6  97846399.16742
      2462.967        1919.160
  22050771.703    22050771.8374   22050773.0014  115877564.826 8  90294236.11545
     -1477.155       -1151.028
 08  5  1 13 31  0.0000000  0 12G 2G 6G 7G10G13G16G21G23G24G25G27G29
  22977125.147    22977124.2544   22977124.0134  120745601.685 6  94087492.67543
     -3505.035       -2731.196
  24381881.186    24381881.0224   24381883.7364  128127651.040 5  99839751.14542
      3000.437        2338.053
  23359137.917    23359138.2814   23359138.0304  122753114.770 6  95651797.30343
      2599.260        2025.370
  21384886.924    21384885.9164   21384887.8334  112378350.570 7  87567558.30145
      1216.573         947.971
  21878112.433    21878112.5624   21878113.2114  114970249.960 7  89587225.32145
     -1920.268       -1496.333
  22426159.046    22426158.0424   22426158.9474  117850256.596 7  91831394.77844
       541.019         421.554
  25067440.182    25067441.2184   25067441.9134  131730302.006 5 102646993.85441
      3437.702        2678.663
  24099349.669    24099347.7744   24099346.6924  126642918.759 5  98682806.65041
     -3739.600       -2914.026
  22055010.422    22055010.1334   22055012.4844  115899890.773 7  90311598.47045
      1666.398        1298.488
  22658476.344    22658476.0274   22658477.7014  119071114.893 7  92782690.72644
       980.317         763.879
  23881049.537    23881048.4114   23881050.9844  125495779.398 5  97788943.33042
      2451.981        1910.667
  22059257.116    22059257.3474   22059258.3224  115922156.419 7  90328982.80645
     -1496.162       -1165.845
 08  5  1 13 31 30.0000000  0 12G 2G 6G 7G10G13G16G21G23G24G25G27G29
  22997167.017    22997166.2484   22997166.2414  120850923.795 6  94169561.85943
     -3516.714       -2740.347
  24364777.918    24364778.0874   24364780.6144  128037775.138 5  99769717.95542
      2991.335        2330.931
  23344340.110    23344340.3894   23344341.0694  122675352.713 6  95591203.48143
      2584.748        2014.041
  21377999.318    21377998.0974   21378000.1684  112342154.263 8  87539353.38745
      1196.372         932.223
  21889131.620    21889131.8664   21889132.5714  115028157.068 7  89632347.74144
     -1940.301       -1511.928
  22423129.453    22423128.7694   22423129.2054  117834336.342 7  91818989.39444
       520.350         405.453
  25047825.848    25047824.9294   25047824.0864  131627226.774 5 102566675.59941
      3433.810        2675.652
  24120723.866    24120723.4604   24120723.1204  126755245.278 5  98770333.78541
     -3749.098       -2921.331
  22045545.701    22045545.3064   22045547.5574  115850153.087 7  90272841.85045
      1649.304        1285.160
  22652933.497    22652933.1734   22652934.7294  119041986.565 7  92759993.36144
       961.586         749.299
  23867080.624    23867081.1354   23867084.0554  125422380.264 6  97731749.20842
      2440.986        1902.071
  22067853.524    22067853.6344   22067854.7144  115967329.841 7  90364182.87245
     -1515.435       -1180.864
 08  5  1 13 32  0.0000000  0 12G 2G 6G 7G10G13G16G21G23G24G25G27G29
  23017276.139    23017276.2194   23017275.1724  120956600.527 6  94251907.36343
     -3528.732       -2749.688
  24347729.192    24347728.9644   24347730.4104  127948178.148 5  99699902.11342
      2981.323        2323.102
  23329623.768    23329623.9744   23329625.3444  122598020.678 6  95530944.79843
      2570.303        2002.808
  21371227.883    21371226.6634   21371228.5914  112306569.520 8  87511625.02645
      1175.668         916.105
  21900266.909    21900266.2554   21900266.8464  115086668.585 7  89677941.13444
     -1960.736       -1527.866
  22420219.044    22420218.5824   22420219.2414  117819043.740 7  91807073.08944
       498.892         388.733
  25028236.202    25028234.6544   25028235.2684  131524279.616 6 102486457.02641
      3429.207        2672.163
  24142151.738    24142150.6764   24142149.9134  126867848.615 5  98858076.55341
     -3758.417       -2928.641
  22036178.098    22036178.1384   22036180.4664  115800928.065 7  90234484.70545
      1632.021        1271.710
  22647497.410    22647497.3344   22647498.9744  119013420.995 7  92737734.48444
       942.494         734.414
  23853178.311    23853178.1234   23853180.9764  125349319.634 6  97674818.87842
      2429.579        1893.205
  22076560.364    22076560.3334   22076561.5714  116013084.543 7  90399835.87245
     -1535.229       -1196.275
 08  5  1 13 32 30.0000000  0 12G 2G 6G 7G10G13G16G21G23G24G25G27G29
  23037450.597    23037450.0674   23037449.8094  121062614.546 6  94334515.67143
     -3540.413       -2758.774
  24330729.972    24330729.4284   24330730.6174  127858847.941 5  99630294.13342
      2972.284        2316.069
  23314988.397    23314988.4654   23314989.1284  122521106.941 6  95471012.04143
      2555.734        1991.506
  21364569.828    21364569.0304   21364570.7784  112271583.755 8  87484363.38545
      1155.302         900.244
  21911512.569    21911512.6004   21911513.0324  115145768.154 8  89723992.73844
     -1980.670       -1543.384
  22417426.189    22417425.1704   22417426.1434  117804364.861 7  91795635.03144
       478.073         372.514
  25008667.549    25008667.3474   25008668.9184  131421448.264 5 102406328.74941
      3425.023        2668.854
  24163629.530    24163629.3714   24163628.8634  126980711.534 5  98946021.68941
     -3766.809       -2935.161
  22026906.239    22026906.1314   22026908.4754  115752203.122 7  90196517.22545
      1614.822        1258.305
  22642165.954    22642165.9984   22642167.5654  118985405.064 7  92715903.91544
       923.695         719.768
  23839337.905    23839336.9184   23839339.4764  125276585.267 6  97618142.76742
      2418.080        1884.200
  22085375.073    22085374.9404   22085375.9654  116059404.898 7  90435929.65845
     -1554.464       -1211.271
 08  5  1 13 33  0.0000000  0 12G 2G 6G 7G10G13G16G21G23G24G25G27G29
  23057692.918    23057693.2204   23057693.1914  121168991.280 6  94417406.57743
     -3552.287       -2768.014
  24313787.920    24313787.0074   24313789.3494  127769814.869 5  99560917.72242
      2962.422        2308.357
  23300437.286    23300437.3154   23300438.3294  122444641.907 6  95411428.91643
      2541.196        1980.151
  21358031.788    21358030.9284   21358032.8204  112237226.139 8  87457591.23445
      1134.418         883.959
  21922875.684    21922875.7444   21922876.4134  115205481.381 7  89770522.51344
     -2000.977       -1559.205
  22414754.226    22414754.2744   22414754.8174  117790328.124 7  91784697.31744
       456.744         355.888
  24989127.709    24989126.1434   24989125.0914  131318762.403 5 102326313.79041
      3419.931        2664.907
  24185158.370    24185158.9454   24185158.2634  127093859.176 5  99034188.64341
     -3776.531       -2942.704
  22017735.229    22017734.5974   22017737.1334  115704007.617 8  90158962.29945
      1597.382        1244.719
  22636945.196    22636944.9194   22636946.4904  118957967.574 7  92694524.09444
       904.562         704.846
  23825564.134    23825564.2464   23825566.5884  125204206.989 6  97561744.11942
      2406.180        1874.938
  22094301.520    22094302.2344   22094302.9264  116106316.945 7  90472484.50045
     -1574.007       -1226.495
 08  5  1 13 33 30.0000000  0 12G 2G 6G 7G10G13G16G21G23G24G25G27G29
  23078003.439    23078002.2714   23078001.6914  121275718.397 6  94500570.45643
     -3563.646       -2776.884
  24296899.088    24296900.0434   24296902.5614  127681071.841 5  99491767.28742
      2952.412        2300.560
  23285970.320    23285970.5294   23285972.0354  122368618.523 6  95352189.93543
      2526.245        1968.509
  21351611.652    21351610.8624   21351612.5924  112203487.569 8  87431301.44645
      1113.867         867.935
  21934353.003    21934353.1444   21934354.0564  115265797.057 7  89817521.73444
     -2021.062       -1574.824
  22412203.989    22412203.7624   22412204.3564  117776924.850 7  91774253.19844
       435.652         339.463
  24969612.587    24969613.0214   24969613.9354  131216214.561 5 102246406.38541
      3415.592        2661.468
  24206742.473    24206742.5424   24206742.2854  127207279.179 5  99122567.92041
     -3785.616       -2949.795
  22008663.348    22008662.5654   22008664.9224  115656333.656 7  90121813.76145
      1579.906        1231.094
  22631832.492    22631832.0454   22631833.6654  118931100.180 7  92673588.48744
       885.468         689.981
  23811857.016    23811857.3324   23811859.9504  125132177.512 6  97505617.27742
      2394.765        1865.999
  22103339.714    22103339.8544   22103340.7514  116153810.112 7  90509492.16045
     -1593.252       -1241.506
 08  5  1 13 34  0.0000000  0 12G 2G 6G 7G10G13G16G21G23G24G25G27G29
  23098376.216    23098376.4814   23098376.1604  121382785.091 6  94583999.05343
     -3574.931       -2785.629
  24280066.356    24280066.9754   24280069.2814  127592612.889 5  99422838.24842
      2943.524        2293.675
  23271586.604    23271586.9244   23271587.9694  122293030.933 6  95293290.54343
      2511.891        1957.330
  21345307.798    21345306.9114   21345308.8834  112170361.172 8  87405488.67545
      1093.457         852.049
  21945943.280    21945943.5594   21945944.7114  115326704.398 7  89864981.97944
     -2040.598       -1590.077
  22409772.589    22409772.1134   22409773.1864  117764146.936 7  91764296.34444
       414.926         323.328
  24950123.468    24950123.2764   24950123.4964  131113798.809 5 102166601.92041
      3411.258        2658.167
  24228375.687    24228374.5524   24228375.6144  127320960.225 5  99211150.60241
     -3794.196       -2956.558
  21999689.045    21999688.5164   21999690.8314  115609174.121 7  90085066.07845
      1562.786        1217.772
  22626826.824    22626826.2724   22626827.7544  118904795.290 7  92653091.17844
       866.983         675.563
  23798216.281    23798215.9404   23798218.4284  125060490.421 6  97449757.20143
      2383.441        1857.235
  22112485.934    22112485.8104   22112487.2554  116201874.700 8  90546945.08245
     -1612.206       -1256.255
 08  5  1 13 34 30.0000000  0 12G 2G 6G 7G10G13G16G21G23G24G25G27G29
  23118811.977    23118813.1834   23118811.9734  121490179.200 6  94667682.69143
     -3585.999       -2794.242
  24263286.996    24263286.7374   24263288.5624  127504431.446 5  99354125.53442
      2934.252        2286.482
  23257284.313    23257284.6964   23257286.2474  122217872.737 6  95234725.74443
      2497.467        1946.118
  21339119.157    21339118.5074   21339120.2584  112137839.597 8  87380147.19745
      1073.352         836.385
  21957644.436    21957644.2834   21957645.2104  115388192.821 7  89912895.01644
     -2059.944       -1605.144
  22407458.371    22407457.8084   22407459.2964  117751986.259 7  91754820.42844
       394.526         307.432
  24930658.823    24930656.5114   24930659.4334  131011508.043 5 102086894.85642
      3407.135        2654.901
  24250056.157    24250055.3614   24250056.4344  127434890.655 5  99299927.52041
     -3802.472       -2962.900
  21990810.823    21990810.8694   21990813.1354  115562521.686 7  90048713.55445
      1545.976        1204.673
  22621926.424    22621926.2174   22621927.6824  118879045.069 7  92633026.09344
       848.456         661.133
  23784639.181    23784637.6924   23784641.1134  124989139.127 6  97394158.80742
      2372.147        1848.424
  22121738.850    22121739.0634   22121740.1684  116250500.384 7  90584835.20645
     -1630.746       -1270.712
 08  5  1 13 35  0.0000000  0 12G 2G 6G 7G10G13G16G21G23G24G25G27G29
  23139313.719    23139313.7254   23139312.8734  121597910.460 6  94751629.02943
     -3596.815       -2802.699
  24246561.951    24246562.0264   24246562.7694  127416542.067 5  99285640.41142
      2924.612        2278.896
  23243066.833    23243066.7954   23243068.2754  122143158.262 6  95176506.69643
      2482.761        1934.623
  21333048.322    21333047.3484   21333049.1124  112105936.264 8  87355287.48345
      1052.912         820.464
  21969457.387    21969457.6954   21969458.4214  115450272.383 7  89961268.68544
     -2079.276       -1620.219
  22405264.454    22405263.8684   22405264.6924  117740455.676 7  91745835.51644
       373.616         291.133
  24911220.005    24911219.0244   24911220.8644  130909357.121 5 102007296.75241
      3402.490        2651.319
  24271785.781    24271785.9284   24271786.4664  127549079.592 5  99388905.89741
     -3810.779       -2969.383
  21982032.728    21982032.1144   21982034.5514  115516390.093 7  90012766.86545
      1528.786        1191.262
  22617134.316    22617134.1884   22617135.6384  118853862.704 7  92613403.47344
       829.728         646.536
  23771126.490    23771126.7914   23771129.7274  124918137.652 6  97338833.00742
      2360.986        1839.717
  22131100.981    22131101.2864   22131102.2234  116299697.671 8  90623170.76345
     -1649.781       -1285.529
 08  5  1 13 35 30.0000000  0 12G 2G 6G 7G10G13G16G21G23G24G25G27G29
  23159877.566    23159877.2854   23159876.4514  121705971.807 6  94835832.60643
     -3607.745       -2811.172
  24229892.297    24229890.5074   24229892.9144  127328942.250 5  99217380.87242
      2914.951        2271.406
  23228933.071    23228933.2384   23228934.2034  122068885.628 6  95118631.93543
      2468.003        1923.131
  21327093.910    21327093.1744   21327094.9344  112074647.212 8  87330906.40345
      1032.312         804.414
  21981382.537    21981382.5124   21981383.3064  115512936.010 7  90010097.46644
     -2098.973       -1635.543
  22403188.836    22403188.6814   22403189.9374  117729551.153 7  91737338.50744
       352.616         274.772
  24891806.958    24891806.9774   24891807.6294  130807343.159 5 101927805.39341
      3397.481        2647.350
  24293563.086    24293560.1244   24293560.3804  127663519.482 5  99478079.70441
     -3818.910       -2975.727
  21973352.547    21973351.9704   21973354.3964  115470776.090 7  89977223.50245
      1511.427        1177.751
  22612449.545    22612449.3234   22612450.6574  118829244.351 7  92594220.34544
       810.806         631.809
  23757681.260    23757681.6494   23757683.7624  124847483.196 6  97283777.60642
      2348.724        1830.207
  22140570.338    22140570.6694   22140571.6664  116349460.356 8  90661946.87845
     -1668.584       -1300.179
 08  5  1 13 36  0.0000000  0 12G 2G 6G 7G10G13G16G21G23G24G25G27G29
  23180502.877    23180503.9384   23180503.2354  121814364.474 6  94920294.27443
     -3619.506       -2820.353
  24213278.299    24213278.4084   24213280.9684  127241638.868 5  99149352.29142
      2904.353        2263.136
  23214884.569    23214884.9504   23214886.1204  121995062.300 6  95061107.25943
      2452.535        1911.062
  21321258.095    21321256.9934   21321259.1194  112043978.374 8  87307008.62345
      1011.176         787.915
  21993418.442    21993418.2744   21993419.3214  115576186.428 7  90059383.49844
     -2118.864       -1651.068
  22401234.130    22401233.6954   22401234.7114  117719277.408 7  91729332.97344
       331.090         257.981
  24872420.954    24872421.0024   24872423.0724  130705472.465 5 101848425.67441
      3392.341        2643.415
  24315387.422    24315389.9594   24315386.9524  127778212.458 5  99567450.81041
     -3828.269       -2983.045
  21964772.089    21964771.4924   21964774.2884  115425685.844 7  89942088.26345
      1493.481        1163.757
  22607873.275    22607873.2644   22607874.7334  118805195.517 7  92575481.00244
       791.296         616.551
  23744304.515    23744304.1254   23744305.5324  124777182.403 6  97228997.76043
      2336.726        1820.829
  22150148.255    22150148.3504   22150149.5184  116399791.486 7  90701165.94445
     -1687.860       -1315.223
 08  5  1 13 36 30.0000000  0 12G 2G 6G 7G10G13G16G21G23G24G25G27G29
  23201193.314    23201192.5524   23201192.6404  121923083.773 6  95005010.55743
     -3629.352       -2828.073
  24196720.543    24196720.6664   24196723.7104  127154632.109 5  99081554.84042
      2895.316        2256.092
  23200922.799    23200922.4254   23200923.8914  121921687.983 6  95003932.48043
      2438.138        1899.819
  21315539.501    21315538.7144   21315540.5304  112013927.846 8  87283592.64345
       991.335         772.468
  22005565.264    22005565.2364   22005566.2074  115640018.918 7  90109123.08844
     -2137.396       -1665.498
  22399399.034    22399398.4794   22399399.3624  117709632.726 7  91721817.63144
       310.921         242.298
  24853063.608    24853061.3624   24853063.3634  130603745.107 6 101769157.66641
      3388.508        2640.375
  24337260.750    24337260.6294   24337260.6424  127893153.067 5  99657014.83041
     -3835.277       -2988.516
  21956291.098    21956290.8164   21956293.2294  115381118.313 7  89907360.33545
      1476.840        1150.803
  22603405.309    22603405.1804   22603406.6474  118781714.758 7  92557184.29844
       773.205         602.495
  23730993.461    23730993.3594   23730994.9964  124707235.075 6  97174493.38443
      2325.720        1812.254
  22159833.390    22159833.5714   22159834.5594  116450687.069 8  90740824.84845
     -1705.992       -1329.335
 08  5  1 13 37  0.0000000  0 12G 2G 6G 7G10G13G16G21G23G24G25G27G29
  23221943.876    23221943.8384   23221944.1834  122032134.684 6  95089985.27743
     -3641.090       -2837.218
  24180222.788    24180223.0284   24180224.9614  127067932.390 5  99013996.63742
      2884.148        2247.345
  23187046.322    23187046.8784   23187047.6924  121848772.997 6  94947115.61843
      2421.966        1887.217
  21309940.543    21309939.6774   21309941.4714  111984505.164 8  87260665.89245
       969.497         755.452
  22017824.218    22017824.1904   22017825.3234  115704439.350 7  90159320.81044
     -2157.958       -1681.542
  22397684.837    22397684.5284   22397685.3754  117700625.630 7  91714799.13244
       288.776         225.031
  24833733.583    24833734.7364   24833734.1334  130502170.869 5 101690008.96541
      3382.701        2635.862
  24359181.886    24359182.2764   24359180.6024  128008346.473 5  99746775.87341
     -3844.728       -2995.861
  21947911.503    21947911.0924   21947913.4554  115337082.900 7  89873047.04345
      1458.138        1136.200
  22599046.793    22599046.6194   22599047.9554  118758810.846 7  92539337.09344
       753.081         586.826
  23717752.631    23717751.8344   23717755.0514  124637651.077 6  97120272.13743
      2312.073        1801.585
  22169626.920    22169627.2144   22169628.0824  116502153.564 7  90780928.61245
     -1725.751       -1344.743
 08  5  1 13 37 30.0000000  0 12G 2G 6G 7G10G13G16G21G23G24G25G27G29
  23242757.228    23242757.6484   23242757.7494  122141512.536 6  95175214.74643
     -3651.346       -2845.249
  24163782.631    24163783.4424   24163785.3424  126981540.062 5  98946677.98742
      2874.445        2239.817
  23173259.561    23173259.4524   23173260.8314  121776318.059 6  94890657.27143
      2407.502        1875.952
  21304460.673    21304459.9404   21304461.8824  111955709.307 8  87238227.56145
       949.457         739.837
  22030194.046    22030193.9124   22030195.0984  115769443.840 7  90209973.65744
     -2176.435       -1695.938
  22396091.817    22396091.3234   22396092.4084  117692254.306 7  91708275.96644
       268.537         209.239
  24814434.698    24814433.9394   24814436.0644  130400750.394 5 101610980.06841
      3378.184        2632.429
  24381149.943    24381148.8904   24381147.7974  128123787.800 5  99836730.19141
     -3851.939       -3001.605
  21939633.174    21939632.7724   21939634.8874  115293579.515 8  89839148.29645
      1441.311        1123.107
  22594798.026    22594797.4594   22594799.2364  118736482.681 7  92521938.53144
       734.689         572.490
  23704580.610    23704579.1684   23704582.4394  124568430.165 6  97066333.78943
      2301.156        1793.118
  22179528.799    22179528.8804   22179529.9854  116554187.426 7  90821474.46745
     -1743.811       -1358.820
 08  5  1 13 38  0.0000000  0 12G 2G 6G 7G10G13G16G21G23G24G25G27G29
  23263631.186    23263629.7944   23263630.6114  122251196.869 6  95260682.98943
     -3661.415       -2853.045
  24147398.578    24147398.6394   24147400.1674  126895439.525 5  98879586.70042
      2865.001        2232.421
  23159556.080    23159556.2114   23159557.5314  121704307.449 6  94834545.10943
      2392.709        1864.440
  21299097.301    21299096.2944   21299098.3584  111927523.461 8  87216264.57345
       929.161         724.022
  22042671.451    22042671.4554   22042672.1094  115835012.126 7  90261065.81844
     -2195.139       -1710.489
  22394616.867    22394616.2454   22394616.7494  117684501.908 7  91702235.16744
       247.904         193.180
  24795160.431    24795160.5324   24795162.3854  130299467.514 6 101532058.32441
      3373.873        2628.998
  24403159.376    24403159.3064   24403160.4594  128239456.467 5  99926861.68441
     -3859.650       -3007.510
  21931452.627    21931452.1744   21931454.7654  115250591.487 7  89805651.13345
      1424.200        1109.762
  22590655.294    22590654.9624   22590656.6344  118714713.477 7  92504975.53044
       716.244         558.112
  23691473.879    23691473.5374   23691475.8874  124499556.904 6  97012666.34643
      2289.853        1784.290
  22189534.583    22189534.8364   22189535.6744  116606769.357 7  90862447.38945
     -1762.052       -1373.033
 08  5  1 13 38 30.0000000  0 12G 2G 6G 7G10G13G16G21G23G24G25G27G29
  23284565.219    23284564.3424   23284563.8084  122361206.443 6  95346404.68143
     -3672.036       -2861.329
  24131073.682    24131073.9334   24131075.8904  126809654.715 5  98812741.42142
      2854.129        2223.964
  23145942.478    23145942.6494   23145943.7794  121632765.433 6  94778798.12443
      2377.087        1852.249
  21293854.149    21293853.0354   21293854.9924  111899970.074 8  87194794.40145
       908.251         707.714
  22055259.778    22055259.7124   22055260.6604  115901163.293 7  90312612.17044
     -2214.434       -1725.547
  22393263.507    22393262.8404   22393263.7464  117677389.968 7  91696693.42744
       226.872         176.787
  24775918.261    24775918.5924   24775919.7544  130198345.988 5 101453262.38042
      3368.360        2624.673
  24425217.886    24425217.4084   24425218.6374  128355370.810 5 100017184.37641
     -3867.261       -3013.406
  21923374.875    21923374.4484   21923376.5534  115208141.473 7  89772573.21445
      1406.283        1095.788
  22586623.229    22586622.9524   22586624.5524  118693525.246 7  92488465.23944
       696.942         543.068
  23678438.116    23678437.5894   23678440.7444  124431054.409 6  96959287.81243
      2277.365        1774.561
  22199648.794    22199648.9854   22199650.1824  116659919.027 7  90903862.69145
     -1780.893       -1387.699
 08  5  1 13 39  0.0000000  0 12G 2G 6G 7G10G13G16G21G23G24G25G27G29
  23305558.915    23305558.3254   23305558.2834  122471529.286 6  95432370.40543
     -3683.101       -2869.947
  24114809.418    24114808.5814   24114810.9614  126724179.087 5  98746137.18442
      2843.283        2215.533
  23132415.524    23132415.9064   23132417.4914  121561685.084 6  94723410.88643
      2360.958        1839.702
  21288729.298    21288728.5834   21288730.4934  111873041.021 8  87173810.70845
       886.803         691.017
  22067956.759    22067956.4784   22067957.6054  115967886.187 7  90364604.02444
     -2234.035       -1740.801
  22392030.280    22392029.6814   22392030.5544  117670909.901 7  91691644.04944
       205.072         159.788
  24756705.364    24756703.9694   24756705.4194  130097378.396 5 101374586.38442
      3362.548        2620.129
  24447319.486    24447319.0184   24447318.8394  128471518.880 5 100107689.32341
     -3875.914       -3020.212
  21915397.559    21915397.2534   21915399.3394  115166221.891 7  89739908.63345
      1388.060        1081.601
  22582700.142    22582699.6954   22582701.5734  118672909.711 7  92472401.19944
       677.230         527.712
  23665472.469    23665471.9394   23665473.8784  124362915.772 6  96906192.79643
      2264.867        1764.820
  22209868.885    22209869.1294   22209870.2114  116713625.949 7  90945712.23645
     -1799.939       -1402.542
 08  5  1 13 39 30.0000000  0 12G 2G 6G 7G10G13G16G21G23G24G25G27G29
  23326613.867    23326612.4934   23326612.3574  122582171.800 6  95518585.32342
     -3693.835       -2878.262
  24098604.309    24098603.7744   24098606.8334  126639023.656 5  98679782.36342
      2832.850        2207.421
  23118979.776    23118979.8354   23118980.7774  121491077.955 6  94668392.37643
      2345.396        1827.594
  21283725.993    21283724.9264   21283727.0254  111846746.193 8  87153321.19945
       865.522         674.428
  22080763.500    22080763.7154   22080764.1734  116035188.068 7  90417047.03844
     -2253.483       -1755.991
  22390919.148    22390918.8004   22390919.2614  117665070.931 7  91687094.20244
       183.781         143.215
  24737522.742    24737522.3974   24737523.4834  129996576.661 5 101296039.62142
      3356.830        2615.696
  24469468.456    24469467.7634   24469467.9524  128587907.903 5 100198382.06441
     -3884.325       -3026.692
  21907523.327    21907523.0184   21907525.6544  115124843.145 7  89707665.47045
      1370.006        1067.531
  22578887.938    22578887.9934   22578889.2454  118652876.912 7  92456791.21644
       657.814         512.585
  23652576.695    23652575.8434   23652578.3044  124295152.078 6  96853389.94443
      2252.129        1754.863
  22220196.397    22220196.4934   22220197.3844  116767897.365 7  90988001.63545
     -1818.764       -1417.221
 08  5  1 13 40  0.0000000  0 12G 2G 6G 7G10G13G16G21G23G24G25G27G29
  23347724.226    23347724.0294   23347724.0614  122693113.147 6  95605033.17843
     -3703.992       -2886.198
  24082458.316    24082457.7224   24082459.9774  126554172.660 5  98613664.70542
      2822.266        2199.117
  23105630.974    23105630.9104   23105632.1444  121420928.220 6  94613730.27543
      2329.938        1815.535
  21278839.439    21278838.5324   21278840.6634  111821068.345 8  87133312.43745
       844.740         658.230
  22093677.106    22093676.9554   22093678.0654  116103048.667 7  90469925.39044
     -2272.093       -1770.473
  22389926.143    22389926.0304   22389927.1264  117659855.269 7  91683030.07144
       162.679         126.758
  24718368.662    24718369.5274   24718369.3654  129895924.547 5 101217609.41142
      3351.595        2611.620
  24491658.800    24491657.6024   24491659.0624  128704515.798 5 100289245.31441
     -3891.486       -3032.370
  21899749.136    21899748.9934   21899751.2874  115083988.521 7  89675830.70145
      1352.225        1053.673
  22575183.574    22575183.5364   22575184.5234  118633409.267 7  92441621.63744
       638.655         497.656
  23639749.770    23639750.4044   23639751.8054  124227747.109 6  96800866.60543
      2239.894        1745.383
  22230627.976    22230627.6854   22230628.6164  116822713.257 7  91030715.31045
     -1837.046       -1431.469
 08  5  1 13 40 30.0000000  0 12G 2G 6G 7G10G13G16G21G23G24G25G27G29
  23368894.608    23368894.0844   23368893.8314  122804360.306 6  95691719.28242
     -3713.577       -2893.709
  24066371.601    24066371.1794   24066372.8784  126469638.290 6  98547793.72942
      2812.659        2191.713
  23092371.156    23092371.3834   23092372.5414  121351248.260 6  94559434.25743
      2314.562        1803.563
  21274072.806    21274071.7944   21274074.0054  111796018.628 8  87113793.14446
       824.201         642.224
  22106698.094    22106698.0564   22106699.2694  116171474.369 7  90523244.08744
     -2290.587       -1784.870
  22389054.308    22389054.1744   22389054.7714  117655273.094 7  91679459.56844
       141.757         110.443
  24699247.114    24699246.0274   24699248.2384  129795433.783 5 101139304.89942
      3346.435        2607.599
  24513890.985    24513889.6884   24513888.7134  128821349.805 5 100380284.73141
     -3898.671       -3037.851
  21892076.203    21892076.3054   21892078.6224  115043668.973 7  89644412.88245
      1334.758        1040.056
  22571588.401    22571588.3704   22571589.5944  118614517.466 7  92426900.76244
       619.930         483.043
  23626994.751    23626994.1304   23626995.5274  124160712.575 6  96748631.89843
      2228.017        1736.121
  22241163.774    22241164.0394   22241165.0844  116878082.032 7  91073859.80445
     -1854.991       -1445.457
 08  5  1 13 41  0.0000000  0 12G 2G 6G 7G10G13G16G21G23G24G25G27G29
  23390124.690    23390124.9274   23390124.5934  122915929.093 6  95778655.98142
     -3725.040       -2902.619
  24050349.791    24050348.2664   24050351.2654  126385441.838 5  98482186.04942
      2799.845        2181.725
  23079204.612    23079204.6634   23079205.7924  121282058.766 6  94505520.38143
      2297.630        1790.371
  21269429.424    21269428.3034   21269430.5364  111771616.644 8  87094778.59445
       801.823         624.801
  22119829.839    22119830.2064   22119830.4854  116240482.373 7  90577016.56244
     -2310.823       -1800.652
  22388306.641    22388306.1134   22388306.9254  117651343.229 7  91676397.35444
       119.330          92.995
  24680159.993    24680158.0594   24680159.2344  129695125.335 5 101061142.48341
      3339.527        2602.245
  24536169.305    24536167.4534   24536169.2204  128938426.195 5 100471513.08641
     -3907.100       -3044.491
  21884509.631    21884509.4154   21884511.8274  115003904.801 7  89613427.82145
      1315.317        1024.923
  22568106.857    22568106.5794   22568108.1214  118596220.798 7  92412643.62444
       599.146         466.873
  23614312.469    23614311.6634   23614313.9294  124094069.128 6  96696701.95543
      2214.208        1725.376
  22251808.399    22251808.8194   22251809.5894  116934020.671 7  91117448.35645
     -1874.872       -1460.937
 08  5  1 13 41 30.0000000  0 12G 2G 6G 7G10G13G16G21G23G24G25G27G29
  23411414.086    23411413.3884   23411412.9754  123027800.356 6  95865828.34942
     -3733.882       -2909.515
  24034388.870    24034388.4384   24034391.0824  126301568.801 5  98416830.42742
      2789.991        2174.016
  23066129.144    23066129.5244   23066130.1704  121213345.714 6  94451977.75343
      2282.082        1778.235
  21264906.002    21264905.0604   21264906.9654  111747846.388 8  87076256.30245
       781.747         609.149
  22133068.856    22133069.0264   22133069.7364  116310053.814 7  90631228.07144
     -2328.365       -1814.315
  22387680.147    22387679.5114   22387680.3784  117648049.634 7  91673830.93044
        99.193          77.285
  24661101.514    24661101.0744   24661103.0094  129594984.750 5 100983110.89741
      3335.373        2599.047
  24558490.649    24558490.2754   24558490.3914  129055725.371 5 100562915.04341
     -3913.695       -3049.616
  21877045.681    21877045.2504   21877047.7334  114964680.857 7  89582863.71245
      1298.410        1011.735
  22564735.459    22564734.6084   22564736.6644  118578503.572 7  92398838.02344
       580.780         452.547
  23601701.805    23601701.6194   23601704.7314  124027802.167 6  96645065.38443
      2202.398        1716.158
  22262558.311    22262558.7444   22262559.5994  116990511.053 7  91161466.84645
     -1892.304       -1474.529
 08  5  1 13 42  0.0000000  0 12G 2G 6G 7G10G13G16G21G23G24G25G27G29
  23432755.861    23432756.3824   23432755.6514  123139959.940 6  95953225.45042
     -3744.181       -2917.556
  24018488.143    24018488.2304   24018491.2354  126218010.311 5  98351719.91842
      2779.194        2165.631
  23053142.034    23053142.6484   23053144.2684  121145100.130 6  94398799.38944
      2266.485        1766.095
  21260500.726    21260499.9374   21260501.9854  111724697.435 8  87058218.17746
       760.705         592.760
  22146412.401    22146412.6434   22146413.5464  116380174.964 7  90685867.93044
     -2347.174       -1828.970
  22387172.263    22387171.8314   22387172.6424  117645380.920 7  91671751.41744
        78.047          60.816
  24642075.984    24642075.9974   24642077.7774  129495002.530 5 100905202.71141
      3329.458        2594.369
  24580851.314    24580851.3144   24580851.8294  129173232.636 5 100654479.01341
     -3921.250       -3055.507
  21869682.207    21869682.1404   21869684.6434  114925986.735 8  89552712.44945
      1280.313         997.654
  22561472.011    22561471.6034   22561472.8184  118561354.823 7  92385475.38244
       561.478         437.514
  23589161.166    23589161.3404   23589163.3984  123961902.271 6  96593714.81443
      2189.797        1706.357
  22273410.725    22273410.7104   22273411.8384  117047539.899 7  91205904.90345
     -1910.521       -1488.707
 08  5  1 13 42 30.0000000  0 11G 2G 6G 7G10G13G16G21G24G25G27G29
  23454153.399    23454153.0304   23454152.9804  123252400.953 6  96040841.77142
     -3753.011       -2924.386
  24002647.348    24002646.8604   24002648.2324  126134764.638 6  98286853.19342
      2769.848        2158.291
  23040244.419    23040244.5104   23040245.3504  121077320.411 6  94345984.03144
      2251.495        1754.390
  21256213.169    21256212.3684   21256214.3964  111702166.393 8  87040661.54545
       740.653         577.137
  22159859.486    22159859.9164   22159860.7224  116450839.540 7  90740931.22944
     -2364.586       -1842.529
  22386782.273    22386781.8484   22386783.0004  117643333.309 7  91670155.87944
        57.947          45.184
  24623079.839    24623079.7134   24623081.3284  129395177.010 5 100827416.59741
      3325.094        2590.989
  21862419.449    21862419.0274   21862421.2984  114887819.633 8  89522971.85145
      1263.465         984.520
  22558316.360    22558315.9734   22558317.4434  118544771.352 7  92372553.20944
       543.219         423.290
  23576691.110    23576690.6844   23576692.8084  123896367.401 6  96542648.67143
      2178.314        1697.390
  22284364.100    22284364.3174   22284365.6434  117105101.258 7  91250757.90745
     -1927.548       -1501.980
 08  5  1 13 43  0.0000000  0 11G 2G 6G 7G10G13G16G21G24G25G27G29
  23475607.095    23475607.1044   23475605.9034  123365139.564 6  96128689.95142
     -3763.646       -2932.755
  23986869.707    23986869.5514   23986871.2114  126051853.081 5  98222246.77642
      2757.292        2148.571
  23027438.535    23027438.7394   23027440.4854  121010027.974 6  94293548.38544
      2234.382        1741.078
  21252047.156    21252046.2754   21252048.2764  111680273.225 8  87023601.92245
       718.485         559.850
  22173413.086    22173413.2224   22173413.7844  116522064.337 7  90796431.06044
     -2384.042       -1857.704
  22386514.846    22386514.1384   22386514.9954  117641926.000 7  91669059.26144
        35.841          27.933
  24604118.144    24604117.1444   24604118.3474  129295529.900 5 100749769.60141
      3317.894        2585.380
  21855260.718    21855260.4924   21855262.6464  114850200.206 8  89493658.01445
      1244.190         969.500
  22555271.865    22555271.5264   22555272.8634  118528772.816 7  92360086.83144
       522.995         407.505
  23564293.332    23564292.6594   23564295.2254  123831218.401 6  96491883.25543
      2164.569        1686.656
  22295422.394    22295422.6324   22295423.9634  117163212.661 7  91296039.51445
     -1946.978       -1517.133
 08  5  1 13 43 30.0000000  0 11G 2G 6G 7G10G13G16G21G24G25G27G29
  23497115.723    23497117.3494   23497117.5994  123478175.718 6  96216770.00642
     -3772.439       -2939.540
  23971156.209    23971156.4954   23971158.3324  125969280.467 6  98157904.47642
      2746.951        2140.484
  23014726.696    23014727.3624   23014728.3074  120943227.431 6  94241496.03744
      2218.624        1728.812
  21248003.227    21248002.1184   21248004.1704  111659021.299 8  87007041.96146
       697.919         543.840
  22187072.894    22187073.4724   22187073.7784  116593849.028 7  90852367.16444
     -2401.882       -1871.591
  22386369.477    22386368.5574   22386369.5204  117641161.847 7  91668463.83644
        15.029          11.713
  24585191.752    24585190.0854   24585191.5834  129196065.190 5 100672264.68541
      3312.443        2581.169
  21848206.784    21848206.4994   21848208.9744  114813132.139 8  89464773.80145
      1226.694         955.869
  22552338.948    22552338.8864   22552340.4924  118513362.265 7  92348078.60544
       504.110         392.825
  23551970.147    23551969.6204   23551972.4704  123766459.597 6  96441421.87743
      2152.279        1677.102
  22306585.261    22306585.5884   22306586.9564  117221874.690 7  91341750.19545
     -1964.344       -1530.652
 08  5  1 13 44  0.0000000  0 11G 2G 6G 7G10G13G16G21G24G25G27G29
  23518681.283    23518680.9824   23518681.6864  123591497.524 6  96305072.65342
     -3782.457       -2947.375
  23955506.669    23955507.0664   23955508.5454  125887040.199 6  98093821.17742
      2735.330        2131.404
  23002107.705    23002107.5864   23002109.1864  120876912.140 6  94189821.82044
      2202.205        1716.000
  21244079.322    21244078.5754   21244080.3994  111638401.962 8  86990974.95246
       676.497         527.143
  22200838.054    22200838.0854   22200838.5914  116666182.511 7  90908730.89244
     -2420.557       -1886.146
  22386344.110    22386344.0784   22386344.6894  117641031.841 7  91668362.54144
        -6.527          -5.097
  24566296.145    24566295.8524   24566296.7214  129096776.009 5 100594896.55841
      3306.638        2576.577
  21841256.526    21841256.2884   21841258.5684  114776607.587 8  89436313.12145
      1208.100         941.368
  22549516.554    22549516.7234   22549517.9854  118498531.220 7  92336521.95344
       484.406         377.450
  23539718.695    23539718.9824   23539721.3754  123702083.760 6  96391258.90243
      2139.029        1666.769
  22317851.242    22317851.3284   22317852.5464  117281076.292 7  91387881.31445
     -1982.694       -1544.966
 08  5  1 13 44 30.0000000  0 11G 2G 6G 7G10G13G16G21G24G25G27G29
  23540299.507    23540298.5104   23540299.0734  123705097.619 6  96393592.13442
     -3791.503       -2954.417
  23939919.673    23939919.6084   23939922.1194  125805129.803 5  98029994.90742
      2724.553        2122.998
  22989579.805    22989580.0854   22989581.7644  120811079.619 6  94138523.76944
      2186.033        1703.411
  21240275.353    21240274.6574   21240276.3434  111618411.893 8  86975398.29646
       655.529         510.800
  22214705.799    22214706.0064   22214706.6214  116739057.616 7  90965516.66344
     -2438.482       -1900.131
  22386439.405    22386439.0104   22386439.6134  117641531.322 7  91668751.76044
       -27.394         -21.320
  24547435.662    24547434.5864   24547435.9464  128997659.784 5 100517663.12441
      3300.635        2571.921
  21834409.011    21834408.6184   21834410.8764  114740622.891 7  89408273.10245
      1190.164         927.393
  22546803.965    22546803.9934   22546805.3464  118484275.685 7  92325413.73444
       465.387         362.639
  23527542.292    23527540.9124   23527543.6654  123638088.124 6  96341392.19443
      2126.359        1656.897
  22329218.511    22329218.5474   22329219.8304  117340811.188 7  91434427.98945
     -2000.212       -1558.601
 08  5  1 13 45  0.0000000  0 11G 2G 6G 7G10G13G16G21G24G25G27G29
  23561969.622    23561968.9614   23561969.1934  123818975.641 6  96482328.20842
     -3801.280       -2962.056
  23924395.639    23924396.1484   23924397.9254  125723553.907 6  97966429.32242
      2712.690        2113.830
  22977145.314    22977145.7844   22977146.5044  120745734.489 6  94087605.49644
      2169.144        1690.249
  21236591.552    21236590.7034   21236592.8764  111599053.903 8  86960314.17846
       633.897         493.942
  22228676.492    22228676.2284   22228677.4544  116812474.358 7  91022724.49644
     -2456.945       -1914.488
  22386654.866    22386654.2204   22386655.0634  117642662.743 7  91669633.36444
       -49.125         -38.272
  24528606.643    24528607.5064   24528607.7834  128898720.798 5 100440567.80041
      3294.354        2567.030
  21827664.808    21827664.4344   21827666.6674  114705181.703 8  89380656.59545
      1171.427         912.815
  22544201.138    22544201.1104   22544202.6114  118470598.417 7  92314756.13345
       445.367         347.030
  23515437.201    23515436.6284   23515439.8214  123574476.983 6  96291825.11243
      2113.192        1646.615
  22340686.934    22340687.3124   22340688.6244  117401080.001 7  91481390.67745
     -2018.744       -1573.036
 08  5  1 13 45 30.0000000  0 11G 2G 6G 7G10G13G16G21G24G25G27G29
  23583693.988    23583693.8864   23583693.2244  123933139.004 6  96571286.60142
     -3811.152       -2969.717
  23908938.923    23908938.1254   23908940.3964  125642325.315 5  97903134.41842
      2701.140        2104.746
  22964805.226    22964806.1204   22964806.9634  120680889.360 6  94037076.84144
      2152.435        1677.203
  21233030.417    21233029.4404   21233031.3774  111580338.761 8  86945730.98546
       612.386         477.181
  22242751.689    22242751.5194   22242752.3844  116886440.556 7  91080360.47944
     -2475.258       -1928.763
  22386992.536    22386991.9294   22386992.2894  117644436.575 7  91671015.55144
       -70.493         -54.940
  24509816.036    24509816.7734   24509815.7874  128799972.080 5 100363620.79241
      3287.575        2561.749
  21821026.051    21821025.7314   21821027.6314  114670295.530 8  89353472.57045
      1152.932         898.394
  22541710.840    22541710.7004   22541712.1244  118457510.299 7  92304557.61044
       425.633         331.662
  23503406.817    23503406.4834   23503409.3444  123511262.350 6  96242566.96543
      2099.820        1636.214
  22352258.966    22352259.2534   22352260.4594  117461891.049 7  91528775.88845
     -2036.855       -1587.173
 08  5  1 13 46  0.0000000  0 11G 2G 6G 7G10G13G16G21G24G25G27G29
  23605470.517    23605471.0954   23605471.5054  124047579.366 6  96660460.89842
     -3819.457       -2976.191
  23893547.103    23893546.6384   23893547.8434  125561440.538 6  97840107.44642
      2690.098        2096.140
  22952560.001    22952560.6164   22952561.8784  120616540.857 6  93986935.16344
      2136.520        1664.825
  21229590.147    21229589.3384   21229591.4254  111562261.616 8  86931644.92846
       591.679         461.045
  22256930.130    22256930.0104   22256930.2684  116960948.330 7  91138418.46244
     -2492.876       -1942.511
  22387450.767    22387450.3924   22387451.2354  117646847.149 7  91672893.92444
       -91.209         -71.052
  24491060.495    24491059.9414   24491060.9774  128701410.175 5 100286819.40341
      3281.771        2557.258
  21814492.060    21814491.6914   21814494.3684  114635959.882 8  89326717.52745
      1135.019         884.418
  22539331.599    22539331.1554   22539332.6104  118445006.145 7  92294814.11844
       406.748         316.952
  23491452.404    23491451.7594   23491454.7434  123448440.476 6  96193614.87243
      2087.119        1626.312
  22363932.776    22363933.1804   22363933.8864  117523236.659 7  91576577.65045
     -2054.069       -1600.572
 08  5  1 13 46 30.0000000  0 11G 2G 6G 7G10G13G16G21G24G25G27G29
  23627302.019    23627301.3064   23627300.4194  124162294.843 6  96749849.60942
     -3828.813       -2983.471
  23878221.282    23878221.2004   23878222.7464  125480902.542 6  97777350.59142
      2678.247        2086.969
  22940410.199    22940410.8354   22940412.0924  120552691.810 6  93937182.64244
      2119.678        1651.709
  21226271.878    21226270.9904   21226273.0074  111544823.513 8  86918056.80846
       570.183         444.301
  22271211.139    22271211.1694   22271211.6954  117035995.834 7  91196897.01144
     -2510.939       -1956.553
  22388030.999    22388030.5274   22388031.3974  117649895.058 7  91675268.91644
      -112.627         -87.750
  24472340.931    24472339.9084   24472342.4974  128603037.647 5 100210165.55841
      3275.457        2552.290
  21808063.437    21808062.9424   21808065.2354  114602176.779 7  89300393.04645
      1116.467         869.970
  22537063.180    22537063.0174   22537064.6044  118433087.232 7  92285526.66145
       387.188         301.690
  23479573.861    23479573.1744   23479575.9044  123386014.203 6  96144971.03543
      2073.878        1616.005
  22375708.187    22375708.1014   22375709.3094  117585115.809 7  91624795.15545
     -2071.796       -1614.381
 08  5  1 13 47  0.0000000  0 11G 2G 6G 7G10G13G16G21G24G25G27G29
  23649180.708    23649182.9064   23649182.5754  124277283.079 6  96839450.79342
     -3837.224       -2990.024
  23862961.728    23862961.1144   23862964.0204  125400714.204 6  97714866.20242
      2667.291        2078.388
  22928355.724    22928356.1484   22928357.3654  120489345.218 6  93887821.65444
      2103.354        1638.972
  21223075.326    21223074.6064   21223076.5454  111528026.023 8  86904967.87946
       549.300         428.011
  22285594.177    22285594.6954   22285595.3844  117111581.512 7  91255794.94044
     -2528.227       -1970.058
  22388732.614    22388732.2454   22388732.8994  117653580.897 7  91678140.91544
      -133.388        -103.940
  24453657.806    24453657.3034   24453657.3124  128504857.367 5 100133661.46041
      3269.541        2547.713
  21801740.410    21801739.9874   21801742.2974  114568948.164 7  89274500.62145
      1098.449         855.921
  22534906.764    22534906.6404   22534907.9474  118421754.691 7  92276696.11844
       368.143         286.840
  23467769.698    23467769.5364   23467771.9304  123323986.283 6  96096637.58643
      2060.906        1605.899
  22387584.289    22387584.7154   22387585.7864  117647527.483 7  91673427.61845
     -2089.127       -1627.909
 08  5  1 13 47 30.0000000  0 11G 2G 6G 7G10G13G16G21G24G25G27G29
  23671116.260    23671115.3524   23671114.5594  124392542.445 6  96929263.25042
     -3846.527       -2997.302
  23847769.009    23847769.9554   23847772.1194  125320879.185 6  97652657.12842
      2655.342        2069.076
  22916398.055    22916398.4234   22916399.1174  120426504.548 6  93838854.90944
      2086.298        1625.654
  21220001.103    21220000.1524   21220002.4014  111511871.069 8  86892379.61146
       527.894         411.343
  22300080.540    22300080.4144   22300081.2134  117187703.595 7  91315110.83544
     -2546.258       -1984.102
  22389555.464    22389555.4114   22389555.6344  117657906.138 7  91681511.18244
      -154.757        -120.597
  24435011.629    24435011.8054   24435012.5594  128406872.589 5 100057309.69241
      3262.662        2542.273
  21795522.605    21795522.6424   21795524.8644  114536276.056 7  89249041.85045
      1079.807         841.405
  22532862.291    22532861.8914   22532863.4454  118411010.229 7  92268323.83345
       348.483         271.549
  23456042.867    23456042.3884   23456043.9554  123262359.142 6  96048616.43943
      2047.766        1595.647
  22399562.229    22399562.0954   22399563.8264  117710470.609 7  91722474.19145
     -2106.904       -1641.747
 08  5  1 13 48  0.0000000  0 11G 2G 6G 7G10G13G16G21G24G25G27G29
  23693101.325    23693101.1574   23693099.9814  124508072.585 6  97019286.69142
     -3855.128       -3004.045
  23832645.295    23832644.9644   23832646.9784  125241402.334 5  97590727.20742
      2643.396        2059.825
  22904537.664    22904537.1784   22904538.1594  120364174.429 6  93790285.99944
      2069.524        1612.608
  21217049.587    21217048.8784   21217050.9134  111496361.779 8  86880294.47346
       506.363         394.573
  22314667.980    22314668.1164   22314668.6604  117264362.390 7  91374844.95144
     -2563.991       -1997.932
  22390500.621    22390500.1964   22390501.1534  117662873.221 7  91685381.59944
      -176.081        -137.204
  24416404.397    24416402.9004   24416404.8054  128309088.354 5  99981114.26441
      3256.093        2537.172
  21789412.399    21789411.8714   21789414.2044  114504164.025 8  89224019.50745
      1061.233         826.944
  22530930.332    22530929.9874   22530931.3974  118400856.756 7  92260412.04345
       328.817         256.232
  23444392.502    23444392.3324   23444394.9704  123201137.327 6  96000911.09543
      2034.053        1584.970
  22411641.009    22411641.3154   22411642.7274  117773945.978 7  91771935.50745
     -2124.518       -1655.451
 08  5  1 13 48 30.0000000  0 11G 2G 6G 7G10G13G16G21G24G25G27G29
  23715133.674    23715134.1024   23715135.3094  124623862.631 6  97109512.70842
     -3864.363       -3011.185
  23817587.963    23817588.6004   23817589.9294  125162277.585 6  97529071.60642
      2631.371        2050.438
  22892772.043    22892772.4304   22892773.3854  120302348.841 7  93742110.23044
      2051.914        1598.912
  21214219.839    21214219.0074   21214220.9614  111481490.320 8  86868706.34446
       484.635         377.654
  22329355.383    22329355.5294   22329356.5774  117341546.863 7  91434988.67944
     -2582.010       -2011.948
  22391566.479    22391566.1974   22391566.8094  117668473.427 7  91689745.34044
      -197.783        -154.112
  24397833.725    24397832.3724   24397833.9674  128211498.062 5  99905069.91041
      3249.144        2531.794
  21783406.554    21783406.2084   21783408.8904  114472604.817 8  89199427.91345
      1042.200         812.119
  22529108.916    22529108.4274   22529109.8254  118391286.185 7  92252954.48645
       308.782         240.609
  23432819.031    23432818.2634   23432820.3564  123140314.389 6  95953516.63543
      2020.208        1574.204
  22423819.293    22423819.6974   22423820.7224  117837943.108 7  91821803.39145
     -2142.369       -1669.363
 08  5  1 13 49  0.0000000  0 11G 2G 6G 7G10G13G16G21G24G25G27G29
  23737218.154    23737219.2394   23737218.6954  124739918.022 6  97199945.42942
     -3873.649       -3018.428
  23802601.070    23802601.1944   23802602.5674  125083515.431 5  97467698.61742
      2618.800        2040.599
  22881105.135    22881105.3304   22881106.1034  120241038.024 6  93694335.57644
      2034.625        1585.429
  21211512.753    21211512.0774   21211513.9524  111467265.467 8  86857622.09346
       462.879         360.670
  22344144.601    22344144.6494   22344145.1954  117419263.075 7  91495546.74744
     -2599.854       -2025.893
  22392754.318    22392753.8834   22392754.4344  117674714.936 7  91694608.84444
      -219.273        -170.869
  24379301.108    24379300.0034   24379301.4924  128114111.795 5  99829184.42941
      3242.197        2526.398
  21777508.143    21777507.8844   21777510.0884  114441607.982 8  89175274.54545
      1023.323         797.380
  22527400.225    22527400.1744   22527401.2514  118382307.220 7  92245957.90245
       288.960         225.140
  23421322.432    23421321.5054   23421324.1314  123079900.315 6  95906440.75243
      2006.408        1563.422
  22436098.440    22436098.4394   22436099.8944  117902468.562 7  91872082.96945
     -2160.112       -1683.216
 08  5  1 13 49 30.0000000  0 11G 2G 6G 7G10G13G16G21G24G25G27G29
  23759353.302    23759352.9194   23759353.0454  124856234.474 6  97290581.54242
     -3882.662       -3025.449
  23787682.192    23787681.1914   23787683.4814  125005116.505 6  97406608.61442
      2606.199        2030.793
  22869535.976    22869536.1724   22869537.0484  120180242.744 6  93646962.66544
      2016.749        1571.476
  21208928.756    21208927.9624   21208930.1064  111453686.112 8  86847040.80746
       440.872         343.532
  22359033.615    22359033.9934   22359034.5724  117497507.143 7  91556516.15544
     -2617.768       -2039.833
  22394064.094    22394063.2864   22394064.1914  117681596.587 7  91699971.21944
      -240.980        -187.788
  24360808.559    24360808.7254   24360808.5714  128016931.185 5  99753459.35541
      3234.833        2520.558
  21771716.715    21771716.3474   21771718.6354  114411173.051 8  89151559.02145
      1004.036         782.357
  22525804.315    22525803.8144   22525805.0844  118373918.939 7  92239421.59845
       268.718         209.358
  23409903.786    23409903.3724   23409905.4404  123019895.495 6  95859683.74443
      1992.511        1552.598
  22448477.144    22448477.2024   22448478.4644  117967518.800 7  91922771.43945
     -2178.037       -1697.176
 08  5  1 13 50  0.0000000  0 11G 2G 6G 7G10G13G16G21G24G25G27G29
  23781535.585    23781537.1004   23781536.8484  124972809.299 6  97381418.94142
     -3890.466       -3031.532
  23772831.856    23772831.9294   23772834.5284  124927083.230 6  97345803.50042
      2594.730        2021.903
  22858065.410    22858065.6444   22858066.9284  120119965.055 7  93599993.03644
      2000.229        1558.637
  21206467.766    21206466.8674   21206468.8614  111440753.135 8  86836963.18946
       420.045         327.315
  22374023.119    22374023.2964   22374024.2294  117576276.476 7  91617894.84344
     -2634.768       -2053.043
  22395495.325    22395494.3414   22395495.4124  117689118.098 7  91705832.20044
      -261.819        -204.020
  24342355.234    24342354.3884   24342356.4404  127919958.046 5  99677895.91041
      3228.814        2515.952
  21766031.970    21766031.7134   21766034.2004  114381300.983 8  89128282.09545
       985.997         768.318
  22524320.050    22524319.9294   22524321.2284  118366121.551 7  92233345.71145
       249.652         194.536
  23398562.422    23398562.4964   23398565.0594  122960301.585 6  95813246.94743
      1979.424        1542.396
  22460955.136    22460955.1714   22460956.8974  118033091.868 7  91973867.31745
     -2194.789       -1710.215
 08  5  1 13 50 30.0000000  0 11G 2G 6G 7G10G13G16G21G24G25G27G29
  23803770.000    23803770.7614   23803769.5594  125089645.266 6  97472459.96242
     -3898.683       -3037.955
  23758054.558    23758054.0584   23758056.2714  124849423.288 6  97285289.24242
      2582.358        2012.190
  22846694.595    22846694.8184   22846695.9624  120060212.386 6  93553432.52244
      1982.953        1545.158
  21204130.408    21204129.7064   21204131.7774  111428471.832 8  86827393.36046
       398.486         310.515
  22389113.085    22389113.2824   22389113.8194  117655573.681 7  91679684.86244
     -2652.061       -2066.536
  22397049.345    22397048.4214   22397049.0954  117697284.487 7  91712195.68144
      -283.043        -220.543
  24323942.170    24323940.6934   24323942.7674  127823199.433 5  99602499.64641
      3221.506        2510.238
  21760456.056    21760455.5924   21760458.0884  114351998.331 7  89105448.87845
       967.222         753.676
  22522949.742    22522949.6294   22522950.9734  118358920.899 7  92227734.83645
       230.132         179.322
  23387302.412    23387301.6944   23387304.6584  122901125.826 6  95767135.97243
      1965.416        1531.520
  22473533.439    22473533.6054   22473534.7694  118099191.148 7  92025373.24345
     -2212.184       -1723.781
 08  5  1 13 51  0.0000000  0 11G 2G 6G 7G10G13G16G21G24G25G27G29
  23826052.518    23826053.0754   23826053.1914  125206745.361 6  97563706.78242
     -3907.368       -3044.710
  23743348.302    23743348.6014   23743350.1054  124772144.640 6  97225072.12642
      2569.775        2002.444
  22835426.129    22835426.5154   22835427.2304  120000993.130 7  93507287.63944
      1965.358        1531.456
  21201918.781    21201917.9014   21201920.0704  111416848.567 8  86818336.30646
       376.803         293.608
  22404303.860    22404303.9704   22404304.3214  117735402.099 7  91741888.82744
     -2669.344       -2080.028
  22398726.772    22398726.2854   22398726.9874  117706101.377 7  91719066.04944
      -304.308        -237.130
  24305572.692    24305572.8044   24305572.4994  127726663.933 5  99527277.23741
      3214.283        2504.698
  21754989.492    21754988.9904   21754991.5824  114323271.724 8  89083064.52445
       948.181         738.838
  22521694.439    22521694.1834   22521695.8314  118352322.960 7  92222593.60245
       210.230         163.836
  23376122.618    23376122.1794   23376124.4904  122842375.714 6  95721356.67943
      1952.122        1521.150
  22486212.712    22486212.8014   22486214.2064  118165820.296 7  92077292.03945
     -2229.485       -1737.264
 08  5  1 13 51 30.0000000  0 11G 2G 6G 7G10G13G16G21G24G25G27G29
  23548590.134    23548589.8704   23548590.4304  123748667.037 6  96427541.78742
     -3915.466       -3050.997
  23428918.779    23428918.6674   23428919.6064  123119803.505 6  95937533.56542
      2557.649        1992.996
  22524461.523    22524461.5454   22524462.5024  118366863.894 7  92233940.20844
      1947.750        1517.734
  20900035.391    20900034.3834   20900036.3344  109830440.057 8  85582173.84346
       355.365         276.907
  22119798.976    22119799.1404   22119800.0904  116240318.469 7  90576888.57344
     -2686.497       -2093.372
  22100731.624    22100730.8774   22100731.3994  116140125.148 7  90498824.86244
      -325.505        -253.639
  23987447.791    23987446.7994   23987448.1474  126054907.113 5  98224609.61441
      3207.473        2499.342
  21449835.823    21449835.5204   21449837.7164  112719677.835 8  87833510.85045
       929.698         724.440
  22220756.418    22220756.1444   22220757.7844  116770884.249 7  90990303.71545
       190.543         148.453
  23065226.679    23065226.5824   23065229.0754  121208607.816 6  94448290.78543
      1937.669        1509.859
  22199195.569    22199195.8444   22199197.0834  116657536.174 7  90902005.69445
     -2246.381       -1750.424
 08  5  1 13 52  0.0000000  0 11G 2G 6G 7G10G13G16G21G24G25G27G29
  23570965.626    23570965.9244   23570966.3404  123866249.662 6  96519164.58342
     -3924.346       -3057.979
  23414352.734    23414352.1054   23414354.0384  123043257.200 6  95877886.99742
      2544.656        1982.818
  22513389.033    22513389.6224   22513390.6434  118308680.232 7  92188602.30244
      1930.002        1503.882
  20898067.056    20898066.3074   20898068.1884  109820097.170 8  85574114.47046
       333.261         259.688
  22135183.585    22135183.6384   22135184.7104  116321164.790 7  90639885.71544
     -2703.920       -2106.985
  22102649.436    22102648.9254   22102649.6914  116150205.003 7  90506679.33644
      -347.284        -270.630
  23969156.530    23969154.7404   23969157.2904  125958787.276 5  98149711.06742
      3199.538        2493.152
  21444582.054    21444581.7794   21444584.0914  112692069.630 8  87811997.96645
       910.144         709.201
  22219723.415    22219723.1564   22219724.7384  116765455.458 7  90986073.50545
       170.524         132.868
  23054203.189    23054202.6904   23054205.1874  121150677.629 6  94403150.40543
      1923.493        1498.810
  22212068.333    22212068.2534   22212069.5024  116725182.109 7  90954716.80045
     -2264.180       -1764.304
 08  5  1 13 52 30.0000000  0 11G 2G 6G 7G10G13G16G21G24G25G27G29
  23593387.165    23593387.8674   23593386.9654  123984078.854 6  96610979.47642
     -3931.435       -3063.441
  23399857.597    23399857.9344   23399859.5914  122967089.853 6  95818535.83842
      2532.811        1973.639
  22502418.261    22502418.5534   22502419.5464  118251026.787 7  92143677.55344
      1912.744        1490.466
  20896222.566    20896221.7834   20896223.6704  109810404.478 8  85566561.72846
       312.221         243.284
  22150665.956    22150665.7094   22150666.7274  116402525.264 7  90703283.46044
     -2720.602       -2119.947
  22104689.323    22104688.6894   22104689.4264  116160925.218 7  90515032.77844
      -368.160        -286.879
  23950906.594    23950905.9464   23950907.2604  125862887.489 6  98074983.98141
      3192.757        2487.857
  21439436.987    21439436.3504   21439439.0024  112665031.095 8  87790928.98845
       891.747         694.866
  22218803.437    22218803.3004   22218804.8434  116760620.840 7  90982306.27445
       151.162         117.777
  23043259.603    23043259.3024   23043261.4334  121093168.998 6  94358338.49643
      1909.734        1488.092
  22225038.777    22225039.1204   22225040.0854  116793342.453 7  91007828.73645
     -2280.624       -1777.117
 08  5  1 13 53  0.0000000  0 11G 2G 6G 7G10G13G16G21G24G25G27G29
  23615854.626    23615854.5994   23615853.6464  124102142.488 6  96702977.15342
     -3939.901       -3070.029
  23385434.821    23385434.6784   23385436.3214  122891294.211 6  95759474.30042
      2519.962        1963.621
  22491546.674    22491546.8174   22491547.9654  118193896.230 7  92099160.24544
      1895.194        1476.763
  20894500.116    20894499.2734   20894501.1774  109801352.848 8  85559508.51746
       290.621         226.455
  22166243.841    22166243.9814   22166245.0494  116484387.891 7  90767072.50544
     -2737.445       -2133.116
  22106849.386    22106849.3684   22106849.9624  116172276.233 7  90523877.73244
      -389.334        -303.371
  23932698.110    23932699.1944   23932698.9654  125767200.699 6  98000422.89942
      3185.617        2482.267
  21434398.429    21434398.0514   21434400.4104  112638553.934 8  87770297.45245
       872.743         680.057
  22217994.765    22217994.4604   22217995.8274  116756371.211 7  90978994.87045
       131.427         102.411
  23032394.527    23032394.1114   23032396.6034  121036074.333 6  94313849.17943
      1895.900        1477.321
  22238104.746    22238105.1064   22238106.5284  116862005.977 7  91061332.79245
     -2297.588       -1790.321
 08  5  1 13 53 30.0000000  0 11G 2G 6G 7G10G13G16G21G24G25G27G29
  23638369.489    23638368.7214   23638368.0584  124220454.633 5  96795168.29842
     -3947.795       -3076.198
  23371084.949    23371085.4154   23371086.7094  122815889.994 6  95700717.77742
      2507.079        1953.600
  22480777.634    22480778.3524   22480779.5204  118137307.930 7  92055065.47544
      1877.388        1462.912
  20892903.205    20892902.1434   20892904.1714  109792959.915 8  85552968.54346
       268.930         209.555
  22181920.368    22181919.9854   22181921.3224  116566767.723 7  90831264.53643
     -2754.323       -2146.220
  22109132.878    22109132.2014   22109132.9654  116184275.277 7  90533227.65944
      -410.602        -319.947
  23914534.629    23914533.7834   23914534.8334  125671746.557 6  97926043.05542
      3177.959        2476.302
  21429470.000    21429469.8824   21429472.2914  112612656.494 8  87750117.63145
       853.730         665.248
  22217300.872    22217300.5864   22217302.0314  116752724.373 7  90976153.17545
       111.599          86.967
  23021612.345    23021611.7524   23021614.1874  120979412.938 6  94269697.48143
      1881.484        1466.094
  22251269.869    22251270.0134   22251271.3224  116931187.829 7  91115240.71045
     -2314.583       -1803.562
 08  5  1 13 54  0.0000000  0 11G 2G 6G 7G10G13G16G21G24G25G27G29
  23660925.920    23660926.5954   23660925.5384  124338995.757 6  96887537.97242
     -3955.680       -3082.333
  23356808.232    23356808.6474   23356810.9284  122740861.841 6  95642254.24142
      2493.995        1943.376
  22470110.600    22470110.2524   22470111.6634  118081246.715 7  92011381.44244
      1859.387        1448.880
  20891428.183    20891427.1884   20891429.2744  109785208.916 8  85546928.78646
       247.212         192.637
  22197690.685    22197691.4474   22197691.7194  116649644.673 7  90895843.92244
     -2771.327       -2159.474
  22111536.216    22111535.8414   22111536.1494  116196904.363 7  90543068.49344
      -431.923        -336.542
  23896412.235    23896410.4374   23896411.2644  125576509.712 5  97851832.51842
      3170.250        2470.323
  21424649.151    21424648.8614   21424651.4494  112587322.358 8  87730376.74646
       834.502         650.267
  22216718.481    22216718.1544   22216719.7024  116749662.963 7  90973767.64544
        91.701          71.449
  23010909.662    23010909.4764   23010911.0334  120923169.073 6  94225871.05243
      1867.549        1455.273
  22264529.473    22264529.7634   22264531.2454  117000868.570 7  91169537.37345
     -2331.433       -1816.708
 08  5  1 13 54 30.0000000  0 11G 2G 6G 7G10G13G16G21G24G25G27G29
  23683530.317    23683531.4074   23683531.2844  124457785.009 5  96980100.99242
     -3963.960       -3088.827
  23342606.693    23342606.4994   23342609.1304  122666234.194 6  95584102.81642
      2480.637        1932.992
  22459546.663    22459547.3404   22459548.2494  118025736.365 7  91968126.61944
      1840.945        1434.517
  20890079.560    20890078.5864   20890080.7384  109778121.997 8  85541406.51146
       224.889         175.248
  22213560.297    22213560.2724   22213561.6474  116733038.007 7  90960825.72843
     -2788.321       -2172.717
  22114063.026    22114062.6084   22114063.7734  116210185.252 7  90553417.23744
      -453.602        -353.436
  23878334.544    23878333.3904   23878335.3634  125481514.544 6  97777810.34842
      3162.383        2464.218
  21419939.869    21419939.6094   21419941.9244  112562574.368 7  87711092.60445
       815.056         635.112
  22216251.054    22216250.9244   22216252.5934  116747209.182 7  90971855.60244
        71.411          55.661
  23000290.342    23000290.2514   23000292.7654  120867366.568 6  94182388.50643
      1852.540        1443.561
  22277888.278    22277888.5714   22277889.6824  117071068.207 7  91224238.37745
     -2348.747       -1830.181
 08  5  1 13 55  0.0000000  0 11G 2G 6G 7G10G13G16G21G24G25G27G29
  23706181.052    23706181.2834   23706182.2334  124576811.073 5  97072848.56342
     -3971.502       -3094.665
  23328481.064    23328480.9034   23328483.4124  122592000.636 6  95526258.50642
      2467.956        1923.083
  22449087.364    22449087.4584   22449088.0204  117970770.335 7  91925295.94844
      1822.943        1420.477
  20888855.518    20888854.7704   20888856.7284  109771690.328 8  85536394.80746
       203.441         158.534
  22229525.882    22229526.1594   22229525.9744  116816936.680 7  91026201.33843
     -2805.026       -2185.717
  22116712.549    22116712.4504   22116713.2924  116224108.789 6  90564266.73044
      -474.896        -370.053
  23860301.779    23860302.2504   23860302.5194  125386754.785 6  97703971.59842
      3154.611        2458.186
  21415340.447    21415340.3224   21415342.5874  112538404.589 8  87692259.01045
       796.037         620.303
  22215898.470    22215898.0584   22215899.4754  116745354.513 7  90970410.40345
        51.799          40.360
  22989754.659    22989754.4234   22989756.3784  120811998.560 6  94139244.65343
      1838.312        1432.456
  22291343.565    22291343.3704   22291345.1674  117141775.798 7  91279335.17245
     -2365.335       -1843.100
 08  5  1 13 55 30.0000000  0 11G 2G 6G 7G10G13G16G21G24G25G27G29
  23728875.492    23728873.2954   23728874.0444  124696062.244 5  97165771.54942
     -3978.843       -3100.400
  23314428.612    23314427.7264   23314431.2124  122518154.317 6  95468715.91842
      2454.611        1912.754
  22438729.875    22438729.8684   22438730.8314  117916341.756 7  91882884.07744
      1805.131        1406.611
  20887754.890    20887754.0244   20887756.0834  109765905.965 8  85531887.52146
       181.900         141.759
  22245585.177    22245585.3314   22245586.0334  116901328.850 7  91091961.45843
     -2821.418       -2198.467
  22119482.740    22119482.5244   22119483.5724  116238665.801 7  90575609.88044
      -496.008        -386.503
  23842313.075    23842313.6454   23842313.7284  125292223.484 5  97630310.92842
      3146.863        2452.133
  21410849.519    21410849.2584   21410851.7894  112514804.924 8  87673869.65945
       777.025         605.480
  22215657.715    22215657.4724   22215658.7054  116744090.223 7  90969425.23744
        32.106          25.024
  22979299.705    22979299.3204   22979302.1424  120757057.425 6  94096433.39543
      1824.355        1421.596
  22304893.438    22304893.4784   22304894.6474  117212980.428 7  91334819.29145
     -2381.896       -1856.006
 08  5  1 13 56  0.0000000  0 11G 2G 6G 7G10G13G16G21G24G25G27G29
  23751611.777    23751610.4674   23751610.0714  124815539.478 6  97258870.66642
     -3985.664       -3105.751
  23300450.579    23300450.4344   23300452.7354  122444701.386 6  95411479.90642
      2442.379        1903.122
  22428475.631    22428475.8414   22428477.0324  117862456.227 7  91840895.37844
      1787.706        1393.022
  20886778.012    20886777.1314   20886779.1754  109760772.726 8  85527887.61646
       160.945         125.400
  22261738.581    22261738.4254   22261739.7034  116986215.746 7  91158107.06543
     -2836.945       -2210.573
  22122373.962    22122373.6994   22122374.6814  116253859.492 7  90587449.10144
      -516.423        -402.409
  23824369.745    23824368.6024   23824368.4614  125197926.616 6  97556832.86542
      3140.008        2446.747
  21406468.287    21406467.8174   21406470.1914  112491780.158 8  87655928.27745
       758.556         591.088
  22215530.303    22215529.8884   22215531.1614  116743420.063 7  90968903.02744
        13.062          10.169
  22968926.144    22968926.4604   22968928.6804  120702548.650 6  94053959.05343
      1810.483        1410.778
  22318537.958    22318537.9814   22318539.2214  117284683.803 7  91390692.05645
     -2397.698       -1868.365
 08  5  1 13 56 30.0000000  0 12G 2G 6G 7G 8G10G13G16G21G24G25G27G29
  23774383.081    23774386.3114   23774386.4704  124935230.390 5  97352136.26642
     -3993.825       -3112.094
  23286547.168    23286545.9924   23286548.3424  122371634.372 6  95354544.61342
      2428.300        1892.209
  22418323.474    22418323.5034   22418324.5664  117809106.175 7  91799323.92944
      1768.570        1378.096
  24817185.264                                   130415199.930 4
      3627.217
  20885923.556    20885922.5584   20885924.3324  109756280.846 8  85524387.43946
       138.215         107.708
  22277984.090    22277983.9534   22277984.8204  117071585.246 7  91224628.67743
     -2854.493       -2224.271
  22125384.592    22125384.2094   22125384.9774  116269679.757 7  90599776.54944
      -538.636        -419.727
  23806468.998    23806468.3024   23806469.0244  125103857.186 6  97483532.07242
      3130.641        2439.479
  21402194.843    21402194.2294   21402196.5624  112469321.762 8  87638428.21745
       738.309         575.308
  22215513.828    22215513.8344   22215515.2554  116743334.834 7  90968836.60744
        -7.766          -6.065
  22958635.238    22958635.1174   22958636.8834  120648464.645 6  94011815.71043
      1794.984        1398.660
  22332275.030    22332275.5084   22332276.6354  117356874.159 7  91446944.25744
     -2415.351       -1882.090
 08  5  1 13 57  0.0000000  0 12G 2G 6G 7G 8G10G13G16G21G24G25G27G29
  23797200.809    23797204.9234   23797205.6224  125055147.680 5  97445578.27142
     -4000.930       -3117.573
  23272719.122    23272719.1534   23272720.6104  122298970.929 6  95297923.71242
      2415.756        1882.430
  22408276.476    22408276.8264   22408278.0414  117756309.310 7  91758183.55144
      1750.970        1364.394
  24796489.271                                   130306451.942 5
      3622.465
  20885193.644    20885192.7964   20885194.6514  109752446.356 8  85521399.49646
       117.134          91.270
  22294323.790    22294323.6264   22294324.1604  117157450.352 7  91291536.55343
     -2870.182       -2236.510
  22128517.109    22128516.9304   22128517.7364  116286141.568 7  90612603.86844
      -559.029        -435.618
  23788613.701    23788614.2994   23788614.5424  125010032.320 6  97410421.83442
      3123.758        2434.136
  21398031.712    21398031.2924   21398033.6954  112447445.861 8  87621382.05245
       719.698         560.802
  22215612.202    22215611.7634   22215613.1124  116743849.807 7  90969237.88145
       -26.911         -20.966
  22948427.533    22948427.4764   22948429.1304  120594822.492 6  93970016.63643
      1781.049        1387.800
  22346107.645    22346107.8344   22346109.1844  117429564.541 7  91503586.07845
     -2430.968       -1894.260
 08  5  1 13 57 30.0000000  0 12G 2G 6G 7G 8G10G13G16G21G24G25G27G29
  23820067.048    23820063.3434   23820065.3014  125175269.930 6  97539179.94742
     -4008.543       -3123.560
  23258965.843    23258965.7184   23258967.0434  122226694.637 6  95241604.55242
      2401.515        1871.321
  22398331.323    22398331.9244   22398332.8804  117704048.922 7  91717461.21544
      1731.941        1349.568
  24775822.551                                   130197851.425 5
      3616.515
  20884585.636    20884584.6324   20884586.6924  109749250.343 8  85518909.10846
        94.713          73.803
  22310753.010    22310753.0764   22310753.9334  117243789.251 7  91358813.62743
     -2887.204       -2249.769
  22131768.338    22131768.2134   22131768.7414  116303225.910 7  90625916.28344
      -581.036        -452.736
  23770802.986    23770802.0774   23770803.4904  124916435.701 6  97337489.41642
      3115.063        2427.318
  21393976.202    21393975.9144   21393978.2454  112426134.317 8  87604775.65245
       699.703         545.231
  22215820.689    22215820.7364   22215821.8234  116744946.359 7  90970092.36245
       -47.400         -36.930
  22938299.967    22938299.8214   22938302.7224  120541605.102 6  93928548.59143
      1765.460        1375.694
  22360031.754    22360031.9254   22360032.9374  117502734.226 7  91560601.38145
     -2448.116       -1907.620
 08  5  1 13 58  0.0000000  0 12G 2G 6G 7G 8G10G13G16G21G24G25G27G29
  23842966.163    23842965.9974   23842964.4964  125295617.964 5  97632957.63941
     -4014.924       -3128.487
  23245290.227    23245289.8404   23245292.5424  122154830.602 6  95185606.58043
      2389.032        1861.637
  22388493.414    22388494.0374   22388494.7104  117652349.463 7  91677175.94144
      1714.403        1335.923
  24755191.958    24755188.9644   24755193.5184  130089424.279 5 101368383.79541
      3611.719        2814.346
  20884103.329    20884102.3524   20884104.3284  109746716.304 8  85516934.50746
        73.735          57.467
  22327276.637    22327276.6954   22327277.8654  117330622.479 7  91426475.90343
     -2902.206       -2261.453
  22135142.456    22135141.8244   22135142.3474  116320955.457 7  90639731.48644
      -601.424        -468.615
  23753040.721    23753040.0144   23753040.9914  124823092.835 6  97264754.77042
      3107.653        2421.577
  21390032.720    21390032.2964   21390034.7354  112405411.098 8  87588627.68745
       681.221         530.820
  22216144.124    22216144.0604   22216145.7014  116746647.651 7  90971418.05444
       -66.475         -51.806
  22928259.260    22928258.2004   22928260.6884  120488836.893 6  93887430.51143
      1751.729        1364.986
  22374050.599    22374050.6204   22374052.2704  117576404.236 7  91618006.57745
     -2463.683       -1919.750
 08  5  1 13 58 30.0000000  0 12G 2G 6G 7G 8G10G13G16G21G24G25G27G29
  23865909.701    23865908.9634   23865907.9064  125416175.703 6  97726898.71841
     -4022.981       -3134.770
  23231690.766    23231691.6024   23231694.1044  122083368.444 6  95129921.76443
      2374.218        1850.049
  22378760.135    22378760.5924   22378761.4064  117601200.515 7  91637319.63544
      1694.843        1320.646
  24734586.129    24734589.0674   24734589.9714  129981160.031 5 101284022.04341
      3605.303        2809.350
  20883744.338    20883743.6564   20883745.6594  109744831.318 8  85515465.66146
        51.081          39.793
  22343892.405    22343891.9974   22343892.4334  117417934.722 7  91494511.41843
     -2919.381       -2274.880
  22138636.426    22138635.9484   22138636.5284  116339316.689 7  90654038.95144
      -623.425        -485.792
  23735324.433    23735324.1114   23735324.2204  124729992.987 6  97192209.45442
      3098.296        2414.227
  21386198.951    21386198.6334   21386201.0444  112385264.328 8  87572928.90345
       660.992         515.056
  22216580.626    22216580.5924   22216581.9454  116748940.863 7  90973204.98244
       -87.247         -68.001
  22918300.310    22918300.3054   22918302.5494  120436506.946 6  93846653.94643
      1736.008        1352.697
  22388161.802    22388162.1084   22388163.2504  117650559.615 7  91675789.98545
     -2480.702       -1933.034
 08  5  1 13 59  0.0000000  0 12G 2G 6G 7G 8G10G13G16G21G24G25G27G29
  23888885.811    23888886.4114   23888886.1634  125536930.395 5  97820993.35541
     -4028.867       -3139.392
  23218168.189    23218167.9434   23218169.7054  122012299.814 6  95074543.58642
      2362.030        1840.601
  22369130.493    22369130.4384   22369131.0794  117550593.430 7  91597885.58644
      1677.500        1307.131
  24714011.553    24714016.9454   24714017.1494  129873051.070 5 101199781.24241
      3601.007        2805.944
  20883507.255    20883506.5604   20883508.6424  109743585.306 8  85514494.69746
        30.475          23.743
  22360595.563    22360595.6644   22360596.7564  117505712.900 7  91562910.00443
     -2934.218       -2286.409
  22142248.523    22142248.1774   22142248.9724  116358298.668 7  90668830.09144
      -643.505        -501.436
  23717651.865    23717652.0294   23717653.3644  124637127.774 6  97119846.97842
      3091.131        2408.675
  21382473.297    21382472.4694   21382475.0964  112365684.188 8  87557671.64545
       642.800         500.871
  22217127.554    22217127.7824   22217128.8324  116751815.600 7  90975445.05544
      -105.843         -82.487
  22908424.733    22908424.3734   22908426.5514  120384606.588 6  93806212.10543
      1722.382        1342.129
  22402363.083    22402363.3264   22402364.3924  117725187.434 7  91733941.51144
     -2495.792       -1944.768
 08  5  1 13 59 30.0000000  0 12G 2G 6G 7G 8G10G13G16G21G24G25G27G29
  23911907.208    23911905.9734   23911907.0484  125657901.790 5  97915256.77041
     -4036.490       -3145.294
  23204723.862    23204723.5364   23204725.4944  121941649.850 6  95019491.63042
      2347.677        1829.356
  22359608.026    22359607.9094   22359609.1844  117500552.710 7  91558892.81544
      1658.206        1292.085
  24693475.892    24693477.3954   24693481.7184  129765123.203 5 101115681.69041
      3594.357        2800.758
  20883396.295    20883395.5354   20883397.6174  109743001.394 8  85514039.67546
         8.028           6.249
  22377391.438    22377391.7874   22377392.3934  117593976.847 7  91631687.10643
     -2950.524       -2299.124
  22145983.068    22145982.8304   22145983.2904  116377923.617 7  90684122.26544
      -665.337        -518.463
  23700030.724    23700030.1504   23700030.6584  124544522.441 6  97047687.02142
      3082.115        2401.630
  21378859.309    21378858.9364   21378861.1424  112346694.228 8  87542874.26645
       622.680         485.198
  22217790.041    22217789.9884   22217791.3544  116755294.632 7  90978155.97644
      -126.464         -98.537
  22898634.690    22898634.0434   22898636.5434  120333160.186 6  93766123.99843
      1706.986        1330.120
  22416658.625    22416658.5774   22416659.5194  117800308.334 7  91792477.25345
     -2512.798       -1958.047
 08  5  1 14  0  0.0000000  0 12G 2G 6G 7G 8G10G13G16G21G24G25G27G29
  23934964.509    23934963.6784   23934962.1864  125779069.422 5  98009673.14541
     -4042.119       -3149.696
  23191355.875    23191355.7164   23191357.0854  121871402.706 6  94964753.59542
      2334.811        1819.341
  22350189.702    22350190.1204   22350190.9744  117451062.402 7  91520328.96144
      1640.534        1278.345
  24672967.468    24672971.3574   24672977.0474  129657360.895 5 101031711.02441
      3589.088        2796.739
  20883407.848    20883406.8734   20883409.0634  109743061.517 8  85514086.49745
       -12.709          -9.880
  22394276.303    22394276.6444   22394276.9714  117682706.054 7  91700826.72143
     -2965.321       -2310.640
  22149836.371    22149836.1834   22149836.5154  116398172.980 7  90699900.98044
      -685.364        -534.037
  23682455.300    23682453.9134   23682454.0314  124452161.358 6  96975717.34042
      3074.401        2395.645
  21375354.646    21375354.5394   21375356.5864  112328277.504 8  87528523.57345
       604.334         470.922
  22218563.830    22218563.2924   22218564.6264  116759359.985 7  90981323.75945
      -145.327        -113.225
  22888927.393    22888927.7294   22888929.5714  120282151.424 6  93726376.93244
      1693.007        1319.260
  22431043.452    22431043.5084   22431044.7864  117875902.350 7  91851381.64744
     -2527.643       -1969.577
 08  5  1 14  0 30.0000000  0 12G 2G 6G 7G 8G10G13G16G21G24G25G27G29
  23958061.089    23958059.7784   23958058.4604  125900442.380 6  98104249.50141
     -4049.565       -3155.564
  23178067.455    23178067.6214   23178068.2654  121801572.450 6  94910340.42542
      2320.025        1807.839
  22340879.722    22340880.0394   22340880.4104  117402136.508 7  91482204.88444
      1620.611        1262.796
  24652501.900    24652499.7214   24652501.7724  129549778.833 5 100947880.89841
      3582.302        2791.430
  20883544.172    20883543.1994   20883545.3034  109743777.382 8  85514644.32246
       -35.443         -27.614
  22411250.947    22411251.3294   22411251.8774  117771909.702 7  91770336.03543
     -2981.980       -2323.619
  22153810.643    22153810.4924   22153811.0524  116419057.817 7  90716174.86544
      -707.536        -551.337
  23664927.655    23664927.7204   23664928.0644  124360058.483 6  96903948.91842
      3065.072        2388.390
  21371961.748    21371961.2314   21371963.5204  112310446.445 8  87514629.24246
       583.928         455.008
  22219451.106    22219450.7214   22219451.9404  116764023.451 7  90984957.63244
      -166.100        -129.433
  22879307.310    22879306.7324   22879309.2064  120231593.552 6  93686981.23044
      1676.992        1306.745
  22445520.402    22445520.3784   22445521.5514  117951979.212 7  91910662.32144
     -2544.677       -1982.872
 08  5  1 14  1  0.0000000  0 12G 2G 6G 7G 8G10G13G16G21G24G25G27G29
  23981196.128    23981195.5614   23981195.3694  126022017.398 6  98198983.27641
     -4055.416       -3160.079
  23164858.540    23164859.2084   23164860.4254  121732160.877 6  94856253.50842
      2307.281        1797.889
  22331676.887    22331677.1194   22331677.9314  117353776.261 7  91444521.58244
      1602.921        1249.025
  24632060.726    24632061.9574   24632064.9364  129442379.187 5 100864192.95441
      3577.585        2787.700
  20883805.026    20883804.1854   20883806.1414  109745148.637 8  85515712.80446
       -56.345         -43.903
  22428315.513    22428316.2734   22428316.5324  117861584.513 7  91840212.52943
     -2996.702       -2335.079
  22157905.514    22157904.9554   22157906.1594  116440577.079 7  90732943.09744
      -727.446        -566.822
  23647450.514    23647450.6424   23647451.5384  124268215.992 6  96832383.38242
      3057.431        2382.411
  21368679.763    21368679.7014   21368682.0574  112293201.175 8  87501191.36745
       565.451         440.626
  22220452.104    22220452.1604   22220453.0494  116769284.435 7  90989057.11945
      -185.002        -144.167
  22869771.998    22869771.9274   22869774.3584  120181487.651 7  93647937.68444
      1663.078        1295.901
  22460088.254    22460088.8644   22460090.2314  118028536.244 7  91970317.10944
     -2559.470       -1994.393
 08  5  1 14  1 30.0000000  0 12G 2G 6G 7G 8G10G13G16G21G24G25G27G29
  24004370.912    24004367.3834   24004369.9184  126143792.214 5  98293872.66941
     -4062.156       -3165.332
  23151730.491    23151730.1174   23151731.6864  121663170.176 6  94802494.52042
      2292.527        1786.387
  22322582.556    22322582.5924   22322583.2704  117305983.766 7  91407280.70744
      1583.685        1234.043
  24611663.073    24611658.7994   24611659.6274  129335165.725 5 100780650.11241
      3570.719        2782.282
  20884190.643    20884189.9174   20884191.9614  109747175.565 8  85517292.19546
       -78.493         -61.170
  22445469.278    22445470.4034   22445470.7404  117951728.282 7  91910454.40143
     -3012.604       -2347.477
  22162121.084    22162121.2164   22162121.6814  116462730.593 7  90750205.57444
      -748.957        -583.622
  23630023.985    23630022.5674   23630023.3054  124176636.178 6  96761022.54542
      3048.539        2375.476
  21365509.926    21365509.4894   21365511.6774  112276542.787 8  87488210.81145
       545.438         425.000
  22221566.994    22221567.0234   22221567.8504  116775143.203 7  90993622.39845
      -205.276        -159.958
  22860323.849    22860323.5924   22860326.0134  120131835.867 6  93609247.96044
      1647.436        1283.720
  22474748.016    22474747.9444   22474749.1494  118105571.260 7  92030344.33944
     -2575.799       -2007.125
 08  5  1 14  2  0.0000000  0 12G 2G 6G 7G 8G10G13G16G21G24G25G27G29
  24027578.433    24027576.2624   24027575.2204  126265755.037 5  98388908.62141
     -4068.618       -3170.373
  23138680.402    23138680.6564   23138683.0924  121594593.811 6  94749058.41742
      2278.999        1775.850
  22313594.355    22313594.5034   22313595.6094  117258751.806 7  91370476.59244
      1565.028        1219.503
  24591288.984    24591291.9334   24591292.2684  129228131.615 5 100697247.00841
      3564.294        2777.477
  20884699.470    20884698.7404   20884700.6454  109749848.983 8  85519375.34746
       -99.951         -77.871
  22462710.170    22462710.2724   22462711.7264  118042329.311 6  91981052.57543
     -3027.613       -2359.174
  22166455.907    22166455.2844   22166456.2114  116485508.761 7  90767954.79344
      -769.717        -599.753
  23612645.764    23612644.6604   23612646.1644  124085312.140 6  96689860.99042
      3040.109        2368.937
  21362449.917    21362449.6884   21362452.2224  112260462.963 8  87475681.08246
       526.280         410.091
  22222793.545    22222793.6224   22222794.9744  116781590.712 7  90998646.44845
      -224.742        -175.113
  22850960.451    22850960.2184   22850962.1244  120082630.708 6  93570906.28844
      1632.862        1272.341
  22489496.090    22489496.2204   22489497.5704  118183073.129 7  92090735.38444
     -2591.175       -2019.090
 08  5  1 14  2 30.0000000  0 12G 2G 6G 7G 8G10G13G16G21G24G25G27G29
  24050822.495    24050817.4894   24050819.1344  126387893.362 5  98484081.30841
     -4074.772       -3175.150
  23125708.059    23125707.6534   23125710.5224  121526423.836 6  94695938.98342
      2264.910        1764.842
  22304712.297    22304712.0824   22304712.7254  117212072.312 7  91334102.97844
      1546.269        1204.892
  24570957.285    24570956.6914   24570958.4244  129121269.526 5 100613977.98241
      3558.905        2773.227
  20885329.485    20885328.5884   20885330.8174  109753159.130 7  85521954.63146
      -121.613         -94.760
  22480035.223    22480035.9634   22480036.2034  118133374.563 6  92051996.90443
     -3042.937       -2371.144
  22170907.245    22170906.5104   22170907.5864  116508900.787 7  90786182.36144
      -790.394        -615.875
  23595314.765    23595313.3204   23595313.9534  123994236.093 6  96618892.66442
      3031.309        2362.037
  21359498.569    21359498.2214   21359500.4824  112244952.373 8  87463594.90845
       506.825         394.937
  22224130.859    22224130.7574   22224131.8324  116788616.683 7  91004121.24145
      -244.419        -190.459
  22841680.566    22841680.0844   22841681.8284  120033863.904 6  93532906.21944
      1617.550        1260.422
  22504330.626    22504330.8264   22504332.0714  118261029.379 7  92151480.48644
     -2606.727       -2031.186
 08  5  1 14  3  0.0000000  0 12G 2G 6G 7G 8G10G13G16G21G24G25G27G29
  24074098.701    24074096.6344   24074096.8804  126510216.615 5  98579398.07141
     -4080.417       -3179.534
  23112816.448    23112816.2214   23112818.3434  121458674.310 6  94643147.15242
      2251.440        1754.367
  22295936.721    22295936.9444   22295937.6284  117165958.964 7  91298170.49944
      1527.925        1190.589
  24550655.711    24550655.7714   24550659.0584  129014594.150 5 100530854.31441
      3552.552        2768.215
  20886082.626    20886081.9744   20886083.9574  109757117.640 8  85525039.10046
      -142.692        -111.189
  22497447.468    22497447.8154   22497448.7194  118224873.769 6  92123294.97643
     -3057.401       -2382.433
  22175477.389    22175477.1354   22175478.0044  116532917.880 7  90804896.97744
      -810.910        -631.882
  23578032.553    23578033.0464   23578034.2844  123903422.555 6  96548128.90042
      3022.788        2355.437
  21356657.610    21356657.2884   21356659.6394  112230023.512 8  87451962.02746
       488.011         380.267
  22225580.257    22225579.9884   22225581.3514  116796233.328 7  91010056.35444
      -263.605        -205.411
  22832486.145    22832485.8594   22832488.1134  119985548.828 6  93495258.10144
      1603.000        1249.072
  22519253.264    22519253.7684   22519254.9584  118339450.145 7  92212587.55844
     -2621.653       -2042.838
 08  5  1 14  3 30.0000000  0 12G 2G 6G 7G 8G10G13G16G21G24G25G27G29
  24097405.545    24097407.9914   24097409.8044  126632725.600 5  98674859.53241
     -4087.375       -3184.969
  23100004.746    23100005.0794   23100006.9954  121391351.126 6  94590687.55543
      2236.633        1742.819
  22287269.836    22287270.6644   22287271.6174  117120417.359 7  91262683.53344
      1508.181        1175.216
  24530393.338    24530392.5414   24530393.5034  128908111.923 5 100447881.15441
      3545.557        2762.758
  20886960.005    20886959.3994   20886961.5324  109761728.310 8  85528631.76246
      -164.887        -128.470
  22514946.220    22514946.1634   22514946.8694  118316827.869 6  92194947.50143
     -3073.004       -2394.575
  22180167.074    22180166.9304   22180167.5874  116557563.062 7  90824101.00344
      -832.267        -648.507
  23560802.696    23560802.3364   23560802.5844  123812877.465 6  96477574.30642
      3013.387        2348.038
  21353928.246    21353928.0074   21353930.2514  112215680.816 8  87440785.90946
       468.026         364.698
  22227142.834    22227142.6784   22227143.7644  116804443.808 7  91016454.14845
      -283.991        -221.296
  22823379.015    22823378.9384   22823381.1054  119937690.793 6  93457966.12244
      1587.244        1236.850
  22534265.369    22534265.2584   22534266.1914  118418336.554 7  92274057.46044
     -2637.539       -2055.219
 08  5  1 14  4  0.0000000  0 12G 2G 6G 7G 8G10G13G16G21G24G25G27G29
  24120755.863    24120755.2824   24120757.0014  126755409.294 5  98770457.19141
     -4092.791       -3189.209
  23087273.501    23087273.7184   23087275.7234  121324448.296 6  94538555.51842
      2222.694        1731.961
  22278711.460    22278711.6884   22278712.6584  117075440.764 7  91227636.87644
      1489.444        1160.604
  24510167.200    24510166.3234   24510168.9524  128801817.332 5 100365054.28041
      3539.680        2758.219
  20887960.198    20887959.2454   20887961.4364  109766983.116 8  85532726.42946
      -186.300        -145.157
  22532528.539    22532527.9704   22532529.4704  118409225.673 6  92266945.78843
     -3087.677       -2405.957
  22184974.729    22184974.7854   22184975.6754  116582827.098 7  90843787.26844
      -852.843        -664.555
  23543622.190    23543621.5814   23543621.9744  123722594.547 6  96407224.01542
      3004.612        2341.217
  21351308.690    21351308.6524   21351311.2204  112201916.457 8  87430060.42546
       448.737         349.684
  22228816.129    22228816.2184   22228817.6354  116813239.611 7  91023308.04644
      -303.345        -236.360
  22814358.123    22814357.5884   22814359.7524  119890282.955 6  93421024.96844
      1572.400        1225.273
  22549363.581    22549363.5164   22549364.4044  118497677.754 7  92335881.75244
     -2652.705       -2067.029
 08  5  1 14  4 30.0000000  0 12G 2G 6G 7G 8G10G13G16G21G24G25G27G29
  24144131.963    24144133.3524   24144131.2064  126878261.428 5  98866186.02541
     -4098.479       -3193.640
  23074622.327    23074622.0874   23074624.4194  121257964.459 6  94486749.98443
      2208.844        1721.126
  22270259.495    22270259.9254   22270260.7514  117031027.579 7  91193029.22244
      1470.791        1146.068
  24489975.315    24489973.8094   24489980.7054  128695709.651 5 100282373.04541
      3533.165        2753.146
  20889081.953    20889081.1084   20889083.2224  109772878.119 8  85537319.92246
      -207.518        -161.721
  22550194.447    22550193.9564   22550195.2154  118502060.907 6  92339284.89743
     -3102.055       -2417.188
  22189899.447    22189898.9174   22189899.6284  116608705.706 7  90863952.40444
      -873.266        -680.474
  23526491.842    23526491.4324   23526491.3414  123632572.835 6  96337077.26542
      2995.915        2334.485
  21348799.387    21348798.9874   21348801.2984  112188727.737 8  87419783.50345
       429.751         334.862
  22230601.024    22230600.8764   22230602.0834  116822617.284 7  91030615.35545
      -322.559        -251.355
  22805421.103    22805421.1804   22805423.2694  119843323.384 7  93384433.06944
      1557.427        1213.568
  22564547.392    22564547.5614   22564548.0234  118577468.595 7  92398056.42344
     -2667.411       -2078.521
 08  5  1 14  5  0.0000000  0 12G 2G 6G 7G 8G10G13G16G21G24G25G27G29
  24167545.491    24167543.4434   24167542.4304  127001287.992 5  98962050.78641
     -4103.979       -3197.881
  23062052.241    23062052.8444   23062053.9544  121191909.505 6  94435278.61043
      2194.666        1710.123
  22261917.381    22261917.4634   22261918.4914  116987187.386 7  91158868.03544
      1451.830        1131.302
  24469820.899    24469821.0294   24469822.2564  128589799.534 5 100199845.77241
      3526.940        2748.245
  20890327.038    20890326.1784   20890328.4354  109779421.483 8  85542418.68046
      -228.960        -178.419
  22567944.289    22567944.6834   22567945.9154  118595338.627 7  92411968.80243
     -3116.666       -2428.582
  22194942.591    22194941.7674   22194942.7504  116635206.116 7  90884602.06344
      -893.713        -696.398
  23509412.417    23509412.1274   23509413.4654  123542822.484 6  96267141.91842
      2986.840        2327.429
  21346400.682    21346400.4124   21346402.9144  112176123.066 8  87409961.68946
       410.372         319.762
  22232497.335    22232497.4064   22232498.6474  116832584.237 7  91038381.80945
      -342.089        -266.572
  22796572.857    22796572.3604   22796574.3474  119796821.728 7  93348198.04044
      1542.482        1201.947
  22579817.445    22579817.7084   22579818.4064  118657714.393 7  92460585.59944
     -2682.423       -2090.212
 08  5  1 14  5 30.0000000  0 12G 2G 6G 7G 8G10G13G16G21G24G25G27G29
  24190985.323    24190988.6914   24190988.3284  127124478.989 5  99058043.72041
     -4109.511       -3202.294
  23049562.980    23049562.8314   23049564.8714  121126278.983 6  94384137.99442
      2180.073        1698.763
  22253682.963    22253683.5214   22253684.0774  116943915.122 7  91125149.38744
      1432.311        1116.085
  24449705.040    24449702.7274   24449705.9124  128484083.283 5 100117469.57641
      3520.250        2743.049
  20891694.304    20891693.4724   20891695.3444  109786605.970 8  85548016.93246
      -250.767        -195.402
  22585777.371    22585776.9894   22585778.1434  118689049.506 6  92484990.23243
     -3131.470       -2440.135
  22200102.377    22200101.9254   22200102.4194  116662320.952 7  90905730.51544
      -914.635        -712.724
  23492384.558    23492384.0924   23492385.3774  123453339.189 6  96197414.71642
      2977.608        2320.218
  21344112.038    21344111.7234   21344114.1804  112164096.259 8  87400590.14946
       390.662         304.415
  22234505.045    22234504.9194   22234506.0564  116843133.830 7  91046602.25245
      -362.008        -282.079
  22787810.016    22787809.7434   22787811.8464  119750772.689 6  93312315.68744
      1526.652        1189.594
  22595172.986    22595173.0194   22595173.4114  118738406.154 7  92523462.28144
     -2697.674       -2102.085
 08  5  1 14  6  0.0000000  0 12G 2G 6G 7G 8G10G13G16G21G24G25G27G29
  24214461.756    24214463.0544   24214463.9814  127247852.576 5  99154178.89541
     -4115.097       -3206.576
  23037159.269    23037158.9084   23037160.7924  121061095.339 6  94333345.55942
      2165.544        1687.464
  22245560.630    22245560.9114   22245562.0214  116901233.017 7  91091890.60444
      1413.288        1101.271
  24429630.444    24429628.3994   24429630.2044  128378584.195 5 100035262.56441
      3513.188        2737.533
  20893187.499    20893186.4534   20893188.7214  109794451.810 8  85554130.51146
      -272.150        -212.067
  22603695.365    22603696.0204   22603696.4464  118783211.269 6  92558363.01843
     -3145.781       -2451.270
  22205382.308    22205382.0634   22205382.7824  116690069.568 7  90927352.81144
      -935.165        -728.693
  23475411.583    23475411.3874   23475411.7094  123364145.431 6  96127913.12042
      2968.677        2313.271
  21341937.400    21341937.1634   21341939.3744  112152668.371 8  87391685.30446
       371.262         289.284
  22236627.087    22236627.1874   22236628.5154  116854286.203 7  91055292.43545
      -381.481        -297.255
  22779136.796    22779137.0174   22779139.0884  119705198.150 7  93276803.09444
      1511.714        1177.969
  22610615.633    22610616.1294   22610617.3694  118819562.211 7  92586700.75344
     -2712.737       -2113.829
 08  5  1 14  6 30.0000000  0 12G 2G 6G 7G 8G10G13G16G21G24G25G27G29
  24237972.503    24237971.7974   24237973.1804  127371389.557 5  99250441.45641
     -4120.874       -3211.052
  23024837.818    23024837.7554   23024839.0474  120996344.361 6  94282890.26642
      2150.871        1676.015
  22237548.300    22237548.5824   22237549.1244  116859126.374 7  91059080.22144
      1393.668        1085.983
  24409590.800    24409590.0514   24409593.4134  128273288.283 5  99953213.77541
      3506.434        2732.309
  20894802.938    20894802.2834   20894804.4704  109802942.272 8  85560746.44346
      -293.999        -229.089
  22621696.352    22621696.0114   22621697.8274  118877804.981 6  92632072.36643
     -3160.487       -2462.688
  22210780.093    22210779.9354   22210780.4524  116718434.698 7  90949455.50044
      -955.948        -744.890
  23458490.687    23458490.7114   23458490.7744  123275226.969 6  96058626.04742
      2959.119        2305.771
  21339873.724    21339873.3394   21339875.7374  112141823.238 8  87383234.56046
       351.601         273.983
  22238860.941    22238860.8384   22238862.0574  116866024.515 7  91064439.16945
      -401.202        -312.630
  22770552.213    22770551.8134   22770553.9984  119660083.287 7  93241648.67544
      1496.057        1165.757
  22626144.334    22626144.3624   22626145.1794  118901163.526 7  92650286.18744
     -2727.724       -2125.489
 08  5  1 14  7  0.0000000  0 12G 2G 6G 7G 8G10G13G16G21G24G25G27G29
  24261508.895    24261513.9844   24261513.1414  127495091.909 5  99346832.90041
     -4126.142       -3215.144
  23012599.247    23012599.4864   23012601.4714  120932032.659 6  94232777.28343
      2136.347        1664.674
  22229646.523    22229646.5594   22229647.4134  116817601.339 7  91026723.01444
      1374.176        1070.801
  24389594.197    24389594.3264   24389595.8984  128168203.173 5  99871329.28541
      3499.174        2726.599
  20896542.298    20896541.3964   20896543.4574  109812081.515 8  85567867.88346
      -315.641        -245.949
  22639779.382    22639779.8364   22639780.7804  118972832.198 6  92706119.53443
     -3174.878       -2473.927
  22216295.992    22216295.4224   22216296.6514  116747420.249 7  90972041.64844
      -976.699        -761.043
  23441624.295    23441623.2364   23441624.6624  123186591.137 6  95989559.20842
      2949.635        2298.431
  21337921.931    21337921.5524   21337923.9374  112131566.101 8  87375242.00346
       331.847         258.589
  22241206.945    22241207.0084   22241208.3844  116878353.067 7  91074045.82245
      -420.938        -327.985
  22762055.719    22762055.4324   22762057.2284  119615434.192 6  93206857.18044
      1480.419        1153.561
  22641757.742    22641757.9534   22641758.6964  118983212.323 7  92714220.30544
     -2742.675       -2137.156
 08  5  1 14  7 30.0000000  0 12G 2G 6G 7G 8G10G13G16G21G24G25G27G29
  24285082.626    24285083.9344   24285086.6624  127618960.677 5  99443353.98241
     -4131.793       -3219.691
  23000445.625    23000446.1334   23000447.7044  120868166.456 6  94183011.43343
      2121.310        1652.998
  22221855.882    22221856.3724   22221857.1244  116776663.408 7  90994823.31044
      1354.808        1055.678
  24369637.654    24369637.9384   24369639.4444  128063335.459 5  99789614.14041
      3491.986        2721.091
  20898405.647    20898404.7404   20898406.9624  109821873.653 8  85575498.06246
      -337.312        -262.835
  22657945.749    22657945.4214   22657946.4194  119068293.877 6  92780505.22643
     -3189.146       -2485.028
  22221929.905    22221929.4944   22221930.6854  116777029.204 7  90995113.55944
      -997.316        -777.120
  23424811.898    23424811.3254   23424812.9644  123098243.771 6  95920717.15242
      2940.061        2290.951
  21336082.776    21336082.4034   21336084.8454  112121901.374 8  87367711.07146
       312.272         243.337
  22243666.305    22243666.2854   22243667.2224  116891275.574 7  91084115.29645
      -440.693        -343.391
  22753648.828    22753648.4074   22753650.3694  119571256.112 7  93172432.74344
      1464.820        1141.406
  22657456.575    22657456.6254   22657457.8784  119065710.422 7  92778504.50244
     -2757.358       -2148.581
 08  5  1 14  8  0.0000000  0 11G 6G 7G 8G10G13G16G21G24G25G27G29
  22988373.228    22988372.9104   22988374.4624  120804722.514 6  94133574.63243
      2107.334        1642.094
  22214173.204    22214173.3794   22214174.1914  116736289.415 7  90963363.04044
      1335.963        1040.999
  24349719.733    24349718.5414   24349722.1424  127958662.313 5  99708050.66741
      3485.289        2715.723
  20900388.461    20900387.5684   20900389.7214  109832293.482 8  85583617.42646
      -358.161        -279.075
  22676188.803    22676188.2204   22676189.2764  119164162.389 6  92855207.95143
     -3202.710       -2495.596
  22227677.929    22227677.8944   22227678.7644  116807235.374 7  91018650.85344
     -1017.234        -792.642
  23408050.928    23408050.2324   23408051.1814  123010161.941 6  95852081.95643
      2931.039        2283.941
  21334351.546    21334351.1644   21334353.4974  112112804.535 8  87360622.64546
       293.428         228.650
  22246233.395    22246233.5204   22246234.6214  116904766.636 7  91094627.80045
      -459.415        -357.988
  22745327.156    22745326.8304   22745329.3684  119527525.601 6  93138357.04544
      1449.777        1129.702
  22673234.755    22673235.8994   22673236.6004  119148630.360 6  92843117.41544
     -2771.325       -2159.475
 08  5  1 14  8 30.0000000  0 11G 6G 7G 8G10G13G16G21G24G25G27G29
  22976383.827    22976383.5324   22976384.9284  120741717.449 6  94084479.78942
      2092.714        1630.671
  22206600.744    22206600.7954   22206601.3444  116696495.171 7  90932354.49544
      1316.747        1026.026
  24329841.991    24329840.4464   24329843.3754  127854201.334 5  99626652.46841
      3478.758        2710.718
  20902493.297    20902492.4344   20902494.5944  109843354.390 8  85592236.26646
      -379.327        -295.570
  22694511.142    22694511.5884   22694512.6024  119260449.509 6  92930236.85443
     -3216.432       -2506.286
  22233542.956    22233542.2604   22233543.0794  116838052.146 7  91042663.93244
     -1037.304        -808.288
  23391342.779    23391342.9164   23391342.7214  122922363.249 6  95783667.39443
      2922.047        2276.933
  21332731.121    21332730.9944   21332733.3074  112104290.151 8  87353988.06946
       274.212         213.665
  22248911.542    22248911.4304   22248912.6824  116918840.205 7  91105594.24845
      -478.724        -373.018
  22737093.847    22737093.0944   22737095.5944  119484258.433 7  93104642.42844
      1434.444        1117.765
  22689097.231    22689097.5864   22689098.6114  119231983.871 7  92908068.16144
     -2785.640       -2170.617
 08  5  1 14  9  0.0000000  0 11G 6G 7G 8G10G13G16G21G24G25G27G29
  22964480.620    22964480.6104   22964482.1294  120679166.306 6  94035738.65843
      2077.662        1618.966
  22199141.096    22199141.6434   22199142.3654  116657295.514 7  90901809.24844
      1296.845        1010.531
  24310006.596    24310005.6744   24310009.0924  127749968.756 5  99545432.27741
      3470.886        2704.575
  20904722.705    20904721.9504   20904724.0334  109855069.932 8  85601365.25546
      -401.339        -312.726
  22712916.186    22712915.6934   22712917.3844  119357165.622 6  93005600.05643
     -3230.807       -2517.470
  22239525.538    22239524.7784   22239525.6344  116869491.834 7  91067162.39244
     -1058.195        -824.555
  23374691.687    23374691.9584   23374693.1074  122834862.779 6  95715485.25743
      2911.776        2268.929
  21331224.511    21331224.1714   21331226.4534  112096371.792 8  87347817.93446
       254.181         198.076
  22251703.000    22251702.8544   22251703.9814  116933509.128 7  91117024.59145
      -498.756        -388.638
  22728951.070    22728951.1654   22728953.1574  119441468.898 7  93071299.93044
      1418.524        1105.348
  22705043.921    22705043.6484   22705044.9514  119315781.905 6  92973365.29644
     -2800.616       -2182.290
 08  5  1 14  9 30.0000000  0 11G 6G 7G 8G10G13G16G21G24G25G27G29
  22952660.366    22952659.6334   22952662.1414  120617050.708 6  93987336.91543
      2063.144        1607.652
  22191791.203    22191791.4104   22191792.1164  116618671.445 7  90871712.58944
      1277.793         995.684
  24290212.931    24290211.8504   24290214.3554  127645946.383 5  99464375.92041
      3463.555        2698.807
  20907072.604    20907071.8004   20907073.9024  109867418.542 8  85610987.54646
      -422.297        -329.064
  22731397.937    22731397.0444   22731398.3744  119454286.715 6  93081278.77943
     -3244.004       -2527.806
  22245622.331    22245621.9904   22245622.7114  116901532.640 7  91092129.25744
     -1078.168        -840.120
  23358095.055    23358093.7684   23358094.8894  122747641.046 6  95647520.30943
      2902.643        2261.798
  21329826.849    21329826.8014   21329829.0914  112089029.130 8  87342096.37646
       235.027         183.133
  22254603.751    22254603.2294   22254604.7884  116948752.073 7  91128902.18845
      -517.683        -403.394
  22720895.501    22720895.5234   22720897.7064  119399137.875 7  93038314.74344
      1403.349        1093.505
  22721069.974    22721069.9254   22721071.2694  119400001.463 7  93038990.88944
     -2814.486       -2193.116
 08  5  1 14 10  0.0000000  0 11G 6G 7G 8G10G13G16G21G24G25G27G29
  22940922.194    22940922.3264   22940923.6984  120555367.505 6  93939272.10243
      2048.385        1596.110
  22184550.396    22184550.3554   22184551.2844  116580619.212 7  90842061.55444
      1258.430         980.599
  24270456.690    24270455.1454   24270459.4654  127542132.167 5  99383481.75841
      3456.675        2693.508
  20909541.936    20909541.2174   20909543.1864  109880394.850 8  85621098.92446
      -443.498        -345.581
  22749953.934    22749953.8134   22749955.1964  119551805.405 6  93157267.29643
     -3257.756       -2538.474
  22251832.567    22251832.4884   22251833.2894  116934168.455 7  91117559.76344
     -1098.231        -855.755
  23341549.628    23341549.3674   23341549.4434  122660695.776 6  95579770.76842
      2893.323        2254.521
  21328538.445    21328538.1944   21328540.5834  112082257.860 8  87336820.07346
       215.684         168.071
  22257612.657    22257612.2104   22257613.4074  116964563.567 7  91141222.81645
      -537.028        -418.431
  22712927.162    22712926.7444   22712928.6434  119357261.822 6  93005684.05144
      1387.778        1081.432
  22737175.046    22737175.2604   22737176.4304  119484635.246 7  93104939.26044
     -2828.432       -2203.959
 08  5  1 14 10 30.0000000  0 11G 6G 7G 8G10G13G16G21G24G25G27G29
  22929269.197    22929269.8284   22929271.1934  120494131.646 6  93891555.85343
      2033.162        1584.307
  22177420.564    22177420.7144   22177421.5884  116543153.606 7  90812867.62244
      1238.448         965.046
  24250743.157    24250742.8194   24250744.7534  127438541.911 5  99302762.16542
      3448.638        2687.219
  20912133.328    20912132.4684   20912134.4954  109894011.621 8  85631709.33746
      -465.219        -362.494
  22768589.474    22768589.1714   22768589.3104  119649731.926 6  93233573.67743
     -3271.532       -2549.210
  22258159.064    22258158.4114   22258159.2704  116967411.396 6  91143463.34744
     -1118.838        -871.825
  23325059.170    23325058.8594   23325060.2024  122574042.147 6  95512248.48742
      2882.844        2246.398
  21327361.181    21327360.9384   21327363.3144  112076071.225 8  87331999.31546
       195.944         152.706
  22260731.795    22260731.7974   22260733.4024  116980956.433 7  91153996.47945
      -556.667        -433.742
  22705047.545    22705047.1424   22705049.1704  119315855.334 7  92973419.30344
      1371.773        1068.905
  22753361.242    22753361.6154   22753362.7814  119569693.438 6  93171218.30144
     -2842.865       -2215.211
 08  5  1 14 11  0.0000000  0 11G 6G 7G 8G10G13G16G21G24G25G27G29
  22917701.815    22917701.2444   22917703.3724  120433342.324 6  93844187.57443
      2018.547        1572.837
  22170402.333    22170402.3934   22170403.2824  116506272.645 7  90784129.23044
      1219.274         950.078
  24231073.392    24231073.1464   24231076.9704  127335175.227 5  99222216.79441
      3441.372        2681.565
  20914845.690    20914844.7304   20914846.9244  109908265.231 8  85642816.03946
      -485.997        -378.699
  22787300.464    22787300.6344   22787302.3644  119748060.185 6  93310193.06143
     -3284.594       -2559.456
  22264599.213    22264599.0154   22264600.1654  117001257.064 7  91169836.58644
     -1138.537        -887.191
  23308626.058    23308624.8454   23308625.8774  122487680.431 6  95444953.64043
      2873.605        2239.149
  21326294.727    21326294.5954   21326296.9424  112070466.507 8  87327632.01046
       176.874         137.826
  22263961.360    22263961.0934   22263962.5104  116997927.007 7  91167220.27745
      -575.609        -448.510
  22697257.495    22697256.9484   22697259.1874  119274916.282 7  92941518.71744
      1356.623        1057.116
  22769627.025    22769627.4334   22769628.8354  119655170.762 6  93237823.96044
     -2856.566       -2225.891
 08  5  1 14 11 30.0000000  0 11G 6G 7G 8G10G13G16G21G24G25G27G29
  22906218.590    22906218.5644   22906220.3334  120372997.715 6  93797165.78743
      2003.859        1561.436
  22163494.794    22163495.2284   22163495.9444  116469974.362 7  90755844.90444
      1200.077         935.117
  24211445.678    24211445.5484   24211450.1344  127232031.084 5  99141844.80942
      3434.365        2676.068
  20917678.557    20917677.7244   20917679.6304  109923152.044 8  85654416.14746
      -506.941        -395.036
  22806087.010    22806087.3734   22806088.9524  119846783.784 6  93387120.56143
     -3297.426       -2569.430
  22271153.594    22271153.6534   22271154.5054  117035701.079 7  91196676.08144
     -1158.218        -902.519
  23292247.083    23292246.1564   23292247.0444  122401608.244 6  95377884.44143
      2864.165        2231.811
  21325338.198    21325338.1174   21325340.4604  112065440.166 8  87323715.37946
       157.667         122.857
  22267299.722    22267299.6454   22267301.0794  117015471.074 7  91180890.95644
      -594.669        -463.396
  22689555.713    22689554.7824   22689557.4154  119234442.564 7  92909980.82044
      1341.099        1045.025
  22785971.367    22785971.9134   22785973.2054  119741061.062 7  93304751.46644
     -2870.039       -2236.362
 08  5  1 14 12  0.0000000  0 11G 6G 7G 8G10G13G16G21G24G25G27G29
  22894821.752    22894821.2844   22894823.3604  120313107.207 6  93750497.86543
      1987.766        1548.929
  22156699.926    22156700.4344   22156701.1834  116434267.305 7  90728021.22944
      1179.724         919.261
  24191861.618    24191861.7694   24191865.2764  127129119.592 5  99061654.07141
      3425.728        2669.402
  20920633.073    20920632.2634   20920634.2714  109938678.735 8  85666514.86646
      -528.918        -412.152
  22824949.350    22824949.8154   22824950.2494  119945907.246 6  93464359.57842
     -3311.494       -2580.402
  22277823.533    22277822.9924   22277823.5694  117070749.519 7  91223986.53244
     -1179.029        -918.705
  23275924.362    23275924.4594   23275924.1464  122315835.822 6  95311048.80143
      2853.387        2223.417
  21324493.428    21324493.1554   21324495.2994  112061000.028 8  87320255.54245
       137.519         107.153
  22270749.062    22270748.8364   22270749.7704  117033595.612 7  91195013.97245
      -614.659        -478.966
  22681943.946    22681943.3394   22681945.4394  119194442.780 6  92878812.16144
      1324.746        1032.268
  22802396.037    22802395.8804   22802397.1164  119827369.536 6  93372004.77944
     -2884.671       -2247.793
 08  5  1 14 12 30.0000000  0 11G 6G 7G 8G10G13G16G21G24G25G27G29
  22883512.025    22883511.8364   22883513.4174  120253672.747 6  93704185.29943
      1972.703        1537.188
  22150018.116    22150018.5114   22150019.4014  116399153.230 7  90700659.61345
      1159.891         903.807
  24172323.325    24172322.9174   24172325.8704  127026443.845 5  98981647.04742
      3418.151        2663.523
  20923709.360    20923708.5884   20923710.6354  109954844.647 8  85679111.68646
      -550.173        -428.700
  22843887.536    22843887.7754   22843890.4174  120045427.818 6  93541908.08042
     -3324.409       -2590.457
  22284608.001    22284607.2864   22284608.1904  117106400.976 7  91251766.86644
     -1199.145        -934.414
  23259659.898    23259659.6504   23259660.2474  122230365.055 6  95244448.23243
      2843.422        2215.665
  21323759.749    21323759.6314   21323762.0364  112057146.190 8  87317252.57746
       118.047          91.969
  22274308.281    22274308.0774   22274309.3054  117052300.029 7  91209588.84245
      -633.880        -493.936
  22674422.596    22674421.9824   22674424.3494  119154918.398 7  92848013.93744
      1308.844        1019.891
  22818898.805    22818898.7054   22818900.3214  119914093.634 7  93439581.94544
     -2898.478       -2258.557
 08  5  1 14 13  0.0000000  0 11G 6G 7G 8G10G13G16G21G24G25G27G29
  22872284.906    22872285.1144   22872287.4174  120194676.677 6  93658214.33243
      1958.318        1525.977
  22143445.218    22143445.5994   22143446.5824  116364613.503 7  90673745.51145
      1141.032         889.109
  24152827.245    24152826.1624   24152828.8194  126923986.606 5  98901810.25842
      3410.847        2657.826
  20926903.258    20926902.6574   20926904.8124  109971629.557 8  85692190.81546
      -570.543        -444.568
  22862896.885    22862897.3674   22862898.4364  120145322.580 6  93619748.09142
     -3336.873       -2600.161
  22291502.891    22291502.5524   22291503.3764  117142634.667 7  91280000.90144
     -1218.251        -949.303
  23243449.212    23243449.0884   23243449.2854  122145178.172 6  95178068.85143
      2834.001        2208.284
  21323134.647    21323134.2094   21323136.5004  112053859.036 8  87314691.15646
        99.361          77.430
  22277973.732    22277973.7894   22277975.2494  117071563.924 7  91224599.67245
      -652.345        -508.309
  22666988.175    22666987.7704   22666989.9194  119115851.141 7  92817571.94544
      1293.850        1008.200
  22835476.442    22835476.9234   22835478.2214  120001210.691 7  93507465.31344
     -2911.080       -2268.365
 08  5  1 14 13 30.0000000  0 11G 6G 7G 8G10G13G16G21G24G25G27G29
  22861146.449    22861145.6444   22861147.8824  120136139.098 6  93612600.63143
      1943.080        1514.092
  22136986.140    22136986.2834   22136987.1344  116330668.373 7  90647294.80445
      1121.189         873.664
  24133375.989    24133374.8714   24133378.6224  126821769.155 5  98822160.32342
      3402.332        2651.202
  20930218.596    20930217.8754   20930219.9164  109989051.045 8  85705765.98246
      -591.893        -461.195
  22881981.437    22881981.0474   22881981.2284  120245607.368 6  93697892.03642
     -3349.742       -2610.134
  22298512.023    22298511.5774   22298512.1024  117179467.691 7  91308701.93944
     -1238.174        -964.801
  23227297.624    23227296.9394   23227296.2164  122060295.760 6  95111926.73243
      2823.829        2200.420
  21322620.371    21322619.9134   21322622.3154  112051157.375 8  87312585.95146
        79.839          62.223
  22281749.498    22281749.7434   22281751.0864  117091405.087 7  91240060.30045
      -671.525        -523.248
  22659645.030    22659644.1684   22659646.5724  119077260.314 7  92787501.12844
      1277.998         995.848
  22852132.412    22852132.7904   22852133.3044  120088737.035 7  93575667.65744
     -2924.994       -2279.194
 08  5  1 14 14  0.0000000  0 11G 6G 7G 8G10G13G16G21G24G25G27G29
  22850094.570    22850094.3094   22850096.4814  120078066.227 6  93567349.03843
      1927.445        1501.902
  22130640.587    22130640.7974   22130641.7594  116297323.091 7  90621311.50645
      1101.053         857.955
  24113969.747    24113970.7144   24113972.6644  126719798.203 5  98742702.48142
      3393.797        2644.528
  20933655.572    20933654.8324   20933656.9054  110007112.881 8  85719840.14246
      -613.107        -477.751
  22901138.734    22901138.8734   22901140.4974  120346283.463 6  93776340.93042
     -3362.877       -2620.399
  22305635.558    22305635.2334   22305636.2874  117216903.029 7  91337872.30244
     -1258.346        -980.514
  23211204.225    23211202.9294   23211203.9024  121975724.901 6  95046027.36743
      2813.288        2192.170
  21322218.330    21322218.3994   21322220.5054  112049045.516 8  87310940.33146
        60.119          46.835
  22285635.978    22285635.6674   22285636.9794  117111827.051 7  91255973.49445
      -690.854        -538.337
  22652392.715    22652392.1454   22652394.8804  119039151.551 6  92757805.99744
      1261.744         983.179
  22868866.622    22868866.7964   22868867.5974  120176674.125 7  93644190.10744
     -2938.473       -2289.749
 08  5  1 14 14 30.0000000  0 11G 6G 7G 8G10G13G16G21G24G25G27G29
  22839131.358    22839131.4304   22839133.5394  120020452.907 6  93522455.55043
      1912.822        1490.525
  22124407.934    22124408.3324   22124409.1704  116264571.789 7  90595791.00345
      1081.733         842.917
  24094612.957    24094611.9704   24094614.9044  126618069.736 5  98663433.60142
      3387.033        2639.250
  20937213.131    20937212.5494   20937214.4334  110025808.009 8  85734407.74946
      -633.715        -493.803
  22920369.024    22920369.7384   22920370.7834  120447340.816 6  93855086.92042
     -3374.700       -2629.633
  22312872.386    22312872.0754   22312872.7234  117254932.402 7  91367505.56744
     -1277.516        -995.482
  23195168.433    23195168.4614   23195168.8414  121891459.710 6  94980366.19443
      2803.660        2184.666
  21321927.610    21321927.3654   21321929.7264  112047516.654 8  87309749.01646
        41.245          32.137
  22289631.064    22289630.8344   22289632.1704  117132822.314 7  91272333.41745
      -709.332        -552.700
  22645231.420    22645231.1544   22645233.3424  119001518.875 7  92728481.82644
      1246.480         971.295
  22885676.595    22885676.6504   22885677.3134  120265012.711 6  93713025.35444
     -2951.319       -2299.738
 08  5  1 14 15  0.0000000  0 11G 6G 7G 8G10G13G16G21G24G25G27G29
  22828255.907    22828256.0734   22828257.4404  119963301.707 6  93477922.14443
      1896.952        1478.141
  22118289.321    22118289.4124   22118290.4454  116232416.786 7  90570735.22645
      1061.507         827.157
  24075301.561    24075300.5054   24075303.6994  126516587.059 5  98584356.22542
      3378.169        2632.390
  20940891.192    20940890.3654   20940892.5484  110045135.758 8  85749468.32046
      -655.162        -510.511
  22939671.784    22939671.0304   22939673.1444  120548777.334 6  93934128.34042
     -3387.661       -2639.737
  22320222.256    22320221.6754   22320222.4474  117293555.172 7  91397601.21944
     -1297.627       -1011.132
  23179192.748    23179192.0714   23179192.3894  121807504.116 6  94914946.27443
      2792.994        2176.337
  21321747.812    21321747.4354   21321749.7864  112046571.498 8  87309012.54645
        21.446          16.705
  22293735.484    22293735.4054   22293736.2904  117154390.626 7  91289139.89044
      -728.892        -567.981
  22638161.136    22638160.9664   22638162.9214  118964363.990 7  92699529.95244
      1230.274         958.633
  22902562.200    22902562.9554   22902564.1704  120353750.804 6  93782171.85444
     -2965.135       -2310.479
 08  5  1 14 15 30.0000000  0 11G 6G 7G 8G10G13G16G21G24G25G27G29
  22817468.183    22817468.2184   22817469.7144  119906612.762 6  93433748.92543
      1881.539        1466.129
  22112283.488    22112283.8974   22112284.7564  116200857.264 7  90546143.42145
      1041.543         811.602
  24056034.357    24056036.7184   24056038.4734  126415351.491 5  98505471.42042
      3369.946        2625.903
  20944689.266    20944688.3254   20944690.4124  110065093.761 8  85765020.03546
      -676.291        -526.976
  22959046.527    22959045.8744   22959047.7224  120650588.449 6  94013461.64842
     -3400.481       -2649.710
  22327683.947    22327683.9234   22327684.1814  117332768.443 7  91428157.01744
     -1317.381       -1026.538
  23163275.534    23163274.4254   23163275.8304  121723858.831 6  94849768.14043
      2782.532        2168.206
  21321678.810    21321678.4594   21321680.6144  112046208.634 8  87308729.80145
         1.792           1.395
  22297948.328    22297948.1404   22297949.5824  117176529.938 7  91306391.30945
      -747.907        -582.779
  22631181.811    22631181.6284   22631183.7314  118927686.820 7  92670950.34444
      1214.029         946.005
  22919523.974    22919524.2874   22919525.7824  120442884.143 6  93851626.38344
     -2978.075       -2320.571
 08  5  1 14 16  0.0000000  0 11G 6G 7G 8G10G13G16G21G24G25G27G29
  22806771.426    22806771.5414   22806772.7634  119850398.654 6  93389945.73143
      1865.545        1453.653
  22106393.393    22106393.6994   22106394.6264  116169904.961 7  90522024.73845
      1021.397         795.880
  24036820.890    24036821.3404   24036823.3174  126314375.804 5  98426789.13242
      3361.247        2619.145
  20948608.764    20948607.9784   20948610.0444  110085691.825 8  85781070.46746
      -697.459        -543.485
  22978492.526    22978492.7244   22978494.1734  120752781.846 6  94093092.87542
     -3412.911       -2659.426
  22335260.171    22335260.0794   22335260.9724  117372581.511 7  91459180.18144
     -1337.376       -1042.100
  23147419.327    23147419.0004   23147419.6864  121640535.863 6  94784841.16843
      2771.873        2159.917
  21321722.517    21321722.2504   21321724.4574  112046438.542 8  87308908.93545
       -17.790         -13.882
  22302271.823    22302271.7384   22302272.6984  117199249.763 7  91324095.10244
      -767.208        -597.841
  22624295.284    22624294.5614   22624296.9624  118891498.849 7  92642751.93844
      1197.805         933.349
  22936562.063    22936562.7034   22936564.4254  120532420.901 6  93921395.25244
     -2991.554       -2331.094
 08  5  1 14 16 30.0000000  0 11G 6G 7G 8G10G13G16G21G24G25G27G29
  22796163.056    22796163.2644   22796164.8694  119794652.606 6  93346507.22343
      1849.868        1441.449
  22100617.699    22100618.0474   22100619.2244  116139552.664 7  90498373.54345
      1001.336         780.276
  24017656.327    24017654.8674   24017657.1394  126213654.338 5  98348304.87742
      3352.521        2612.377
  20952648.809    20952647.7614   20952649.8204  110106921.023 8  85797612.71446
      -718.505        -559.875
  22998009.761    22998009.4504   22998010.4254  120855345.666 6  94173012.69142
     -3425.294       -2669.053
  22342948.515    22342948.2064   22342948.8324  117412984.194 7  91490662.79844
     -1356.991       -1057.405
  23131623.995    23131623.0774   23131623.9474  121557529.257 6  94720160.70743
      2761.304        2151.662
  21321877.304    21321876.9784   21321879.4064  112047252.728 8  87309543.35545
       -37.312         -29.064
  22306703.521    22306703.6474   22306705.0544  117222540.672 7  91342243.86244
      -786.247        -612.661
  22617500.524    22617500.5634   22617502.3824  118855792.639 7  92614928.92844
      1181.915         920.992
  22953674.723    22953675.7004   22953677.3324  120622349.689 6  93991469.61844
     -3004.669       -2341.302
 08  5  1 14 17  0.0000000  0 11G 6G 7G 8G10G13G16G21G24G25G27G29
  22785643.212    22785643.0964   22785644.7064  119739369.797 6  93303429.72343
      1834.532        1429.506
  22094955.098    22094955.4824   22094956.2654  116109795.177 7  90475185.90745
       981.485         764.783
  23998535.505    23998535.4224   23998538.5354  126113183.307 5  98270015.80942
      3344.191        2605.871
  20956807.038    20956806.1604   20956808.1084  110128773.604 8  85814640.70546
      -739.346        -576.135
  23017596.225    23017595.8844   23017597.8354  120958270.741 6  94253213.98442
     -3437.257       -2678.386
  22350747.511    22350747.1304   22350748.1184  117453968.406 7  91522598.53744
     -1376.370       -1072.503
  23115886.830    23115887.2284   23115888.2164  121474833.861 6  94655722.75343
      2750.592        2143.312
  21322142.217    21322142.0124   21322144.4214  112048644.723 8  87310627.98746
       -56.594         -44.112
  22311243.251    22311243.1424   22311244.6694  117246395.384 7  91360831.96245
      -805.049        -627.328
  22610796.511    22610796.0774   22610798.7794  118820562.748 7  92587477.04844
      1165.853         908.455
  22970861.271    22970861.4364   22970862.7994  120712661.131 6  94061842.12644
     -3017.389       -2351.242
 08  5  1 14 17 30.0000000  0 11G 6G 7G 8G10G13G16G21G24G25G27G29
  22775213.124    22775213.0374   22775214.5824  119684558.370 6  93260719.53743
      1819.320        1417.611
  22089407.209    22089407.2924   22089408.1014  116080639.883 7  90452467.52145
       961.969         749.572
  23979466.675    23979465.4054   23979469.2234  126012971.862 6  98191929.02142
      3336.459        2599.831
  20961084.933    20961084.3164   20961086.3094  110151255.225 8  85832158.87646
      -759.677        -591.963
  23037251.939    23037250.9774   23037252.8184  121061560.381 6  94333699.32942
     -3448.926       -2687.500
  22358658.115    22358658.1264   22358658.5064  117495538.898 7  91554991.11744
     -1395.224       -1087.168
  23100211.664    23100210.8504   23100211.7354  121392458.673 7  94591534.29243
      2740.589        2135.519
  21322518.350    21322518.0294   21322520.4414  112050621.037 8  87312167.96246
       -75.476         -58.811
  22315891.591    22315891.2124   22315892.3494  117270819.563 7  91379863.77645
      -823.418        -641.642
  22604184.609    22604184.6804   22604186.6154  118785816.898 6  92560402.39244
      1150.202         896.258
  22988120.631    22988120.4624   22988122.5094  120803359.415 6  94132516.11944
     -3029.406       -2360.588
 08  5  1 14 18  0.0000000  0 11G 6G 7G 8G10G13G16G21G24G25G27G29
  22764873.217    22764873.8294   22764875.3524  119630225.903 6  93218382.57743
      1802.875        1404.824
  22083974.706    22083975.2594   22083975.8194  116052093.513 7  90430223.66145
       941.169         733.382
  23960448.125    23960446.9954   23960449.8174  125913028.642 6  98114051.18342
      3326.451        2592.056
  20965483.779    20965483.0034   20965485.3104  110174371.047 8  85850171.21146
      -781.209        -608.729
  23056977.014    23056976.6354   23056977.9604  121165217.297 6  94414470.91342
     -3461.201       -2697.033
  22366682.079    22366680.7284   22366681.7154  117537700.385 6  91587844.20044
     -1415.247       -1102.785
  23084598.784    23084598.5004   23084599.4154  121310411.461 6  94527601.42043
      2729.086        2126.548
  21323006.688    21323006.2594   21323008.8274  112053187.001 8  87314167.40646
       -95.531         -74.427
  22320648.262    22320647.8244   22320649.2504  117295818.098 7  91399343.16544
      -843.069        -656.929
  22597666.329    22597666.0564   22597668.4274  118751561.759 7  92533710.09244
      1133.530         883.266
  23005453.449    23005453.6984   23005455.7094  120894447.370 6  94203493.72944
     -3042.775       -2370.965
 08  5  1 14 18 30.0000000  0 11G 6G 7G 8G10G13G16G21G24G25G27G29
  22754628.537    22754627.4234   22754630.0644  119576383.850 6  93176427.72943
      1786.694        1392.225
  22078660.710    22078660.7354   22078661.4344  116024166.886 7  90408462.67045
       920.667         717.411
  23941483.309    23941481.9154   23941484.9864  125813365.518 6  98036391.61042
      3317.461        2585.010
  20970004.846    20970004.1474   20970006.1614  110198129.611 8  85868684.39446
      -802.516        -625.336
  23076772.768    23076773.7654   23076774.5784  121269248.466 5  94495534.15242
     -3473.687       -2706.773
  22374818.633    22374818.0114   22374818.6344  117580460.878 7  91621164.04544
     -1435.135       -1118.282
  23069050.286    23069050.2554   23069050.3324  121228704.590 6  94463933.72443
      2718.024        2117.946
  21323608.989    21323608.5534   21323611.1834  112056352.285 8  87316633.84346
      -115.268         -89.819
  22325515.981    22325515.9714   22325517.0364  117321399.942 7  91419277.08344
      -862.218        -671.851
  22591243.081    22591242.7724   22591244.4884  118717808.175 7  92507408.60044
      1116.794         870.257
  23022863.054    23022862.5454   23022864.8144  120985932.241 6  94274780.62644
     -3055.748       -2381.124
 08  5  1 14 19  0.0000000  0 11G 6G 7G 8G10G13G16G21G24G25G27G29
  22744472.517    22744472.5544   22744474.8794  119523020.076 6  93134845.58643
      1770.583        1379.622
  22073462.035    22073462.0714   22073462.6974  115996847.257 7  90387174.63245
       900.242         701.498
  23922568.809    23922567.7264   23922571.6594  125713971.544 6  97958941.75142
      3308.397        2577.973
  20974645.402    20974644.8324   20974646.9634  110222516.439 8  85887687.11046
      -823.533        -641.697
  23096638.446    23096637.2354   23096638.5384  121373636.913 6  94576875.74142
     -3485.761       -2716.161
  22383066.784    22383066.5234   22383066.9474  117623805.428 7  91654939.01544
     -1454.804       -1133.608
  23053564.311    23053564.3314   23053564.8624  121147326.338 7  94400522.11643
      2706.832        2109.223
  21324322.783    21324322.3874   21324324.8244  112060103.144 8  87319556.59246
      -135.025        -105.206
  22330492.554    22330492.0414   22330493.5574  117347550.042 7  91439653.78444
      -881.440        -686.822
  22584913.145    22584913.0274   22584914.3814  118684543.354 7  92481487.95044
      1100.310         857.409
  23040343.762    23040343.8554   23040346.0644  121077797.412 6  94346363.84244
     -3068.713       -2391.191
 08  5  1 14 19 30.0000000  0 11G 6G 7G 8G10G13G16G21G24G25G27G29
  22734410.645    22734410.5984   22734412.7144  119470141.794 6  93093641.74043
      1754.347        1367.029
  22068379.663    22068379.9634   22068380.5674  115970141.226 7  90366364.73145
       879.995         685.709
  23903707.842    23903706.8804   23903710.3634  125614855.190 5  97881708.22742
      3299.475        2571.016
  20979406.842    20979405.9934   20979407.9844  110247536.138 8  85907182.98246
      -844.584        -658.119
  23116571.204    23116571.3004   23116572.5234  121478385.330 6  94658497.85442
     -3497.708       -2725.506
  22391426.640    22391426.1794   22391427.1474  117667737.671 6  91689171.92244
     -1474.265       -1148.746
  23038142.850    23038142.5464   23038143.2174  121066284.002 6  94337372.25143
      2695.909        2100.724
  21325148.881    21325148.7464   21325151.1964  112064445.010 8  87322939.84146
      -154.584        -120.449
  22335577.625    22335577.4094   22335578.6694  117374273.195 7  91460477.02744
      -900.342        -701.563
  22578677.326    22578676.7914   22578678.8914  118651773.707 7  92455953.17944
      1083.982         844.645
  23057898.248    23057898.8094   23057900.7514  121170045.779 6  94418245.65644
     -3081.262       -2400.984
 08  5  1 14 20  0.0000000  0 11G 6G 7G 8G10G13G16G21G24G25G27G29
  22724441.604    22724441.4524   22724443.6224  119417752.203 6  93052818.68943
      1737.822        1354.113
  22063414.811    22063415.2154   22063416.1894  115944051.469 7  90346035.07245
       859.073         669.406
  23884900.189    23884898.8204   23884901.2254  125516020.779 6  97804694.36742
      3289.510        2563.222
  20984288.512    20984287.6874   20984289.5164  110273189.304 8  85927172.46246
      -865.931        -674.750
  23136570.919    23136572.5544   23136573.4144  121583492.299 5  94740399.38342
     -3509.685       -2734.850
  22399898.493    22399898.1984   22399898.5654  117712257.304 7  91723862.54144
     -1494.137       -1164.256
  23022785.596    23022785.6824   23022786.0014  120985581.536 6  94274487.24943
      2684.258        2091.657
  21326087.787    21326087.6084   21326090.2554  112069379.225 8  87326784.67746
      -174.657        -136.102
  22340772.125    22340771.7564   22340773.1304  117401569.882 7  91481747.16344
      -919.657        -716.624
  22572536.000    22572535.8364   22572537.9024  118619501.779 7  92430806.24444
      1067.022         831.446
  23075526.064    23075525.7224   23075527.5064  121262676.600 7  94490425.48744
     -3094.217       -2411.080
 08  5  1 14 20 30.0000000  0 11G 6G 7G 8G10G13G16G21G24G25G27G29
  22714563.675    22714564.0574   22714565.6274  119365846.036 6  93012372.33643
      1721.848        1341.695
  22058566.231    22058566.8164   22058567.3954  115918571.697 7  90326180.71345
       839.013         653.775
  23866145.605    23866143.9354   23866148.2324  125417463.654 5  97727896.61442
      3280.304        2556.090
  20989288.981    20989288.0714   20989290.1864  110299467.315 8  85947648.82346
      -886.547        -690.808
  23156640.133    23156639.4874   23156641.0914  121688947.422 6  94822572.22142
     -3520.991       -2743.647
  22408480.601    22408480.5584   22408480.9314  117757355.964 7  91759004.35344
     -1513.203       -1179.126
  23007492.030    23007491.4204   23007492.2364  120905213.506 6  94211862.81843
      2673.215        2083.013
  21327138.295    21327137.8664   21327140.3234  112074898.479 8  87331085.38046
      -193.963        -151.135
  22346073.792    22346073.8824   22346075.1974  117429432.217 7  91503458.08944
      -938.404        -731.212
  22566488.328    22566487.9894   22566490.1084  118587721.519 7  92406042.43244
      1050.840         818.836
  23093223.467    23093223.9104   23093225.2424  121355679.734 6  94562895.45444
     -3106.566       -2420.683
 08  5  1 14 21  0.0000000  0 11G 6G 7G 8G10G13G16G21G24G25G27G29
  22704778.660    22704778.1984   22704780.2924  119314423.888 6  92972303.14643
      1705.227        1328.744
  22053834.091    22053834.0504   22053834.8114  115893701.975 7  90306801.70745
       818.030         637.421
  23847442.821    23847442.5384   23847446.1354  125319185.804 6  97651316.53042
      3270.412        2548.432
  20994408.276    20994407.4534   20994409.6194  110326368.919 8  85968611.10346
      -907.870        -707.435
  23176771.047    23176773.0794   23176773.4084  121794747.059 5  94905013.46442
     -3533.080       -2753.090
  22417172.163    22417171.8764   22417173.0074  117803031.233 7  91794595.45344
     -1532.793       -1194.376
  22992261.899    22992261.5614   22992262.9184  120825181.391 6  94149500.13843
      2661.373        2073.831
  21328299.628    21328299.3034   21328301.7584  112081001.815 8  87335841.19946
      -213.974        -166.742
  22351483.005    22351483.3064   22351484.5784  117457858.164 7  91525608.17244
      -957.687        -746.241
  22560534.296    22560533.9724   22560535.8274  118556432.937 7  92381661.74144
      1034.065         805.753
  23110991.932    23110992.0854   23110993.2064  121449051.763 6  94635652.83144
     -3119.392       -2430.713
 08  5  1 14 21 30.0000000  0 11G 6G 7G 8G10G13G16G21G24G25G27G29
  22695088.737    22695088.3414   22695090.7524  119263504.040 6  92932625.35343
      1688.650        1315.814
  22049220.861    22049220.8864   22049221.7704  115869459.663 7  90287911.60345
       797.277         621.239
  23828798.465    23828798.3594   23828800.4944  125221206.088 6  97574968.76842
      3260.517        2540.665
  20999649.136    20999648.2404   20999650.2494  110353909.528 8  85990071.29146
      -928.944        -723.863
  23196974.040    23196973.8534   23196974.7014  121900904.344 6  94987733.37842
     -3545.002       -2762.353
  22425976.925    22425975.9734   22425976.5044  117849297.725 6  91830647.24944
     -1552.299       -1209.606
  22977100.183    22977099.4774   22977100.5374  120745503.848 7  94087413.75543
      2649.588        2064.637
  21329575.298    21329575.0744   21329577.4904  112087705.527 8  87341064.85946
      -233.732        -182.120
  22357002.988    22357002.8314   22357004.0894  117486863.260 7  91548209.54144
      -976.711        -761.071
  22554677.116    22554676.5024   22554679.0364  118525653.319 7  92357677.62944
      1017.049         792.504
  23128832.600    23128832.7494   23128834.0544  121542806.185 6  94708708.18644
     -3131.725       -2440.318
 08  5  1 14 22  0.0000000  0 11G 6G 7G 8G10G13G16G21G24G25G27G29
  22685493.844    22685493.6984   22685495.7404  119213083.637 6  92893336.74043
      1672.168        1302.979
  22044725.956    22044726.6054   22044727.3714  115845841.317 7  90269507.68845
       776.470         605.036
  23810209.142    23810209.8314   23810211.5334  125123522.813 6  97498851.97742
      3250.814        2533.162
  21005010.367    21005009.5174   21005011.6094  110382083.450 8  86012024.98946
      -950.025        -740.272
  23217241.217    23217241.5904   23217242.9264  122007412.403 6  95070726.63142
     -3556.439       -2771.247
  22434892.032    22434891.9054   22434892.1684  117896149.623 7  91867155.23444
     -1571.905       -1224.846
  22962005.023    22962004.7174   22962005.5744  120666178.702 7  94025601.96043
      2637.744        2055.378
  21330964.418    21330963.9864   21330966.6294  112095004.968 8  87346752.68946
      -253.538        -197.555
  22362631.630    22362631.4724   22362633.1674  117516442.124 7  91571258.00644
      -995.847        -776.000
  22548916.139    22548915.4644   22548917.5954  118495379.514 7  92334087.63644
      1000.480         779.599
  23146745.254    23146745.3034   23146746.7494  121636936.147 6  94782056.16544
     -3144.197       -2450.028
 08  5  1 14 22 30.0000000  0 11G 6G 7G 8G10G13G16G21G24G25G27G29
  22675992.367    22675992.5484   22675994.6344  119163153.030 6  92854429.77343
      1655.356        1289.897
  22040348.620    22040348.8014   22040349.6474  115822836.408 7  90251581.79645
       755.785         588.932
  23791675.179    23791675.1814   23791678.2774  125026127.097 6  97422959.28142
      3240.854        2525.342
  21010490.021    21010488.9244   21010490.9624  110410878.151 8  86034462.43446
      -970.955        -756.576
  23237573.818    23237572.4254   23237574.2804  122114256.317 6  95153981.57042
     -3567.913       -2780.162
  22443916.796    22443916.0104   22443917.1294  117943573.529 7  91904108.94244
     -1591.091       -1239.803
  22946975.980    22946974.8574   22946975.5254  120587196.262 7  93964057.20143
      2626.181        2046.374
  21332464.677    21332464.2914   21332466.7654  112102888.249 8  87352895.46746
      -273.381        -213.019
  22368366.839    22368367.0324   22368368.2274  117546581.991 7  91594743.62044
     -1014.794        -790.746
  22543249.475    22543248.9544   22543251.0284  118465600.819 7  92310883.45644
       983.620         766.459
  23164725.664    23164726.5644   23164727.7504  121731427.358 6  94855685.64744
     -3156.515       -2459.609
 08  5  1 14 23  0.0000000  0 12G 6G 7G 8G10G13G16G21G24G25G26G27G29
  22666586.791    22666586.7964   22666588.3434  119113724.011 6  92815913.65243
      1638.265        1276.543
  22036089.801    22036089.7754   22036090.9494  115800456.098 7  90234142.58445
       734.794         572.552
  23773198.985    23773199.0504   23773201.1424  124929032.288 6  97347300.99442
      3230.487        2517.276
  21016089.064    21016088.4284   21016090.4624  110440303.299 8  86057391.13746
      -992.101        -773.087
  23257970.245    23257970.6224   23257972.2944  122221443.571 6  95237504.12342
     -3579.368       -2789.153
  22453051.552    22453050.8114   22453051.5444  117991578.128 7  91941515.12844
     -1610.483       -1254.913
  22932013.620    22932013.1314   22932013.3154  120508569.219 6  93902789.40743
      2614.255        2037.077
  21334077.786    21334077.6464   21334079.8324  112111365.555 8  87359501.12946
      -293.312        -228.563
  22374210.980    22374210.9464   22374212.0424  117577292.438 7  91618673.84145
     -1033.967        -805.702
  24107724.425    24107721.5064   24107725.0184  126686916.820 4  98717115.74441
      4095.559        3191.268
  22537678.511    22537678.6474   22537680.9074  118436328.609 7  92288073.93844
       966.407         753.038
  23182777.101    23182778.0894   23182779.0254  121826287.560 6  94929602.63944
     -3168.922       -2469.300
 08  5  1 14 23 30.0000000  0 13G 3G 6G 7G 8G10G13G16G21G24G25G26G27
                                G29
  24269969.827    24269969.4824   24269972.7564  127539546.389 6  99381490.72141
      3317.088        2584.804
  22657277.266    22657277.2764   22657278.6324  119064802.516 6  92777793.01143
      1622.411        1264.203
  22031950.995    22031951.0474   22031952.0114  115778705.718 7  90217194.22545
       714.456         556.724
  23754782.224    23754780.0584   23754783.2354  124832245.239 6  97271882.55342
      3221.103        2509.919
  21021809.292    21021808.4974   21021810.5054  110470361.864 8  86080813.38746
     -1012.547        -789.009
  23278433.218    23278433.3974   23278433.4844  122328975.567 6  95321295.25442
     -3590.216       -2797.523
  22462297.477    22462297.1944   22462297.7524  118040165.785 6  91979375.64044
     -1629.385       -1269.665
  22917120.053    22917119.6494   22917119.1714  120430303.873 7  93841803.41443
      2602.751        2028.115
  21335804.817    21335804.5684   21335806.7934  112120440.790 8  87366572.74246
      -312.542        -243.555
  22380164.114    22380164.1474   22380165.5944  117608576.449 7  91643050.98444
     -1052.308        -819.988
  24084355.084    24084355.8264   24084356.2274  126564114.937 5  98621426.03441
      4090.687        3187.611
  22532205.760    22532205.7104   22532208.0874  118407568.017 7  92265663.10944
       949.953         740.220
  23200899.752    23200899.9744   23200901.4764  121921518.316 6  95003808.40844
     -3180.450       -2478.254
 08  5  1 14 24  0.0000000  0 13G 3G 6G 7G 8G10G13G16G21G24G25G26G27
                                G29
  24251058.205    24251059.1464   24251060.4564  127440170.514 6  99304055.03742
      3307.362        2577.158
  22648063.878    22648064.0754   22648066.7574  119016390.352 6  92740069.28744
      1604.751        1250.457
  22027932.270    22027931.9114   22027932.8674  115757585.961 7  90200737.26045
       692.989         539.992
  23736422.044    23736422.2084   23736423.9084  124735768.867 6  97196706.16842
      3210.362        2501.620
  21027649.407    21027648.5764   21027650.6744  110501052.659 8  86104728.29946
     -1033.881        -805.623
  23298960.817    23298960.1454   23298962.3474  122436849.210 6  95405352.62842
     -3602.018       -2806.784
  22471654.363    22471653.7474   22471654.5674  118089335.119 7  92017689.39044
     -1649.116       -1285.038
  22902295.526    22902295.1484   22902295.6214  120352402.216 6  93781100.83343
      2590.370        2018.484
  21337645.475    21337645.2114   21337647.7124  112130113.924 8  87374110.24946
      -332.843        -259.361
  22386226.140    22386226.0864   22386227.6704  117640433.152 7  91667874.39244
     -1071.878        -835.232
  24061023.576    24061019.4494   24061022.4364  126441495.153 4  98525878.31641
      4084.094        3182.364
  22526831.169    22526830.2824   22526832.3024  118379319.893 6  92243651.61144
       932.668         726.742
  23219091.681    23219091.7354   23219093.1994  122017116.815 6  95078300.71444
     -3193.135       -2488.165
 08  5  1 14 24 30.0000000  0 13G 3G 6G 7G 8G10G13G16G21G24G25G26G27
                                G29
  24232200.106    24232199.0384   24232201.5794  127341065.111 6  99226830.06542
      3298.584        2570.322
  22638947.467    22638947.5984   22638949.2054  118968480.128 6  92702736.65944
      1588.131        1237.503
  22024031.413    22024031.5894   22024032.5884  115737088.699 7  90184765.39945
       672.492         524.027
  23718120.842    23718120.1334   23718122.4214  124639596.642 5  97121766.77142
      3200.246        2493.751
  21033608.239    21033607.3314   21033609.2804  110532365.651 8  86129128.03746
     -1054.576        -821.738
  23319550.824    23319551.4834   23319552.4684  122545052.703 6  95489666.96942
     -3612.649       -2815.044
  22481119.448    22481118.9884   22481119.7884  118139075.504 7  92056448.12544
     -1667.929       -1299.688
  22887539.419    22887538.7784   22887539.0744  120274857.794 6  93720676.61743
      2578.453        2009.192
  21339598.251    21339598.0474   21339600.3874  112140375.802 8  87382106.50646
      -352.411        -274.605
  22392395.375    22392395.0934   22392396.6404  117672852.339 7  91693136.09045
     -1090.463        -849.717
  24037723.475    24037721.3084   24037721.8884  126319051.560 5  98430467.71041
      4078.256        3177.820
  22521550.983    22521550.8334   22521552.7324  118351576.031 7  92222033.03344
       915.852         713.652
  23237350.559    23237350.9284   23237352.8934  122113071.616 6  95153070.66644
     -3204.905       -2497.308
 08  5  1 14 25  0.0000000  0 13G 3G 6G 7G 8G10G13G16G21G24G25G26G27
                                G29
  24213393.488    24213394.4164   24213396.3104  127242239.655 6  99149823.26342
      3289.021        2562.887
  22629928.024    22629927.8164   22629929.7104  118921080.358 6  92665801.77444
      1571.100        1224.220
  22020250.522    22020250.8294   22020251.8714  115717221.634 7  90169284.59045
       651.476         507.654
  23699880.206    23699879.7074   23699881.5674  124543738.241 6  97047071.92242
      3189.491        2485.301
  21039686.412    21039685.6014   21039687.6594  110564307.010 8  86154017.40346
     -1075.526        -838.073
  23340205.176    23340206.3264   23340206.0554  122653589.934 6  95574241.39942
     -3623.800       -2823.692
  22490694.618    22490693.9634   22490694.7484  118189391.921 7  92095655.71644
     -1687.156       -1314.682
  22872852.694    22872852.4524   22872852.9384  120197679.447 6  93660537.65443
      2566.100        1999.562
  21341664.255    21341663.9394   21341666.6024  112151232.997 8  87390566.66246
      -372.260        -290.055
  22398672.850    22398672.6154   22398673.9314  117705840.052 7  91718840.79644
     -1109.293        -864.372
  24014457.119    24014454.4514   24014457.6864  126196793.866 5  98335202.07141
      4071.796        3172.796
  22516369.310    22516368.9574   22516370.9604  118324344.442 7  92200813.63744
       898.691         700.286
  23255678.726    23255679.0254   23255680.9964  122209386.835 6  95228121.46444
     -3216.700       -2506.520
 08  5  1 14 25 30.0000000  0 13G 3G 6G 7G 8G10G13G16G21G24G25G26G27
                                G29
  24194643.170    24194641.6044   24194644.9464  127143699.167 6  99073038.52342
      3278.714        2554.843
  22621005.802    22621005.4634   22621006.8594  118874193.947 6  92629266.91844
      1553.770        1210.703
  22016590.400    22016590.9194   22016591.6134  115697987.331 7  90154296.80445
       629.920         490.830
  23681699.399    23681699.4394   23681701.4934  124448197.847 5  96972624.88942
      3178.877        2477.060
  21045884.087    21045883.3554   21045885.2914  110596876.550 8  86179396.26046
     -1096.684        -854.569
  23360922.821    23360922.1554   23360923.4754  122762459.646 6  95659074.88042
     -3635.036       -2832.546
  22500378.764    22500378.2234   22500379.0654  118240284.401 7  92135312.17844
     -1706.512       -1329.777
  22858236.584    22858236.4004   22858236.6554  120120870.969 6  93600686.89343
      2553.423        1989.677
  21343844.012    21343843.7424   21343845.9824  112162686.522 8  87399491.46946
      -392.362        -305.741
  22405058.207    22405058.1774   22405059.7024  117739396.557 7  91744988.72144
     -1128.493        -879.345
  23991227.627    23991227.1604   23991228.2764  126074726.888 5  98240084.95241
      4064.599        3167.158
  22511285.287    22511284.9244   22511287.1404  118297627.483 7  92179995.26544
       881.289         686.699
  23274075.503    23274075.5994   23274077.1934  122306061.531 6  95303452.37543
     -3229.258       -2516.285
 08  5  1 14 26  0.0000000  0 13G 3G 6G 7G 8G10G13G16G21G24G25G26G27
                                G29
  24175944.550    24175943.4484   24175947.3374  127045441.615 6  98996474.24742
      3270.695        2548.557
  22612180.687    22612180.1184   22612182.5154  118827818.720 7  92593130.37544
      1537.329        1197.905
  22013050.226    22013050.2514   22013051.5824  115679382.268 7  90139799.33945
       609.801         475.166
  23663578.877    23663578.1154   23663579.6964  124352974.326 6  96898424.76042
      3168.969        2469.316
  21052200.802    21052199.7914   21052201.8794  110630069.594 8  86205260.96746
     -1116.853        -870.280
  23381702.112    23381702.2944   23381703.5994  122871654.612 6  95744161.86942
     -3645.340       -2840.574
  22510172.217    22510171.6364   22510172.0904  118291747.156 7  92175413.00644
     -1724.756       -1343.972
  22843690.100    22843690.2994   22843690.3424  120044430.565 7  93541122.98343
      2541.980        1980.786
  21346136.215    21346135.7554   21346138.2584  112174732.231 8  87408877.72446
      -411.311        -320.512
  22411550.835    22411551.1164   22411552.3334  117773516.848 7  91771575.97344
     -1146.609        -893.461
  23968039.436    23968038.0654   23968035.5614  125952849.324 5  98145115.43841
      4059.136        3162.974
  22506298.334    22506297.8934   22506300.3024  118271422.240 7  92159575.60844
       865.282         674.229
  23292539.538    23292539.3464   23292541.1034  122403088.989 6  95379058.17143
     -3240.027       -2524.698
 08  5  1 14 26 30.0000000  0 13G 3G 6G 7G 8G10G13G16G21G24G25G26G27
                                G29
  24157300.815    24157300.6304   24157303.0794  126947466.545 6  98920130.05742
      3260.755        2540.811
  22603452.424    22603452.2814   22603454.2774  118781952.721 7  92557390.64144
      1520.016        1184.429
  22009628.872    22009629.1844   22009630.0824  115661403.883 7  90125790.21345
       588.524         458.605
  23645518.661    23645518.0194   23645521.1154  124258067.053 6  96824471.06342
      3157.758        2460.599
  21058634.769    21058634.0554   21058636.0484  110663881.326 8  86231607.77546
     -1137.674        -886.492
  23402541.537    23402542.1304   23402542.2734  122981168.286 6  95829497.18742
     -3656.256       -2849.008
  22520072.548    22520071.6584   22520072.7834  118343774.628 7  92215953.88144
     -1744.015       -1358.986
  22829213.736    22829213.8794   22829214.5154  119968356.572 7  93481844.55443
      2529.417        1970.990
  21348540.324    21348539.9854   21348542.3214  112187366.085 8  87418722.28746
      -431.253        -336.037
  22418150.253    22418150.4424   22418151.9444  117808196.091 7  91798598.76944
     -1165.627        -908.275
  23944882.442    23944879.3514   23944875.4734  125831160.553 5  98050293.00141
      4053.050        3158.210
  22501408.304    22501408.2434   22501410.5234  118245725.563 7  92139552.24344
       847.979         660.778
  23311068.824    23311069.0644   23311070.5974  122500462.745 6  95454933.84843
     -3251.990       -2534.002
 08  5  1 14 27  0.0000000  0 13G 3G 6G 7G 8G10G13G16G21G24G25G26G27
                                G29
  24138715.465    24138714.8154   24138718.0104  126849801.843 6  98844027.72842
      3250.286        2532.660
  22594826.460    22594826.3784   22594828.5904  118736622.698 7  92522068.55844
      1502.089        1170.504
  22006332.389    22006332.3274   22006332.9524  115644078.269 7  90112289.77945
       566.646         441.537
  23627523.721    23627523.5294   23627525.4654  124163503.693 6  96750785.33942
      3146.469        2451.806
  21065191.170    21065190.5914   21065192.3724  110698335.793 8  86258455.41446
     -1159.105        -903.217
  23423445.707    23423445.5054   23423447.5274  123091023.416 6  95915098.55542
     -3667.338       -2857.669
  22530084.494    22530084.3644   22530085.5004  118396390.608 7  92256953.33944
     -1763.433       -1374.114
  22814812.405    22814811.9854   22814812.0804  119892676.423 6  93422873.02743
      2516.296        1960.748
  21351060.844    21351060.8614   21351063.2544  112200613.281 8  87429044.77646
      -451.721        -351.999
  22424860.359    22424860.6014   22424861.8794  117843458.480 7  91826075.96744
     -1185.107        -923.477
  23921765.257    23921761.8904   23921762.9034  125709689.154 5  97955640.02741
      4045.340        3152.094
  22496620.222    22496620.1174   22496622.5154  118220563.826 7  92119945.71344
       829.909         646.676
  23329668.693    23329669.0794   23329670.1594  122598205.420 6  95531096.96543
     -3264.052       -2543.447
 08  5  1 14 27 30.0000000  0 13G 3G 6G 7G 8G10G13G16G21G24G25G26G27
                                G29
  24120184.676    24120183.4204   24120186.6864  126752419.899 6  98768145.75242
      3241.116        2525.537
  22586297.157    22586296.8844   22586299.1184  118691800.039 6  92487141.80144
      1485.183        1157.297
  22003153.756    22003153.8864   22003154.7074  115627375.739 7  90099274.81845
       545.896         425.366
  23609589.790    23609589.5324   23609592.0594  124069256.943 6  96677346.33142
      3135.618        2443.344
  21071863.828    21071863.1034   21071865.2314  110733401.652 8  86285779.45846
     -1179.475        -919.063
  23444410.323    23444409.8624   23444410.7034  123201186.708 6  96000940.03042
     -3677.906       -2865.918
  22540202.861    22540202.9444   22540203.1304  118449563.058 7  92298386.40944
     -1782.197       -1388.741
  22800480.297    22800480.2314   22800480.8404  119817362.253 7  93364186.68143
      2503.893        1951.088
  21353692.612    21353692.5014   21353694.9574  112214443.060 8  87439821.22046
      -471.207        -367.181
  22431675.949    22431675.5724   22431677.2134  117879272.676 7  91853983.12744
     -1203.386        -937.694
  23898684.648    23898682.6664   23898689.1504  125588407.799 5  97861135.26341
      4039.229        3147.431
  22491928.495    22491928.4694   22491930.1004  118195907.639 7  92100733.10944
       812.962         633.477
  23348332.181    23348332.7144   23348334.5894  122696284.200 6  95607521.97043
     -3275.287       -2552.171
 08  5  1 14 28  0.0000000  0 13G 3G 6G 7G 8G10G13G16G21G24G25G26G27
                                G29
  24101709.229    24101708.5024   24101710.5664  126655331.653 5  98692492.63342
      3231.291        2517.916
  22577865.764    22577865.6494   22577868.0704  118647494.066 7  92452617.66744
      1467.903        1143.813
  22000095.319    22000095.7474   22000096.3554  115611304.859 7  90086752.06745
       524.849         408.974
  23591717.069    23591717.0544   23591718.8014  123975337.063 6  96604162.04242
      3124.640        2434.772
  21078654.378    21078653.4434   21078655.4754  110769085.449 8  86313585.01646
     -1200.124        -935.171
  23465432.617    23465431.4744   23465434.0194  123311662.990 6  96087025.42942
     -3688.099       -2873.835
  22550428.856    22550427.8844   22550429.0734  118503297.548 7  92340257.41944
     -1800.814       -1403.252
  22786220.567    22786219.5724   22786220.3254  119742423.821 7  93305793.10043
      2491.425        1941.368
  21356436.965    21356436.6584   21356439.0154  112228862.634 8  87451057.22646
      -490.765        -382.419
  22438597.431    22438597.3184   22438598.4064  117915645.188 7  91882325.34244
     -1222.079        -952.267
  23875643.206    23875641.7994   23875641.3634  125467327.179 5  97766786.81241
      4031.921        3141.795
  22487334.536    22487334.1164   22487336.0544  118171765.508 7  92081921.07244
       795.832         620.133
  23367061.450    23367061.6234   23367063.0884  122794704.371 6  95684213.00243
     -3286.645       -2561.047
 08  5  1 14 28 30.0000000  0 13G 3G 6G 7G 8G10G13G16G21G24G25G26G27
                                G29
  24083291.609    24083291.6584   24083292.4954  126558545.318 5  98617074.78242
      3221.009        2509.887
  22569534.558    22569534.2844   22569536.2594  118603712.019 6  92418501.79544
      1450.458        1130.198
  21997158.594    21997158.9734   21997159.5244  115595871.904 7  90074726.40545
       503.645         392.452
  23573907.786    23573907.2414   23573910.9744  123881752.514 6  96531239.04942
      3113.810        2426.360
  21085563.333    21085562.3954   21085564.4454  110805391.963 8  86341875.81946
     -1220.748        -951.237
  23486515.738    23486515.5694   23486516.5324  123422454.735 6  96173356.61342
     -3698.396       -2881.901
  22560761.930    22560761.2864   22560761.8574  118557598.323 6  92382569.69944
     -1819.721       -1417.969
  22772033.423    22772032.6104   22772033.2434  119667869.026 7  93247698.46844
      2478.494        1931.286
  21359294.323    21359293.7784   21359296.0624  112243877.554 8  87462757.17746
      -510.469        -397.768
  22445626.227    22445625.7714   22445626.9684  117952580.529 7  91911106.12944
     -1240.807        -966.864
  23852639.289    23852638.6634   23852640.6744  125346455.746 5  97672601.37441
      4025.392        3136.740
  22482839.094    22482838.9834   22482841.2374  118148144.137 7  92063514.81144
       778.578         606.675
  23385855.956    23385855.5344   23385857.6564  122893468.731 6  95761172.21543
     -3298.083       -2569.968
 08  5  1 14 29  0.0000000  0 13G 3G 6G 7G 8G10G13G16G21G24G25G26G27
                                G29
  24064930.259    24064930.2154   24064932.6504  126462059.174 5  98541890.80442
      3210.217        2501.481
  22561302.276    22561302.0424   22561303.7024  118560450.672 6  92384791.66744
      1432.702        1116.401
  21994342.513    21994343.0074   21994343.4714  115581072.772 7  90063194.59045
       481.911         375.513
  23556163.797    23556162.7684   23556166.0814  123788501.553 6  96458576.00242
      3102.146        2417.266
  21092589.323    21092588.5704   21092590.5164  110842314.494 8  86370646.60545
     -1241.640        -967.512
  23507657.648    23507656.8434   23507658.7344  123533554.495 6  96259927.85842
     -3708.948       -2890.123
  22571201.442    22571201.0344   22571201.7154  118612458.767 7  92425318.09244
     -1838.785       -1432.825
  22757918.671    22757917.6694   22757918.3984  119593695.354 7  93189900.82644
      2465.271        1920.953
  21362263.664    21362263.3384   21362265.7084  112259482.639 8  87474916.99045
      -530.612        -413.474
  22452760.488    22452760.4034   22452761.2914  117990072.708 7  91940320.82744
     -1259.683        -981.578
  23829683.342    23829680.4584   23829680.9334  125225791.955 5  97578577.65541
      4018.112        3131.006
  22478442.623    22478442.3474   22478444.5104  118125039.557 7  92045511.24344
       760.980         592.969
  23404713.945    23404714.2614   23404715.9314  122992569.832 6  95838393.83443
     -3309.534       -2578.858
 08  5  1 14 29 30.0000000  0 13G 3G 6G 7G 8G10G13G16G21G24G25G26G27
                                G29
  24046629.673    24046629.0074   24046632.7724  126365886.164 5  98466950.80841
      3200.554        2493.930
  22553171.292    22553170.9084   22553172.8964  118517721.975 6  92351496.58244
      1415.563        1103.032
  21991649.154    21991649.3884   21991650.3274  115566918.721 7  90052165.45345
       461.103         359.305
  23538484.048    23538483.8064   23538486.7304  123695597.400 6  96386183.17442
      3091.113        2408.706
  21099734.625    21099733.6634   21099735.8564  110879862.702 8  86399904.94946
     -1261.934        -983.323
  23528858.707    23528859.6464   23528859.2824  123644969.796 6  96346744.95142
     -3718.822       -2897.771
  22581748.915    22581748.3664   22581749.3814  118667887.425 7  92468509.25444
     -1856.961       -1446.961
  22743878.486    22743878.3644   22743878.4344  119519915.051 7  93132409.70044
      2452.862        1911.340
  21365347.321    21365347.2314   21365349.6314  112275687.767 8  87487544.35046
      -550.074        -428.621
  22460002.598    22460002.6994   22460004.0714  118028131.184 7  91969976.80044
     -1277.980        -995.822
  23806760.842    23806759.8594   23806759.8194  125105349.445 5  97484726.36141
      4011.026        3125.487
  22474146.398    22474145.9744   22474148.5104  118102462.961 7  92027919.09944
       743.723         579.536
  23423637.738    23423638.0084   23423640.0444  123092015.398 6  95915883.84143
     -3320.340       -2587.290
 08  5  1 14 30  0.0000000  0 13G 3G 6G 7G 8G10G13G16G21G24G25G26G27
                                G29
  24028388.546    24028387.7624   24028389.1024  126270026.811 5  98392255.21541
      3189.533        2485.365
  22545141.154    22545141.1314   22545142.7454  118475525.459 7  92318616.18844
      1397.720        1089.131
  21989078.669    21989078.3814   21989079.1154  115553408.360 7  90041637.89145
       439.697         342.615
  23520870.820    23520870.4644   23520873.6404  123603040.476 6  96314060.93442
      3079.338        2399.486
  21106998.183    21106997.2544   21106999.4214  110918033.395 8  86429648.35846
     -1282.812        -999.607
  23550119.617    23550119.0244   23550121.3064  123756695.617 6  96433804.03342
     -3729.468       -2906.106
  22592404.041    22592403.8384   22592404.4184  118723880.032 7  92512139.85044
     -1875.906       -1461.746
  22729913.633    22729913.0404   22729913.2344  119446528.283 7  93075225.22043
      2439.632        1901.008
  21368544.984    21368544.6234   21368546.9224  112292490.631 8  87500637.48046
      -570.177        -444.292
  22467351.954    22467351.9334   22467353.2104  118066752.247 7  92000071.15344
     -1296.526       -1010.295
  23783879.869    23783880.9044   23783884.9724  124985128.661 5  97391047.89141
      4003.578        3119.697
  22469950.734    22469950.0414   22469952.3884  118080412.904 7  92010737.23844
       726.134         565.808
  23442626.284    23442626.6374   23442628.2284  123191800.649 6  95993638.57643
     -3331.915       -2596.289
 08  5  1 14 30 30.0000000  0 13G 3G 6G 7G 8G10G13G16G21G24G25G26G27
                                G29
  24010204.162    24010204.7344   24010206.9004  126174473.026 5  98317797.75041
      3179.784        2477.719
  22537210.705    22537211.0234   22537212.6824  118433851.490 6  92286142.97844
      1380.040        1075.360
  21986627.902    21986627.9764   21986628.7604  115540531.124 7  90031603.68045
       418.197         325.870
  23503322.215    23503322.0524   23503324.3704  123510822.676 6  96242202.92142
      3067.917        2390.656
  21114378.019    21114377.1354   21114379.0764  110956813.861 8  86459866.92546
     -1303.235       -1015.495
  23571436.487    23571435.6574   23571438.0984  123868718.081 6  96521094.23442
     -3739.276       -2913.656
  22603164.209    22603163.6674   22603165.0294  118780424.278 6  92556200.28944
     -1894.289       -1476.035
  22716022.001    22716021.2724   22716021.6294  119373526.443 6  93018340.67544
      2426.958        1891.180
  21371853.892    21371853.6004   21371855.8914  112309879.659 7  87514187.36746
      -589.768        -459.540
  22474806.232    22474805.9994   22474807.4304  118105923.997 7  92030594.60844
     -1315.191       -1024.818
  23761046.899    23761046.4194   23761047.2454  124865122.312 5  97297536.42841
      3996.567        3114.148
  22465853.141    22465852.6134   22465854.2234  118058879.185 7  91993957.71844
       708.914         552.420
  23461676.957    23461677.4924   23461678.7164  123291912.019 6  96071647.40243
     -3342.672       -2604.675
 08  5  1 14 31  0.0000000  0 13G 3G 6G 7G 8G10G13G16G21G24G25G26G27
                                G29
  23992081.097    23992080.4144   23992082.7354  126079235.092 5  98243586.37241
      3169.189        2469.537
  22529381.830    22529382.0104   22529383.2614  118392708.934 7  92254083.85444
      1362.463        1061.663
  21984299.443    21984299.4574   21984300.2224  115528294.932 7  90022068.98845
       397.198         309.505
  23485841.565    23485839.4284   23485842.8474  123418954.093 6  96170617.03742
      3056.477        2381.674
  21121874.663    21121873.7634   21121875.9304  110996209.949 8  86490565.17946
     -1323.565       -1031.337
  23592810.413    23592811.3934   23592813.6554  123981041.430 6  96608618.92042
     -3749.135       -2921.353
  22614029.571    22614029.7604   22614030.8224  118837525.090 6  92600694.42044
     -1912.600       -1490.326
  22702204.569    22702204.2544   22702205.2244  119300918.898 7  92961763.38744
      2413.629        1880.750
  21375275.928    21375275.4844   21375277.7514  112327861.565 8  87528199.24546
      -609.296        -474.767
  22482366.440    22482365.9224   22482367.3004  118145652.179 7  92061551.64144
     -1333.611       -1039.206
  23738251.825    23738252.4714   23738252.6564  124745340.134 5  97204199.69241
      3988.865        3108.224
  22461854.819    22461854.4244   22461856.7264  118037869.939 7  91977586.88444
       691.497         538.826
  23480790.091    23480790.5224   23480791.8594  123392354.097 6  96149913.94543
     -3353.551       -2613.175
 08  5  1 14 31 30.0000000  0 13G 3G 6G 7G 8G10G13G16G21G24G25G26G27
                                G29
  23974019.557    23974019.9054   23974022.1904  125984321.823 5  98169628.04342
      3157.287        2460.242
  22521655.360    22521655.4414   22521657.3204  118352105.259 7  92222444.64244
      1343.554        1046.931
  21982094.017    21982094.2214   21982095.0384  115516706.393 7  90013038.98345
       374.661         291.939
  23468426.057    23468425.9944   23468429.1764  123327443.671 6  96099310.23642
      3043.490        2371.531
  21129489.820    21129488.7594   21129490.9984  111036227.136 8  86521747.40146
     -1345.214       -1048.223
  23614243.307    23614243.7464   23614243.9844  124093669.142 6  96696380.78642
     -3760.112       -2929.959
  22625002.287    22625002.3914   22625003.3434  118895186.934 6  92645625.72243
     -1932.288       -1505.643
  22688464.765    22688463.5664   22688464.4044  119228713.706 7  92905499.61544
      2399.320        1869.619
  21378811.574    21378811.3364   21378813.5874  112346442.033 8  87542677.53646
      -630.206        -491.065
  22490032.944    22490032.7094   22490033.8644  118185941.896 7  92092946.24644
     -1353.282       -1054.491
  23715501.156    23715502.5154   23715503.5554  124625791.713 5  97111045.11141
      3980.326        3101.514
  22457958.038    22457958.0584   22457959.9464  118017391.896 7  91961629.96444
       672.929         524.370
  23499967.868    23499967.7524   23499968.7524  123493130.411 6  96228440.90843
     -3365.462       -2622.417
 08  5  1 14 32  0.0000000  0 13G 3G 6G 7G 8G10G13G16G21G24G25G26G27
                                G29
  23956020.351    23956020.9714   23956021.9184  125889733.971 5  98095923.26542
      3147.564        2452.625
  22514031.441    22514030.7694   22514033.0084  118312040.269 7  92191225.17844
      1326.706        1033.796
  21980011.505    21980011.8684   21980012.6764  115505764.274 7  90004512.68945
       354.222         276.004
  23451080.740    23451080.3414   23451084.2034  123236292.274 5  96028283.18842
      3032.568        2363.060
  21137221.992    21137221.3924   21137223.3854  111076861.658 8  86553410.66746
     -1364.503       -1063.243
  23635732.242    23635732.3554   23635733.9964  124206596.210 5  96784375.87642
     -3768.935       -2936.798
  22636081.308    22636081.2554   22636081.7144  118953406.117 6  92690991.31243
     -1949.608       -1519.192
  22674800.777    22674800.2524   22674800.6554  119156911.304 6  92849549.70844
      2386.882        1859.909
  21382460.871    21382460.4744   21382462.8364  112365618.876 8  87557620.52646
      -648.940        -505.669
  22497806.087    22497805.9624   22497807.3854  118226789.820 7  92124775.82344
     -1370.669       -1068.040
  23692800.015    23692799.4214   23692800.4114  124506478.361 5  97018073.73141
      3973.291        3096.069
  22454162.085    22454161.7864   22454163.9734  117997443.958 7  91946086.11444
       656.271         511.378
  23519207.608    23519207.5154   23519208.3774  123594236.312 6  96307224.71743
     -3375.486       -2630.245
 08  5  1 14 32 30.0000000  0 13G 3G 6G 7G 8G10G13G16G21G24G25G26G27
                                G29
  23938082.650    23938082.3134   23938084.9274  125795470.239 5  98022471.04442
      3136.695        2444.165
  22506508.991    22506508.7944   22506511.1144  118272511.140 7  92160423.26744
      1308.174        1019.361
  21978051.714    21978052.1574   21978052.8764  115495465.122 7  89996487.39845
       332.310         258.957
  23433803.251    23433802.7524   23433805.8344  123145498.013 6  95957534.42942
      3020.252        2353.442
  21145071.215    21145070.2894   21145072.2844  111118108.223 8  86585550.83346
     -1385.373       -1079.514
  23657278.561    23657277.1384   23657277.7494  124319815.448 5  96872598.63242
     -3779.093       -2944.784
  22647265.047    22647264.4084   22647265.1154  119012176.350 6  92736786.29543
     -1968.354       -1533.774
  22661213.470    22661212.6734   22661213.6384  119085509.707 7  92793912.11044
      2373.026        1849.107
  21386222.773    21386222.2034   21386224.4114  112385387.205 8  87573024.40746
      -669.035        -521.331
  22505684.233    22505684.2794   22505685.7584  118268190.447 7  92157036.05144
     -1389.390       -1082.635
  23670139.398    23670138.7394   23670139.6634  124387398.339 5  96925284.14541
      3965.134        3089.767
  22450465.979    22450466.1234   22450467.7814  117978022.560 7  91930952.55644
       638.263         497.349
  23538508.611    23538508.8054   23538510.2094  123695664.999 6  96386260.07443
     -3386.841       -2639.121
 08  5  1 14 33  0.0000000  0 13G 3G 6G 7G 8G10G13G16G21G24G25G26G27
                                G29
  23920204.869    23920205.5564   23920207.9854  125701525.037 5  97949266.99042
      3125.305        2435.285
  22499087.867    22499087.3754   22499088.9784  118233511.087 7  92130033.60944
      1290.277        1005.403
  21976212.226    21976213.0114   21976213.9154  115485801.143 7  89988957.03245
       310.646         242.069
  23416592.612    23416592.4774   23416595.1444  123055055.894 6  95887060.08342
      3007.811        2343.711
  21153034.910    21153034.0564   21153035.9604  111159957.315 8  86618160.52245
     -1405.859       -1095.484
  23678875.531    23678876.5644   23678877.4344  124433316.039 5  96961040.64641
     -3789.039       -2952.508
  22658551.458    22658550.9284   22658552.1834  119071487.622 6  92783002.87543
     -1986.870       -1548.205
  22647701.096    22647700.6974   22647701.7314  119014502.719 7  92738581.99344
      2359.348        1838.453
  21390095.417    21390094.9584   21390097.1474  112405738.346 8  87588882.42845
      -688.981        -536.870
  22513665.805    22513665.7794   22513667.0594  118310134.414 7  92189719.67544
     -1408.099       -1097.237
  23647521.805    23647521.5174   23647523.2534  124268547.014 5  96832672.78241
      3956.844        3083.195
  22446869.741    22446868.7994   22446871.0824  117959120.241 7  91916223.48444
       620.537         483.518
  23557869.049    23557869.2174   23557870.7284  123797405.394 6  96465538.28543
     -3397.469       -2647.384
